[[{"header":{"parameterUnit":"m.s-1","parameterCategory":1,"la1":31.0,"la2":29.5877,"lo1":-88.7671,"lo2":-86.6584,"dy":0.0162,"dx":0.0185,"nx":115,"ny":88,"refTime":"2023-09-13T12:00:00:Z","depth":0,"parameterNumber":2,"parameterNumberName":"U-component_of_WINDS"},"data":[0.0,0.0,0.0,0.0,0.0,0.0,0.0,0.0,0.0,0.0,0.0,0.0,0.0,0.0,0.0,0.0,0.0,0.0,0.0,0.0,0.0,0.0,0.0,0.0,0.0,0.0,0.0,0.0,0.0,0.0,0.0,0.0,0.0,0.0,0.0,0.0,0.0,0.0,0.0,0.0,0.0,0.0,0.0,0.0,0.0,0.0,0.0,0.0,0.0,0.0,0.0,0.0,0.0,0.0,0.0,0.0,0.0,0.0,0.0,0.0,0.0,0.0,0.0,0.0,0.0,0.0,0.0,0.0,0.0,0.0,0.0,0.0,0.0,0.0,0.0,0.0,0.0,0.0,0.0,0.0,0.0,0.0,0.0,0.0,0.0,0.0,0.0,0.0,0.0,0.0,0.0,0.0,0.0,0.0,0.0,0.0,0.0,0.0,0.0,0.0,0.0,0.0,0.0,0.0,0.0,0.0,0.0,0.0,0.0,0.0,0.0,0.0,0.0,0.0,0.0,0.0,0.0,0.0,0.0,0.0,0.0,0.0,0.0,0.0,0.0,0.0,0.0,0.0,0.0,0.0,0.0,0.0,0.0,0.0,0.0,0.0,0.0,0.0,0.0,0.0,0.0,0.0,0.0,0.0,0.0,0.0,0.0,0.0,0.0,0.0,0.0,0.0,0.0,0.0,0.0,0.0,0.0,0.0,0.0,0.0,0.0,0.0,0.0,0.0,0.0,0.0,0.0,0.0,0.0,0.0,0.0,0.0,0.0,0.0,0.0,0.0,0.0,0.0,0.0,0.0,0.0,0.0,0.0,0.0,0.0,0.0,0.0,0.0,0.0,0.0,0.0,0.0,0.0,0.0,0.0,0.0,0.0,0.0,0.0,0.0,0.0,0.0,0.0,0.0,0.0,0.0,0.0,0.0,0.0,0.0,0.0,0.0,0.0,0.0,0.0,0.0,0.0,0.0,0.0,0.0,0.0,0.0,0.0,0.0,0.0,0.0,0.0,0.0,0.0,0.0,0.0,0.0,0.0,0.0,0.0,0.0,0.0,0.0,0.0,0.0,0.0,0.0,0.0,0.0,0.0,0.0,0.0,0.0,0.0,0.0,0.0,0.0,0.0,0.0,0.0,0.0,0.0,0.0,0.0,0.0,0.0,0.0,0.0,0.0,0.0,0.0,0.0,0.0,0.0,0.0,0.0,0.0,0.0,0.0,0.0,0.0,0.0,0.0,0.0,0.0,0.0,0.0,0.0,0.0,0.0,0.0,0.0,0.0,0.0,0.0,0.0,0.0,0.0,0.0,0.0,0.0,0.0,0.0,0.0,0.0,0.0,0.0,0.0,0.0,0.0,0.0,0.0,0.0,0.0,0.0,0.0,0.0,0.0,0.0,0.0,0.0,0.0,0.0,0.0,0.0,0.0,0.0,0.0,0.0,0.0,0.0,0.0,0.0,0.0,0.0,0.0,0.0,0.0,0.0,0.0,0.0,0.0,0.0,0.0,0.0,0.0,0.0,0.0,0.0,0.0,0.0,0.0,0.0,0.0,0.0,0.0,0.0,0.0,0.0,0.0,0.0,0.0,0.0,0.0,0.0,0.0,0.0,0.0,0.0,0.0,0.0,0.0,0.0,0.0,0.0,0.0,0.0,0.0,0.0,0.0,0.0,0.0,0.0,0.0,0.0,0.0,0.0,0.0,0.0,0.0,0.0,0.0,0.0,0.0,0.0,0.0,0.0,0.0,0.0,0.0,0.0,0.0,0.0,0.0,0.0,0.0,0.0,0.0,0.0,0.0,0.0,0.0,0.0,0.0,0.0,0.0,0.0,0.0,0.0,0.0,0.0,0.0,0.0,0.0,0.0,0.0,0.0,0.0,0.0,0.0,0.0,0.0,0.0,0.0,0.0,0.0,0.0,0.0,0.0,0.0,0.0,0.0,0.0,0.0,0.0,0.0,0.0,0.0,0.0,0.0,0.0,0.0,0.0,0.0,0.0,0.0,0.0,0.0,0.0,0.0,0.0,0.0,0.0,0.0,0.0,0.0,0.0,0.0,0.0,0.0,0.0,0.0,0.0,0.0,0.0,0.0,0.0,0.0,0.0,0.0,0.0,0.0,0.0,0.0,0.0,0.0,0.0,0.0,0.0,0.0,0.0,0.0,0.0,0.0,0.0,0.0,0.0,0.0,0.0,0.0,0.0,0.0,0.0,0.0,0.0,0.0,0.0,0.0,0.0,0.0,0.0,0.0,0.0,0.0,0.0,0.0,0.0,0.0,0.0,0.0,0.0,0.0,0.0,0.0,0.0,0.0,0.0,0.0,0.0,0.0,0.0,0.0,0.0,0.0,0.0,0.0,0.0,0.0,0.0,0.0,0.0,0.0,0.0,0.0,0.0,0.0,0.0,0.0,0.0,0.0,0.0,0.0,0.0,0.0,0.0,0.0,0.0,0.0,0.0,0.0,0.0,0.0,0.0,0.0,0.0,0.0,0.0,0.0,0.0,0.0,0.0,0.0,0.0,0.0,0.0,0.0,0.0,0.0,0.0,0.0,0.0,0.0,0.0,0.0,0.0,0.0,0.0,0.0,0.0,0.0,0.0,0.0,0.0,0.0,0.0,0.0,0.0,0.0,0.0,0.0,0.0,0.0,0.0,0.0,0.0,0.0,0.0,0.0,0.0,0.0,0.0,0.0,0.0,0.0,0.0,0.0,0.0,0.0,0.0,0.0,0.0,0.0,0.0,0.0,0.0,0.0,0.0,0.0,0.0,0.0,0.0,0.0,0.0,0.0,0.0,0.0,0.0,0.0,0.0,0.0,0.0,0.0,0.0,0.0,0.0,0.0,0.0,0.0,0.0,0.0,0.0,0.0,0.0,0.0,0.0,0.0,0.0,0.0,0.0,0.0,0.0,0.0,0.0,0.0,0.0,0.0,0.0,0.0,0.0,0.0,0.0,0.0,0.0,0.0,0.0,0.0,0.0,0.0,0.0,0.0,0.0,0.0,0.0,0.0,0.0,0.0,0.0,0.0,0.0,0.0,0.0,0.0,0.0,0.0,0.0,0.0,0.0,0.0,0.0,0.0,0.0,0.0,0.0,0.0,0.0,0.0,0.0,0.0,0.0,0.0,0.0,0.0,0.0,0.0,0.0,0.0,0.0,0.0,0.0,0.0,0.0,0.0,0.0,0.0,0.0,0.0,0.0,0.0,0.0,0.0,0.0,0.0,0.0,0.0,0.0,0.0,0.0,0.0,0.0,0.0,0.0,0.0,0.0,0.0,0.0,0.0,0.0,0.0,0.0,0.0,0.0,0.0,0.0,0.0,0.0,0.0,0.0,0.0,0.0,0.0,0.0,0.0,0.0,0.0,0.0,0.0,0.0,0.0,0.0,0.0,0.0,0.0,0.0,0.0,0.0,0.0,0.0,0.0,0.0,0.0,0.0,0.0,0.0,0.0,0.0,0.0,0.0,0.0,0.0,0.0,0.0,0.0,0.0,0.0,0.0,0.0,0.0,0.0,0.0,0.0,0.0,0.0,0.0,0.0,0.0,0.0,0.0,0.0,0.0,0.0,0.0,0.0,0.0,0.0,0.0,0.0,0.0,0.0,0.0,0.0,0.0,0.0,0.0,0.0,0.0,0.0,0.0,0.0,0.0,0.0,0.0,0.0,0.0,0.0,0.0,0.0,0.0,0.0,0.0,0.0,0.0,0.0,0.0,0.0,0.0,0.0,0.0,0.0,0.0,0.0,0.0,0.0,0.0,0.0,0.0,0.0,0.0,0.0,0.0,0.0,0.0,0.0,0.0,0.0,0.0,0.0,0.0,0.0,0.0,0.0,0.0,0.0,0.0,0.0,0.0,0.0,0.0,0.0,0.0,0.0,0.0,0.0,0.0,0.0,0.0,0.0,0.0,0.0,0.0,0.0,0.0,0.0,0.0,0.0,0.0,0.0,0.0,0.0,0.0,0.0,0.0,0.0,0.0,0.0,0.0,0.0,0.0,0.0,0.0,0.0,0.0,0.0,0.0,0.0,0.0,0.0,0.0,0.0,0.0,0.0,0.0,0.0,0.0,0.0,0.0,0.0,0.0,0.0,0.0,0.0,0.0,0.0,0.0,0.0,0.0,0.0,0.0,0.0,0.0,0.0,0.0,0.0,0.0,0.0,0.0,0.0,0.0,0.0,0.0,0.0,0.0,0.0,0.0,0.0,0.0,0.0,0.0,0.0,0.0,0.0,0.0,0.0,0.0,0.0,0.0,0.0,0.0,0.0,0.0,0.0,0.0,2.5463,0.0,0.0,0.0,0.0,0.0,0.0,0.0,0.0,0.0,0.0,0.0,0.0,0.0,0.0,0.0,0.0,0.0,0.0,0.0,0.0,0.0,0.0,0.0,0.0,0.0,0.0,0.0,0.0,0.0,0.0,0.0,0.0,0.0,0.0,0.0,0.0,0.0,0.0,0.0,0.0,0.0,0.0,0.0,0.0,0.0,0.0,0.0,0.0,0.0,0.0,0.0,0.0,0.0,0.0,0.0,0.0,0.0,0.0,0.0,0.0,0.0,0.0,0.0,0.0,0.0,0.0,0.0,0.0,0.0,0.0,0.0,0.0,0.0,0.0,0.0,0.0,0.0,0.0,0.0,0.0,0.0,0.0,0.0,0.0,0.0,0.0,0.0,0.0,0.0,0.0,0.0,0.0,0.0,0.0,0.0,0.0,0.0,0.0,0.0,0.0,0.0,0.0,0.0,0.0,0.0,0.0,0.0,0.0,0.0,0.0,2.5501,2.5229,2.6469,2.66,2.5455,0.0,0.0,0.0,0.0,0.0,0.0,0.0,0.0,0.0,0.0,0.0,0.0,0.0,0.0,0.0,0.0,0.0,0.0,0.0,0.0,0.0,0.0,0.0,0.0,0.0,0.0,0.0,0.0,0.0,0.0,0.0,0.0,0.0,0.0,0.0,0.0,0.0,0.0,0.0,0.0,0.0,0.0,0.0,0.0,0.0,0.0,0.0,0.0,0.0,0.0,0.0,0.0,0.0,0.0,0.0,0.0,0.0,0.0,0.0,0.0,0.0,0.0,0.0,0.0,0.0,0.0,0.0,0.0,0.0,0.0,0.0,0.0,0.0,0.0,0.0,0.0,0.0,0.0,0.0,0.0,0.0,0.0,0.0,0.0,0.0,0.0,0.0,0.0,0.0,0.0,0.0,0.0,0.0,0.0,0.0,0.0,0.0,0.0,0.0,0.0,0.0,0.0,0.0,0.0,0.0,0.0,0.0,0.0,0.0,0.0,0.0,0.0,2.6806,2.6875,2.5756,0.0,0.0,0.0,0.0,0.0,0.0,0.0,0.0,0.0,0.0,0.0,0.0,0.0,0.0,0.0,0.0,0.0,0.0,0.0,0.0,0.0,0.0,0.0,0.0,0.0,0.0,0.0,0.0,0.0,0.0,0.0,0.0,0.0,0.0,0.0,0.0,0.0,0.0,0.0,0.0,0.0,0.0,0.0,0.0,0.0,0.0,0.0,0.0,0.0,0.0,0.0,0.0,0.0,0.0,0.0,0.0,0.0,0.0,0.0,0.0,0.0,0.0,0.0,0.0,0.0,0.0,0.0,0.0,0.0,0.0,0.0,0.0,0.0,0.0,0.0,0.0,0.0,0.0,0.0,0.0,0.0,0.0,0.0,0.0,0.0,0.0,0.0,0.0,0.0,0.0,0.0,0.0,0.0,0.0,0.0,0.0,0.0,0.0,0.0,0.0,0.0,0.0,0.0,0.0,0.0,0.0,0.0,0.0,0.0,0.0,2.5613,2.7229,2.6778,0.0,2.6457,0.0,0.0,0.0,0.0,0.0,0.0,0.0,0.0,0.0,0.0,0.0,0.0,0.0,0.0,0.0,0.0,0.0,0.0,0.0,0.0,0.0,0.0,0.0,0.0,0.0,0.0,0.0,0.0,0.0,0.0,0.0,0.0,0.0,0.0,0.0,0.0,0.0,0.0,0.0,0.0,0.0,0.0,0.0,0.0,0.0,0.0,0.0,0.0,0.0,0.0,0.0,0.0,0.0,0.0,0.0,0.0,0.0,0.0,0.0,0.0,0.0,0.0,0.0,0.0,0.0,0.0,0.0,0.0,0.0,0.0,0.0,0.0,0.0,0.0,0.0,0.0,0.0,0.0,0.0,0.0,0.0,0.0,0.0,0.0,0.0,0.0,0.0,0.0,0.0,0.0,0.0,0.0,0.0,0.0,0.0,0.0,0.0,0.0,0.0,0.0,0.0,0.0,0.0,0.0,0.0,0.0,0.0,0.0,0.0,0.0,2.5086,2.5819,2.5774,2.5782,0.0,0.0,0.0,0.0,0.0,0.0,0.0,0.0,0.0,0.0,0.0,0.0,0.0,0.0,0.0,0.0,0.0,0.0,0.0,0.0,0.0,0.0,0.0,0.0,0.0,0.0,0.0,0.0,0.0,0.0,0.0,0.0,0.0,0.0,0.0,0.0,0.0,0.0,0.0,0.0,0.0,0.0,0.0,0.0,0.0,0.0,0.0,0.0,0.0,0.0,0.0,0.0,0.0,0.0,0.0,0.0,0.0,0.0,0.0,0.0,0.0,0.0,0.0,0.0,0.0,0.0,0.0,0.0,0.0,0.0,0.0,0.0,0.0,0.0,0.0,0.0,0.0,0.0,0.0,0.0,0.0,0.0,0.0,0.0,0.0,0.0,0.0,0.0,0.0,0.0,0.0,0.0,0.0,0.0,0.0,0.0,0.0,0.0,0.0,0.0,0.0,0.0,0.0,0.0,0.0,0.0,0.0,0.0,0.0,0.0,2.4916,2.5127,2.5431,2.533,2.5399,2.5648,0.0,0.0,0.0,0.0,0.0,0.0,0.0,0.0,0.0,0.0,0.0,0.0,0.0,0.0,0.0,0.0,0.0,0.0,0.0,0.0,0.0,0.0,0.0,0.0,0.0,0.0,0.0,0.0,0.0,0.0,0.0,0.0,0.0,0.0,0.0,0.0,0.0,0.0,0.0,0.0,0.0,0.0,0.0,0.0,0.0,0.0,0.0,0.0,0.0,0.0,0.0,0.0,0.0,0.0,0.0,0.0,0.0,0.0,0.0,0.0,0.0,0.0,0.0,0.0,0.0,0.0,0.0,0.0,0.0,0.0,0.0,0.0,0.0,0.0,0.0,0.0,0.0,0.0,0.0,0.0,0.0,0.0,0.0,0.0,0.0,0.0,0.0,0.0,0.0,0.0,0.0,0.0,0.0,0.0,0.0,0.0,0.0,0.0,0.0,0.0,0.0,0.0,0.0,0.0,0.0,0.0,0.0,0.0,2.8727,2.6795,2.6145,2.7114,2.5932,2.5618,0.0,0.0,0.0,0.0,0.0,0.0,0.0,0.0,0.0,0.0,0.0,0.0,0.0,0.0,0.0,0.0,0.0,0.0,0.0,0.0,0.0,0.0,0.0,0.0,0.0,0.0,0.0,0.0,0.0,0.0,0.0,0.0,0.0,0.0,0.0,0.0,0.0,0.0,0.0,0.0,0.0,0.0,0.0,0.0,0.0,0.0,0.0,0.0,0.0,0.0,0.0,0.0,0.0,0.0,0.0,0.0,0.0,0.0,0.0,0.0,0.0,0.0,0.0,0.0,0.0,0.0,0.0,0.0,0.0,0.0,0.0,0.0,0.0,0.0,0.0,0.0,0.0,0.0,0.0,0.0,0.0,0.0,0.0,0.0,0.0,0.0,0.0,0.0,0.0,0.0,0.0,0.0,0.0,0.0,0.0,0.0,0.0,0.0,0.0,0.0,0.0,0.0,0.0,0.0,0.0,0.0,0.0,0.0,0.0,2.5624,2.5114,2.5099,2.5687,2.5307,2.5256,0.0,0.0,0.0,0.0,0.0,0.0,0.0,0.0,0.0,0.0,0.0,0.0,0.0,0.0,0.0,0.0,0.0,0.0,0.0,0.0,0.0,0.0,0.0,0.0,0.0,0.0,0.0,0.0,0.0,0.0,0.0,0.0,0.0,0.0,0.0,0.0,0.0,0.0,0.0,0.0,0.0,0.0,0.0,0.0,0.0,0.0,0.0,0.0,0.0,0.0,0.0,0.0,0.0,0.0,0.0,0.0,0.0,0.0,0.0,0.0,0.0,0.0,0.0,0.0,0.0,0.0,0.0,0.0,0.0,0.0,0.0,0.0,0.0,0.0,0.0,0.0,0.0,0.0,0.0,0.0,0.0,0.0,0.0,0.0,0.0,0.0,0.0,0.0,0.0,0.0,0.0,0.0,0.0,0.0,0.0,0.0,0.0,0.0,0.0,0.0,0.0,0.0,0.0,0.0,0.0,0.0,0.0,0.0,0.0,2.4657,0.0,2.5574,2.558,2.5479,2.5339,0.0,0.0,0.0,0.0,0.0,0.0,0.0,0.0,0.0,0.0,0.0,0.0,0.0,0.0,0.0,0.0,0.0,0.0,0.0,0.0,0.0,0.0,0.0,0.0,0.0,0.0,0.0,0.0,0.0,0.0,0.0,0.0,0.0,0.0,0.0,0.0,0.0,0.0,0.0,0.0,0.0,0.0,0.0,0.0,0.0,0.0,0.0,0.0,0.0,0.0,0.0,0.0,0.0,0.0,0.0,0.0,0.0,0.0,0.0,0.0,0.0,0.0,0.0,0.0,0.0,0.0,0.0,0.0,0.0,0.0,0.0,0.0,0.0,0.0,0.0,0.0,0.0,0.0,0.0,0.0,0.0,0.0,0.0,0.0,0.0,0.0,0.0,0.0,0.0,0.0,0.0,0.0,0.0,0.0,0.0,0.0,0.0,0.0,0.0,0.0,0.0,0.0,0.0,0.0,0.0,0.0,0.0,0.0,2.4657,2.6569,2.7567,2.7707,2.7285,2.6593,2.5933,0.0,0.0,0.0,0.0,0.0,0.0,0.0,0.0,0.0,0.0,0.0,0.0,0.0,0.0,0.0,0.0,0.0,0.0,0.0,0.0,0.0,0.0,0.0,0.0,0.0,0.0,0.0,0.0,0.0,0.0,0.0,0.0,0.0,0.0,0.0,0.0,0.0,0.0,0.0,0.0,0.0,0.0,0.0,0.0,0.0,0.0,0.0,0.0,0.0,0.0,0.0,0.0,0.0,0.0,0.0,0.0,0.0,0.0,0.0,0.0,0.0,0.0,0.0,0.0,0.0,0.0,0.0,0.0,0.0,0.0,0.0,0.0,0.0,0.0,0.0,0.0,0.0,0.0,0.0,0.0,0.0,0.0,0.0,0.0,0.0,0.0,0.0,0.0,0.0,0.0,0.0,0.0,0.0,0.0,0.0,0.0,0.0,0.0,0.0,0.0,0.0,0.0,0.0,0.0,0.0,0.0,0.0,0.0,0.0,2.5733,2.6668,2.7205,2.7269,2.6567,2.6076,0.0,0.0,0.0,0.0,0.0,0.0,0.0,0.0,0.0,0.0,0.0,0.0,0.0,0.0,0.0,0.0,0.0,0.0,0.0,0.0,0.0,0.0,0.0,0.0,0.0,0.0,0.0,0.0,0.0,0.0,0.0,0.0,0.0,0.0,0.0,0.0,0.0,0.0,0.0,0.0,0.0,0.0,0.0,0.0,0.0,0.0,0.0,0.0,0.0,0.0,0.0,0.0,0.0,0.0,0.0,0.0,0.0,0.0,0.0,0.0,0.0,0.0,0.0,0.0,0.0,0.0,0.0,0.0,0.0,0.0,0.0,0.0,0.0,0.0,0.0,0.0,0.0,0.0,0.0,0.0,0.0,0.0,0.0,0.0,0.0,0.0,0.0,0.0,0.0,0.0,0.0,0.0,0.0,0.0,0.0,0.0,0.0,0.0,0.0,0.0,0.0,0.0,0.0,0.0,0.0,0.0,0.0,0.0,0.0,2.6229,2.6881,2.7401,2.7766,2.7031,2.6536,2.6314,0.0,0.0,0.0,0.0,0.0,0.0,0.0,0.0,0.0,0.0,0.0,0.0,0.0,0.0,0.0,0.0,0.0,0.0,0.0,0.0,0.0,0.0,0.0,0.0,0.0,0.0,0.0,0.0,0.0,0.0,0.0,0.0,0.0,0.0,0.0,0.0,0.0,0.0,0.0,0.0,0.0,0.0,0.0,0.0,0.0,0.0,0.0,0.0,0.0,0.0,0.0,0.0,0.0,0.0,0.0,0.0,0.0,0.0,0.0,0.0,0.0,0.0,0.0,0.0,0.0,0.0,0.0,0.0,0.0,0.0,0.0,0.0,0.0,0.0,0.0,0.0,0.0,0.0,0.0,0.0,0.0,0.0,0.0,0.0,0.0,0.0,0.0,0.0,0.0,0.0,0.0,0.0,0.0,0.0,0.0,0.0,0.0,0.0,0.0,0.0,0.0,0.0,0.0,0.0,0.0,0.0,0.0,0.0,2.7788,2.7999,2.8288,2.864,2.7907,2.721,0.0,0.0,0.0,0.0,0.0,0.0,0.0,0.0,0.0,0.0,0.0,0.0,0.0,0.0,0.0,0.0,0.0,0.0,0.0,0.0,0.0,0.0,0.0,0.0,0.0,0.0,0.0,0.0,0.0,0.0,0.0,0.0,0.0,0.0,0.0,0.0,0.0,0.0,0.0,0.0,0.0,0.0,0.0,0.0,0.0,0.0,0.0,0.0,0.0,0.0,0.0,0.0,0.0,0.0,0.0,0.0,0.0,0.0,0.0,0.0,0.0,0.0,0.0,0.0,0.0,0.0,0.0,0.0,0.0,0.0,0.0,0.0,0.0,0.0,0.0,0.0,0.0,0.0,0.0,0.0,0.0,0.0,0.0,0.0,0.0,0.0,0.0,0.0,0.0,0.0,0.0,0.0,0.0,0.0,0.0,0.0,0.0,0.0,0.0,0.0,0.0,0.0,0.0,0.0,0.0,0.0,0.0,0.0,0.0,2.7613,2.7929,2.8512,2.9481,2.8284,2.7483,0.0,0.0,0.0,0.0,0.0,0.0,0.0,0.0,0.0,0.0,0.0,0.0,0.0,0.0,0.0,0.0,0.0,0.0,0.0,0.0,0.0,0.0,0.0,0.0,0.0,0.0,0.0,0.0,0.0,0.0,0.0,0.0,0.0,0.0,0.0,0.0,0.0,0.0,0.0,0.0,0.0,0.0,0.0,0.0,0.0,0.0,0.0,0.0,0.0,0.0,0.0,0.0,0.0,0.0,0.0,0.0,0.0,0.0,0.0,0.0,0.0,0.0,0.0,0.0,0.0,0.0,0.0,0.0,0.0,0.0,0.0,0.0,0.0,0.0,0.0,0.0,0.0,0.0,0.0,0.0,0.0,0.0,0.0,0.0,0.0,0.0,0.0,0.0,0.0,0.0,0.0,0.0,0.0,0.0,0.0,0.0,0.0,0.0,0.0,0.0,0.0,0.0,0.0,0.0,0.0,0.0,0.0,0.0,2.5857,2.8184,2.8507,2.8905,2.9421,2.8265,2.7657,0.0,0.0,0.0,0.0,0.0,0.0,0.0,0.0,0.0,0.0,0.0,0.0,0.0,0.0,0.0,0.0,0.0,0.0,0.0,0.0,0.0,0.0,0.0,0.0,0.0,0.0,0.0,0.0,0.0,0.0,0.0,0.0,0.0,0.0,0.0,0.0,0.0,0.0,0.0,0.0,0.0,0.0,0.0,0.0,0.0,0.0,0.0,0.0,0.0,0.0,0.0,0.0,0.0,0.0,0.0,0.0,0.0,0.0,0.0,0.0,0.0,0.0,0.0,0.0,0.0,0.0,0.0,0.0,0.0,0.0,0.0,0.0,0.0,0.0,0.0,0.0,0.0,0.0,0.0,0.0,0.0,0.0,0.0,0.0,0.0,0.0,0.0,0.0,0.0,0.0,0.0,0.0,0.0,0.0,0.0,0.0,0.0,0.0,0.0,0.0,0.0,0.0,0.0,0.0,0.0,0.0,0.0,0.0,2.6534,2.8813,2.9247,2.925,2.8817,2.8089,2.772,0.0,0.0,0.0,0.0,0.0,0.0,0.0,0.0,0.0,0.0,0.0,0.0,0.0,0.0,0.0,0.0,0.0,0.0,0.0,0.0,0.0,0.0,0.0,0.0,0.0,0.0,0.0,0.0,0.0,0.0,0.0,0.0,0.0,0.0,0.0,0.0,0.0,0.0,0.0,0.0,0.0,0.0,0.0,0.0,0.0,0.0,0.0,0.0,0.0,0.0,0.0,0.0,0.0,0.0,0.0,0.0,0.0,0.0,0.0,0.0,0.0,0.0,0.0,0.0,0.0,0.0,0.0,0.0,0.0,0.0,0.0,0.0,0.0,0.0,0.0,0.0,0.0,0.0,0.0,0.0,0.0,0.0,0.0,0.0,0.0,0.0,0.0,0.0,0.0,0.0,0.0,0.0,0.0,0.0,0.0,0.0,0.0,0.0,0.0,0.0,0.0,0.0,0.0,0.0,0.0,0.0,0.0,0.0,2.5984,2.792,2.8811,2.9148,2.8874,2.8118,2.7432,0.0,0.0,0.0,0.0,0.0,0.0,0.0,0.0,0.0,0.0,0.0,0.0,0.0,0.0,0.0,0.0,0.0,0.0,0.0,0.0,0.0,0.0,0.0,0.0,0.0,0.0,0.0,0.0,0.0,0.0,0.0,0.0,0.0,0.0,0.0,0.0,0.0,0.0,0.0,0.0,0.0,0.0,0.0,0.0,0.0,0.0,0.0,0.0,2.6567,0.0,0.0,0.0,0.0,0.0,0.0,0.0,0.0,0.0,0.0,0.0,0.0,0.0,0.0,0.0,0.0,0.0,0.0,0.0,0.0,0.0,0.0,0.0,0.0,0.0,0.0,0.0,0.0,0.0,0.0,0.0,0.0,0.0,0.0,0.0,0.0,0.0,0.0,0.0,0.0,0.0,0.0,0.0,0.0,0.0,0.0,0.0,0.0,0.0,0.0,0.0,0.0,0.0,0.0,0.0,0.0,0.0,0.0,0.0,2.5809,2.7659,2.8682,2.8914,2.83,2.7932,2.742,0.0,0.0,0.0,0.0,0.0,0.0,0.0,0.0,0.0,0.0,0.0,0.0,0.0,0.0,0.0,0.0,0.0,0.0,0.0,0.0,0.0,0.0,0.0,0.0,0.0,0.0,0.0,0.0,0.0,0.0,0.0,0.0,0.0,0.0,0.0,0.0,0.0,0.0,0.0,0.0,0.0,0.0,0.0,0.0,0.0,0.0,0.0,0.0,0.0,0.0,0.0,0.0,0.0,0.0,0.0,0.0,0.0,0.0,0.0,0.0,0.0,0.0,0.0,0.0,0.0,0.0,0.0,0.0,0.0,0.0,0.0,0.0,0.0,0.0,0.0,0.0,0.0,0.0,0.0,0.0,0.0,0.0,0.0,0.0,0.0,0.0,0.0,0.0,0.0,0.0,0.0,0.0,0.0,0.0,0.0,0.0,0.0,0.0,0.0,0.0,0.0,0.0,0.0,0.0,0.0,0.0,0.0,2.4238,2.5773,2.7495,2.8513,2.8586,2.766,2.7624,2.7325,2.6732,0.0,0.0,0.0,0.0,0.0,0.0,0.0,0.0,0.0,0.0,0.0,0.0,0.0,0.0,0.0,0.0,0.0,0.0,0.0,0.0,0.0,0.0,0.0,0.0,0.0,0.0,0.0,0.0,0.0,0.0,0.0,0.0,0.0,0.0,0.0,0.0,0.0,0.0,2.542,2.5699,0.0,0.0,0.0,0.0,0.0,0.0,0.0,0.0,2.693,0.0,0.0,0.0,0.0,0.0,0.0,0.0,0.0,0.0,0.0,0.0,0.0,0.0,0.0,0.0,0.0,0.0,0.0,0.0,0.0,0.0,0.0,0.0,0.0,0.0,0.0,0.0,0.0,0.0,0.0,0.0,0.0,0.0,0.0,0.0,0.0,0.0,0.0,0.0,0.0,0.0,0.0,0.0,0.0,0.0,0.0,0.0,0.0,0.0,0.0,0.0,0.0,0.0,0.0,0.0,0.0,2.2107,2.405,2.5612,2.6746,2.7764,2.8092,2.7687,2.7103,2.6513,2.5936,0.0,0.0,0.0,0.0,0.0,0.0,0.0,0.0,0.0,0.0,0.0,0.0,0.0,0.0,0.0,0.0,0.0,0.0,0.0,0.0,0.0,0.0,0.0,0.0,0.0,0.0,0.0,0.0,0.0,0.0,0.0,0.0,0.0,0.0,0.0,0.0,0.0,0.0,0.0,2.6787,2.7232,0.0,0.0,0.0,0.0,0.0,0.0,0.0,0.0,2.7009,0.0,0.0,0.0,0.0,0.0,0.0,0.0,0.0,0.0,0.0,0.0,0.0,0.0,0.0,0.0,0.0,0.0,0.0,0.0,0.0,0.0,0.0,0.0,0.0,0.0,0.0,0.0,0.0,0.0,0.0,0.0,0.0,0.0,0.0,0.0,0.0,0.0,0.0,0.0,0.0,0.0,0.0,0.0,0.0,0.0,0.0,0.0,0.0,0.0,0.0,0.0,0.0,0.0,0.0,0.0,2.1816,2.3624,2.5045,2.5969,2.7028,2.7412,2.7078,2.6799,2.6328,0.0,0.0,0.0,0.0,0.0,0.0,0.0,0.0,0.0,0.0,0.0,0.0,0.0,0.0,0.0,0.0,0.0,0.0,0.0,0.0,0.0,0.0,0.0,0.0,0.0,0.0,0.0,0.0,0.0,0.0,0.0,0.0,0.0,0.0,0.0,0.0,0.0,0.0,0.0,0.0,2.6708,2.7181,2.6287,0.0,0.0,0.0,0.0,0.0,0.0,2.6853,2.6708,0.0,0.0,0.0,0.0,0.0,0.0,0.0,0.0,0.0,0.0,0.0,0.0,0.0,0.0,0.0,0.0,0.0,0.0,0.0,0.0,0.0,0.0,0.0,0.0,0.0,0.0,0.0,0.0,0.0,0.0,0.0,0.0,0.0,0.0,0.0,0.0,0.0,0.0,0.0,0.0,0.0,0.0,0.0,0.0,0.0,0.0,0.0,0.0,0.0,0.0,0.0,0.0,0.0,0.0,0.0,2.1674,2.317,2.442,2.5438,2.6367,2.6759,2.6524,2.6492,2.6195,0.0,0.0,0.0,0.0,0.0,0.0,0.0,0.0,0.0,0.0,0.0,0.0,0.0,0.0,0.0,0.0,0.0,0.0,0.0,0.0,0.0,0.0,0.0,0.0,0.0,0.0,0.0,0.0,0.0,0.0,0.0,0.0,0.0,0.0,0.0,0.0,0.0,0.0,0.0,0.0,0.0,2.7331,2.7026,2.7047,0.0,0.0,0.0,0.0,2.6386,2.6228,0.0,0.0,0.0,0.0,0.0,0.0,0.0,0.0,0.0,0.0,0.0,0.0,0.0,0.0,0.0,0.0,0.0,0.0,0.0,0.0,0.0,0.0,0.0,0.0,0.0,0.0,0.0,0.0,0.0,0.0,0.0,0.0,0.0,0.0,0.0,0.0,0.0,0.0,0.0,0.0,0.0,0.0,0.0,0.0,0.0,0.0,0.0,0.0,0.0,0.0,0.0,0.0,0.0,0.0,0.0,0.0,2.1777,2.284,2.4107,2.5514,2.5871,2.6205,2.6571,2.597,2.5618,0.0,0.0,0.0,0.0,0.0,0.0,0.0,0.0,0.0,0.0,0.0,0.0,0.0,0.0,0.0,0.0,0.0,0.0,0.0,0.0,0.0,0.0,0.0,0.0,0.0,0.0,0.0,0.0,0.0,0.0,0.0,0.0,0.0,0.0,0.0,0.0,0.0,0.0,0.0,0.0,0.0,2.8899,2.8051,2.8003,2.7997,0.0,0.0,2.6228,2.6597,2.5523,0.0,0.0,0.0,0.0,0.0,0.0,0.0,0.0,0.0,0.0,0.0,0.0,0.0,0.0,0.0,0.0,0.0,0.0,0.0,0.0,0.0,0.0,0.0,0.0,0.0,0.0,0.0,0.0,0.0,0.0,0.0,0.0,0.0,0.0,0.0,0.0,0.0,0.0,0.0,0.0,0.0,0.0,0.0,0.0,0.0,0.0,0.0,0.0,0.0,0.0,0.0,0.0,0.0,0.0,0.0,2.1291,2.2101,2.3,2.3973,2.4953,2.5319,2.5631,2.5899,2.5679,2.5546,0.0,0.0,0.0,0.0,0.0,0.0,0.0,0.0,0.0,0.0,0.0,0.0,0.0,0.0,0.0,0.0,0.0,0.0,0.0,0.0,0.0,0.0,0.0,0.0,0.0,0.0,0.0,0.0,0.0,0.0,0.0,0.0,0.0,0.0,0.0,0.0,0.0,0.0,0.0,0.0,0.0,0.0,2.7437,2.7773,0.0,0.0,0.0,2.5146,2.4125,0.0,0.0,0.0,0.0,0.0,0.0,0.0,0.0,0.0,0.0,0.0,0.0,0.0,0.0,0.0,0.0,0.0,0.0,0.0,0.0,0.0,0.0,0.0,0.0,0.0,0.0,0.0,0.0,0.0,0.0,0.0,0.0,0.0,0.0,0.0,0.0,0.0,0.0,0.0,0.0,0.0,0.0,0.0,0.0,0.0,0.0,0.0,0.0,0.0,0.0,0.0,0.0,0.0,0.0,0.0,0.0,0.0,2.2318,2.3274,2.3987,2.45,2.4917,2.5226,2.5418,2.5537,0.0,0.0,0.0,0.0,0.0,0.0,0.0,0.0,0.0,0.0,0.0,0.0,0.0,0.0,0.0,0.0,0.0,0.0,0.0,0.0,0.0,0.0,0.0,0.0,0.0,0.0,0.0,1.9733,0.0,0.0,0.0,0.0,0.0,0.0,0.0,0.0,0.0,0.0,0.0,0.0,0.0,0.0,2.8011,2.7405,2.7576,2.7445,0.0,0.0,2.317,2.1529,2.0437,1.9202,0.0,0.0,0.0,0.0,0.0,0.0,0.0,0.0,0.0,0.0,0.0,0.0,0.0,0.0,0.0,0.0,0.0,0.0,0.0,0.0,0.0,0.0,0.0,0.0,0.0,0.0,0.0,0.0,0.0,0.0,0.0,0.0,0.0,0.0,0.0,0.0,0.0,0.0,0.0,0.0,0.0,0.0,0.0,0.0,0.0,0.0,0.0,0.0,0.0,0.0,0.0,0.0,0.0,0.0,2.146,2.2399,2.3556,2.4253,2.4491,2.4838,2.5168,2.5493,2.5566,2.5522,0.0,0.0,0.0,0.0,0.0,0.0,0.0,0.0,0.0,0.0,0.0,0.0,0.0,0.0,0.0,0.0,0.0,0.0,0.0,0.0,0.0,0.0,0.0,0.0,0.0,0.0,0.0,0.0,0.0,0.0,0.0,0.0,0.0,0.0,0.0,0.0,0.0,0.0,0.0,0.0,0.0,2.8267,2.8935,2.7752,2.6709,0.0,2.2847,1.9925,1.9618,1.7115,1.4958,1.4112,0.0,0.0,0.0,0.0,0.0,0.0,0.0,0.0,0.0,0.0,0.0,0.0,0.0,0.0,0.0,0.0,0.0,0.0,0.0,0.0,0.0,0.0,0.0,0.0,0.0,0.0,0.0,0.0,0.0,0.0,0.0,0.0,0.0,0.0,0.0,0.0,0.0,0.0,0.0,0.0,0.0,0.0,0.0,0.0,0.0,0.0,0.0,0.0,0.0,0.0,0.0,0.0,0.0,2.1486,2.2635,2.3386,2.4012,2.4507,2.4903,2.5241,2.5504,2.5517,2.5219,0.0,0.0,0.0,0.0,0.0,0.0,0.0,0.0,0.0,0.0,0.0,0.0,0.0,0.0,0.0,0.0,0.0,0.0,0.0,0.0,0.0,0.0,0.0,0.0,0.0,0.0,0.0,0.0,1.4778,1.529,1.4608,0.0,0.0,0.0,0.0,0.0,0.0,0.0,0.0,0.0,0.0,2.4831,2.6274,2.5364,0.0,0.0,1.8506,1.5798,1.3326,1.2162,1.1147,1.0031,1.1057,0.0,0.0,0.0,0.0,0.0,0.0,0.0,0.0,0.0,0.0,0.0,0.0,0.0,0.0,0.0,0.0,0.0,0.0,0.0,0.0,0.0,0.0,0.0,0.0,0.0,0.0,0.0,0.0,0.0,0.0,0.0,0.0,0.0,0.0,0.0,0.0,0.0,0.0,0.0,0.0,0.0,0.0,0.0,0.0,0.0,0.0,0.0,0.0,0.0,0.0,0.0,0.0,2.1511,2.2712,2.3362,2.3961,2.4504,2.4948,2.526,2.549,2.5516,2.5128,0.0,0.0,0.0,0.0,0.0,0.0,0.0,0.0,0.0,0.0,0.0,0.0,0.0,0.0,0.0,0.0,0.0,0.0,0.0,0.0,0.0,0.0,0.0,0.0,0.0,0.0,0.0,0.0,1.0313,1.1707,1.1446,0.0,0.0,0.0,0.0,0.0,0.0,0.0,0.0,0.0,0.0,1.9485,2.0652,2.0469,1.9417,1.7259,1.3506,1.0254,0.8485,0.7618,0.687,0.5957,0.0,0.0,0.0,0.0,0.0,0.0,0.0,0.0,0.0,0.0,0.0,0.0,0.0,0.0,0.0,0.0,0.0,0.0,0.0,0.0,0.0,0.0,0.0,0.0,0.0,0.0,0.0,0.0,0.0,0.0,0.4722,0.0,0.0,0.0,0.0,0.0,0.0,0.0,0.0,0.0,0.0,0.0,0.0,0.0,0.0,0.0,0.0,0.0,0.0,0.0,0.0,0.0,0.0,2.1535,2.2582,2.3623,2.4301,2.4573,2.4925,2.5192,2.5437,2.5488,2.5357,2.5039,0.0,0.0,0.0,0.0,0.0,0.0,0.0,0.0,0.0,0.0,0.0,0.0,0.0,0.0,0.0,0.0,0.0,0.0,0.0,0.0,0.0,0.0,0.0,0.0,0.0,0.0,0.1713,0.3632,0.5783,0.0,0.0,0.0,0.0,0.0,0.0,0.0,0.0,0.0,0.0422,0.7259,1.2178,1.1841,1.2652,1.3687,1.5236,0.792,0.3082,0.5793,0.3837,0.1914,0.0,0.0,0.0,0.0,0.0,0.0,0.0,0.0,0.0,0.0,0.0,0.0,0.0,0.0,0.0,0.0,0.0,0.0,0.0,0.0,0.0,0.0,0.0,0.0,0.0,0.0,0.0,-0.4842,-0.3228,0.0,0.0,0.0,0.0,0.0,0.0,0.0,0.0,0.0,0.0,0.0,0.5321,0.645,0.0,0.0,0.0,0.0,0.0,0.0,0.0,0.0,0.0,0.0,0.0,0.0,2.1628,2.2539,2.3484,2.3935,2.3817,2.4103,2.4098,2.3844,2.436,2.4534,2.4316,0.0,0.0,0.0,0.0,0.0,0.0,0.0,0.0,0.0,0.0,0.0,0.0,0.0,0.0,0.0,0.0,0.0,0.0,0.0,0.0,0.0,0.0,0.0,0.0,0.0,-0.1899,0.0,0.0,0.0,0.0,0.0,0.0,0.0,0.0,0.0,0.0,0.0,-0.3152,-0.3997,-0.1511,0.1345,0.3995,0.3444,0.2252,0.0,0.0,0.0,0.0,0.0,0.0,0.0,0.0,0.0,0.0,0.0,0.0,0.0,0.0,-2.2126,-2.1725,-2.1318,-2.1086,-2.113,0.0,0.0,0.0,0.0,0.0,0.0,0.0,0.0,0.0,0.0,0.0,0.0,0.0,0.0,-1.2141,0.0,-0.6136,0.0,0.0,0.0,0.0,0.0,0.0,0.0,0.0,-0.0603,0.0234,0.0832,0.2383,0.38,0.0,0.6721,0.9486,0.0,0.0,0.0,0.0,0.0,0.0,0.0,0.0,2.145,2.2201,2.3319,2.3892,2.3823,2.3806,2.3678,2.3442,2.378,2.392,2.372,2.2219,2.1191,0.0,0.0,0.0,0.0,0.0,0.0,0.0,0.0,0.0,0.0,0.0,0.0,0.0,0.0,0.0,0.0,0.0,0.0,0.0,0.0,0.0,0.0,0.0,-0.8747,0.0,0.0,0.0,0.0,0.0,0.0,0.0,0.0,0.0,-0.805,-0.9412,-1.0998,-1.2206,-1.0313,-0.7704,-0.466,0.0,0.0,0.0,0.0,0.0,0.0,0.0,-0.6496,-0.6571,-0.7367,-0.8997,-1.2057,-1.7438,-2.2257,-2.4996,0.0,0.0,-3.0675,-3.0727,-3.0733,-3.028,-2.9781,-2.9339,-2.9064,-2.9061,-2.9071,0.0,0.0,0.0,0.0,0.0,0.0,0.0,0.0,-2.3505,-2.2478,0.0,-1.571,0.0,0.0,0.0,0.0,0.0,-0.8773,0.0,0.0,-0.5763,-0.4495,-0.3636,-0.1673,0.0398,0.2752,0.4901,0.6772,0.8464,1.0711,0.0,0.0,0.0,0.0,0.0,0.0,2.0977,2.1656,2.3091,2.4059,2.4431,2.397,2.3849,2.41,2.3743,2.3506,2.3364,2.1971,2.0877,2.0203,1.9367,0.0,0.0,0.0,0.0,0.0,0.0,0.0,0.0,0.0,0.0,0.0,0.0,0.0,0.0,0.0,0.0,0.0,0.0,0.0,0.0,-1.5627,0.0,0.0,0.0,0.0,0.0,0.0,0.0,0.0,0.0,0.0,-1.3538,-1.8526,-2.2847,-2.3695,0.0,0.0,0.0,0.0,-1.0466,-0.7895,-1.3142,-1.5931,-1.1622,-1.1538,-1.1665,-1.0798,0.0,0.0,-2.0244,-2.2818,-2.5202,-2.8662,-3.021,-3.1146,-3.1123,-3.2365,-3.3125,-3.2074,-3.1728,-3.1598,-3.1032,-3.0698,-3.0757,-2.4792,0.0,0.0,0.0,0.0,-2.4619,-2.4842,-2.5252,-2.4566,-2.349,-2.1852,-1.6476,0.0,0.0,0.0,0.0,0.0,0.0,-1.0214,-0.9464,-0.8238,-0.6815,-0.5323,-0.3879,-0.2062,0.0056,0.1979,0.374,0.5462,0.746,1.0406,1.4194,0.0,0.0,0.0,0.0,2.0671,2.1956,2.252,2.2813,2.2948,2.2351,2.24,2.3173,2.2767,2.2744,2.3154,2.19,2.0681,1.9519,1.8753,0.0,0.0,0.0,0.0,0.0,0.0,0.0,0.0,0.0,0.0,0.0,0.0,0.0,0.0,0.0,0.0,0.0,0.0,0.0,-1.9589,-2.1193,-2.1835,0.0,0.0,0.0,0.0,0.0,0.0,0.0,0.0,0.0,-1.3871,-1.7337,-2.0612,0.0,0.0,-1.9987,-1.9095,-1.8407,-1.7742,-1.7009,-1.7939,0.0,-1.6774,-1.5674,-1.4853,-1.4545,-1.632,-1.8812,-2.1873,-2.4316,-2.6354,-2.7793,-2.9248,-3.0327,-3.0279,-3.1302,-3.2093,-3.1964,-3.1525,-3.1077,-3.0879,-3.0859,-3.0869,-2.3319,-2.3653,-2.3706,-2.3966,-2.4248,-2.3571,-2.3612,-2.4059,-2.28,-2.1636,-2.0316,-1.53,-1.2148,-1.0393,-0.6932,0.0,0.0,0.0,-1.0077,-0.9976,-0.8479,-0.7113,-0.5837,-0.4361,-0.2653,-0.0739,0.1037,0.2777,0.455,0.638,0.9082,1.2739,0.0,0.0,1.8024,1.9169,2.0329,2.1529,2.205,2.2209,2.2083,2.1669,2.1725,2.2253,2.1868,2.1965,2.258,2.1414,2.0114,1.8847,1.8053,1.7363,0.0,0.0,0.0,0.0,0.0,0.0,0.0,0.0,0.0,0.0,0.0,0.8305,0.3579,0.0,0.0,0.0,-1.4403,-1.671,-2.2015,-2.2409,0.0,0.0,0.0,0.0,0.0,0.0,0.0,-1.4767,-1.3848,-1.3307,-1.327,-1.5323,-1.7753,-2.0184,-2.0851,-2.0916,-2.0374,0.0,-2.0077,-2.0462,-2.0014,-1.9562,-1.934,-1.8459,-1.7828,-1.7943,-1.9297,-2.1147,-2.32,-2.5043,-2.6372,-2.7178,-2.835,-2.9167,-2.8969,-2.96,-3.0451,-3.1276,-3.1376,-3.1189,-3.0843,-3.0533,-3.0292,-2.1383,-2.0931,-2.0942,-2.1357,-2.196,-2.1101,-2.0733,-2.0517,-1.9238,-1.7964,-1.6509,-1.2846,-0.99,-0.7644,-0.6235,0.0,-0.6544,-0.7505,-0.8451,-0.934,-0.71,-0.5802,-0.5273,-0.3582,-0.1796,0.0058,0.1618,0.3274,0.506,0.6768,0.8701,1.077,1.251,1.4812,1.756,1.899,1.9964,2.0618,2.1652,2.1999,2.1592,2.1604,2.1569,2.1512,2.1242,2.1361,2.1893,2.0787,1.9546,1.8342,1.743,1.6634,1.5868,0.0,0.0,0.0,0.0,0.0,0.0,0.0,0.0,0.0,0.0,0.0,0.0,0.0,0.0,0.0,-2.016,0.0,-2.073,-2.0968,0.0,0.0,0.0,-2.1146,-1.9595,-1.8466,-1.6801,-1.4164,0.0,0.0,-1.2117,-1.2997,-1.4502,-1.6579,-1.7894,-1.8733,-1.887,-1.855,-1.8602,-1.9347,-1.9866,-2.0059,-1.9838,-1.9877,-2.0035,-2.0403,-2.1222,-2.2218,-2.3953,-2.5076,-2.5889,-2.6694,-2.744,-2.7884,-2.7631,-2.7845,-2.833,-3.0045,-3.1012,-3.1355,-3.0533,-2.9814,-2.9322,-1.9378,-1.8678,-1.6851,-1.7846,-2.0516,-1.979,-1.9036,-1.8179,-1.6596,-1.4566,-1.2222,-0.9547,-0.6039,-0.2163,-0.2526,-0.284,-0.3164,-0.4724,-0.5668,-0.5917,-0.4893,-0.3597,-0.2215,-0.1734,-0.0337,0.1805,0.2666,0.3861,0.5384,0.704,0.8692,1.0418,1.2346,1.4616,1.7112,1.8605,1.9785,2.0748,2.1126,2.104,2.0493,2.0687,2.1042,2.156,2.1846,2.206,2.2203,2.1617,2.0578,1.9037,1.7578,1.605,1.4523,1.3067,0.0,0.0,0.0,0.0,0.0,0.0,0.0,0.0,0.0,-0.5689,-1.0683,0.0,-2.0725,0.0,-2.2099,-2.2331,-2.2975,-2.2778,0.0,0.0,-2.2746,-2.1965,-2.0571,-1.8959,-1.7026,-1.4524,-1.3544,-1.2393,-1.0853,-1.1178,-1.1917,-1.2993,-1.471,-1.6192,-1.6924,-1.6341,-1.605,-1.6818,-1.7897,-1.8869,-1.9399,-1.9791,-2.0165,-2.0508,-2.1225,-2.2114,-2.3059,-2.4423,-2.5542,-2.5993,-2.6127,-2.6535,-2.7319,-2.7249,-2.7401,-2.8359,-2.8887,-2.9042,-2.8761,-2.8553,-2.8403,-1.6318,-1.4725,-1.295,-1.3032,-1.4325,-1.501,-1.4885,-1.4116,-1.2361,-1.042,-0.8244,-0.5039,-0.1945,0.0773,0.022,-0.022,-0.0548,-0.1868,-0.2697,-0.3078,-0.2235,-0.1413,-0.0653,0.0163,0.1412,0.2884,0.3858,0.5035,0.6406,0.7741,0.9186,1.0789,1.2786,1.4727,1.6548,1.8042,1.9236,2.0107,2.0282,2.0271,2.0111,2.034,2.0849,2.1598,2.1766,2.2051,2.2446,2.1776,2.0845,1.9637,1.7853,1.5928,1.395,1.228,1.142,0.0,0.0,0.0,0.0,0.0,0.0,0.0,0.0,0.0,0.0,0.0,-2.3802,-2.3618,-2.2717,-2.234,-2.2819,-2.2376,-2.2281,-2.2825,-2.2379,-2.1473,-2.0074,-1.8412,-1.6477,-1.4034,-1.2982,-1.1817,-1.0331,-1.0595,-1.0922,-1.099,-1.1993,-1.3362,-1.4827,-1.4338,-1.3927,-1.4921,-1.5959,-1.7281,-1.8869,-1.9424,-1.9935,-2.0726,-2.1262,-2.1946,-2.3103,-2.4183,-2.5055,-2.5579,-2.5826,-2.601,-2.6431,-2.639,-2.6383,-2.6698,-2.6908,-2.7196,-2.7808,-2.7625,-2.735,-1.2498,-1.0119,-0.9052,-0.7644,-0.6316,-0.8307,-0.9227,-0.927,-0.7628,-0.6046,-0.4398,-0.0603,0.1559,0.2342,0.2179,0.1955,0.1559,0.0783,0.0056,-0.055,0.0429,0.0633,0.0315,0.2052,0.3162,0.3744,0.5117,0.646,0.77,0.8761,1.0029,1.1616,1.3559,1.5053,1.6146,1.7512,1.8578,1.9325,1.9495,1.9779,2.0235,2.0331,2.0803,2.1645,2.1565,2.1839,2.257,2.18,2.1015,2.0295,1.8416,1.6283,1.3889,1.2124,1.1438,0.0,1.1661,0.0,0.0,0.0,0.0,0.0,0.0,0.0,0.0,-2.4788,-2.4876,-2.4582,-2.293,-2.1902,-2.1948,-2.1237,-2.1133,-2.1876,-2.1389,-2.0404,-1.8933,-1.7488,-1.5627,-1.3118,-1.2369,-1.1475,-1.0096,-1.0489,-1.0647,-1.0068,-0.9975,-1.0799,-1.2476,-1.2224,-1.2095,-1.3426,-1.4227,-1.5779,-1.791,-1.8809,-1.9474,-2.0739,-2.1127,-2.181,-2.3399,-2.3994,-2.4521,-2.531,-2.581,-2.5948,-2.5408,-2.5485,-2.5535,-2.5522,-2.549,-2.587,-2.6938,-2.6772,-2.6309,-0.7973,-0.6286,-0.4496,-0.2991,-0.1796,-0.1226,-0.2549,-0.5074,-0.3945,-0.2377,-0.0496,0.1388,0.2622,0.3291,0.3016,0.3012,0.3111,0.223,0.181,0.1755,0.1798,0.2079,0.2583,0.3425,0.4408,0.5474,0.6654,0.7782,0.8708,0.999,1.1327,1.2667,1.4312,1.5673,1.6691,0.0,0.0,0.0,1.943,1.9904,2.1005,2.058,2.0779,2.176,2.225,0.0,2.2322,2.2712,2.25,2.1553,1.9775,0.0,0.0,0.0,0.0,0.0,0.0,0.0,0.0,0.0,0.0,0.0,-1.9447,-2.3554,-2.4481,-2.4796,-2.4914,-2.4905,-2.4387,-2.3863,-2.3289,-2.2362,-2.1867,-2.1911,-2.0685,-1.9552,-1.8757,-1.7064,-1.5044,-1.2851,-1.2102,-1.1176,-0.9677,-0.9763,-0.9825,-0.9356,-0.913,-0.9122,-0.9374,-0.9604,-1.0132,-1.1251,-1.3039,-1.4887,-1.6358,-1.7414,-1.8289,-1.9385,-2.0208,-2.1084,-2.2339,-2.313,-2.3865,-2.4785,-2.5222,-2.5399,-2.5337,-2.5414,-2.5304,-2.5309,-2.5078,-2.5079,-2.5568,-2.5516,-2.5361,-0.2651,0.0,0.0364,0.1592,0.0,0.3781,0.3092,0.1196,0.0374,0.0874,0.2273,0.2947,0.3564,0.4117,0.3668,0.3641,0.3908,0.3202,0.3035,0.329,0.3435,0.3705,0.4239,0.4922,0.5762,0.6796,0.7833,0.8748,0.974,1.0998,1.2215,1.3402,1.4959,1.6017,1.6511,1.7086,1.7894,1.9001,1.8804,1.9285,2.0436,2.0374,2.0968,2.2331,2.2672,0.0,0.0,0.0,0.0,0.0,0.0,0.0,0.0,1.3464,0.0,0.8388,0.4904,0.1703,-0.1418,-0.9387,-1.4836,-1.6393,-2.1723,-2.4809,-2.4386,-2.4563,-2.4547,-2.4135,-2.387,-2.3433,-2.2775,-2.2316,-2.1885,-2.1255,-2.0309,-1.9293,-1.8201,-1.6691,-1.4877,-1.287,-1.1897,-1.0956,-0.9567,-0.9256,-0.9033,-0.857,-0.8124,-0.7644,-0.7199,-0.7756,-0.8708,-0.9529,-1.0918,-1.2463,-1.3723,-1.4764,-1.6089,-1.7403,-1.8497,-1.9687,-2.124,-2.2022,-2.2757,-2.3605,-2.3966,-2.4089,-2.4147,-2.4115,-2.4035,-2.3908,-2.3624,-2.3403,-2.3526,-2.3831,-2.3975,0.2699,0.4471,0.5097,0.591,0.6907,0.7538,0.7519,0.6932,0.0,0.0,0.0,0.4328,0.45,0.4714,0.434,0.4327,0.4541,0.419,0.4198,0.4603,0.4984,0.5252,0.5446,0.6397,0.7173,0.7917,0.8877,0.9822,1.0758,1.1846,1.2954,1.4057,1.5557,1.6326,1.6411,1.6699,1.7319,1.8157,1.8223,1.879,1.9884,2.0131,2.1107,2.294,2.2949,2.3583,2.4946,2.4521,2.3997,2.3397,2.1703,1.9498,1.6862,1.4987,1.2478,0.9075,0.4383,-0.0208,-0.4591,-1.2737,-1.8313,-2.0132,-2.313,-2.4706,-2.4162,-2.4302,-2.4082,-2.3317,-2.2945,-2.2498,-2.1912,-2.1872,-2.152,-2.0493,-1.9911,-1.9037,-1.7689,-1.6224,-1.4566,-1.274,-1.1543,-1.0547,-0.9369,-0.8676,-0.8143,-0.7522,-0.6841,-0.61,-0.5372,-0.6021,-0.6989,-0.7535,-0.8362,-0.9432,-1.0756,-1.1808,-1.312,-1.523,-1.6214,-1.7548,-1.9609,-2.0674,-2.139,-2.2516,-2.2689,-2.2841,-2.2832,-2.2799,-2.2537,-2.2356,-2.1999,-2.1632,-2.142,-2.1786,-2.2102,0.7321,0.8428,0.9069,0.981,1.0523,1.0191,0.9684,0.8907,0.6494,0.5497,0.5625,0.5512,0.5305,0.5042,0.5177,0.5407,0.5665,0.5587,0.5778,0.6094,0.614,0.6164,0.6247,0.7732,0.8468,0.8601,1.0168,1.1286,1.1963,1.2706,1.3543,1.4563,1.5978,1.7013,1.7433,1.6521,1.6607,1.7841,1.8409,1.9372,2.0781,2.0317,2.0972,2.2797,2.2949,2.3371,2.4224,2.4582,2.4652,2.431,2.3076,2.1023,1.8113,1.6385,1.3941,1.0336,0.5399,0.0049,-0.5696,-1.1757,-1.7735,-2.3332,-2.3918,-2.3933,-2.4238,-2.4086,-2.3829,-2.3454,-2.3016,-2.263,-2.2093,-2.1547,-2.0973,-2.0252,-1.9135,-1.804,-1.7232,-1.5412,-1.3632,-1.2103,-1.0781,-0.951,-0.8321,-0.7714,-0.7012,-0.5977,-0.5294,-0.4478,-0.3473,-0.378,-0.4405,-0.473,-0.5658,-0.6794,-0.7942,-0.9112,-1.0479,-1.2623,-1.3159,-1.4471,-1.7594,-1.8457,-1.9411,-2.1664,-2.1897,-2.215,-2.2283,-2.2334,-2.1815,-2.1438,-2.0979,-2.047,-1.9494,-1.9135,-1.9459,1.0697,1.1479,1.1678,1.1978,1.2402,1.1766,1.1251,1.0708,0.9196,0.8054,0.7287,0.7094,0.691,0.6755,0.6748,0.6799,0.6906,0.694,0.7017,0.7209,0.7712,0.8063,0.8305,0.9338,1.0023,1.0498,1.137,1.2109,1.2691,1.3627,1.4473,1.5252,1.6303,1.7213,1.7841,1.6854,1.6588,1.7211,1.7822,1.8774,2.0019,2.0,2.066,2.2115,2.2243,2.2685,2.3483,2.409,2.4279,2.3973,2.3508,2.2209,2.0001,1.8564,1.6152,1.2503,0.8556,0.2709,-0.5436,-1.4164,-2.0624,-2.4121,-2.4173,-2.3837,-2.3531,-2.3157,-2.2702,-2.2148,-2.1841,-2.1491,-2.097,-2.0629,-2.0138,-1.9294,-1.8178,-1.7207,-1.632,-1.4732,-1.3022,-1.1684,-1.0249,-0.8923,-0.783,-0.7017,-0.6145,-0.5095,-0.3952,-0.2555,-0.1319,-0.1079,-0.1498,-0.2338,-0.3001,-0.3775,-0.4883,-0.5601,-0.6883,-0.8851,-0.9704,-1.1238,-1.3946,-1.5089,-1.6441,-1.8035,-1.8929,-1.9371,-1.9518,-1.9599,-1.9414,-1.9004,-1.8745,-1.8111,-1.719,-1.657,-1.6927,1.315,1.3651,1.3617,1.3611,1.3522,1.2865,1.2378,1.2027,1.119,1.0269,0.9262,0.8738,0.842,0.8297,0.8263,0.8267,0.8217,0.8306,0.8271,0.829,0.9147,0.9666,0.9973,1.0705,1.1463,1.2095,1.2501,1.2959,1.3453,1.4514,1.5398,1.6137,1.6594,1.7203,1.8021,1.7148,1.6784,1.6944,1.7476,1.8194,1.9022,1.9562,2.0365,2.1434,2.1643,2.2098,2.2959,2.3505,2.3626,2.3338,2.3347,2.272,2.1268,2.0054,1.7826,1.4433,1.147,0.5164,-0.5443,-1.6036,-2.2572,-2.3592,-2.3391,-2.2923,-2.2263,-2.1659,-2.1273,-2.0916,-2.058,-2.014,-1.9879,-1.9549,-1.9046,-1.8039,-1.7173,-1.6232,-1.5239,-1.3871,-1.2459,-1.1195,-0.9814,-0.8535,-0.7464,-0.6367,-0.5138,-0.3759,-0.2242,-0.0753,0.0397,0.1265,0.1202,0.057,-0.0044,-0.0741,-0.1781,-0.199,-0.2958,-0.4806,-0.5882,-0.745,-0.9535,-1.1297,-1.2959,-1.4418,-1.5573,-1.6334,-1.6485,-1.6672,-1.6627,-1.6249,-1.5947,-1.5422,-1.4411,-1.3915,-1.4313,1.43,1.4662,1.5045,1.4827,1.4151,1.3692,1.3036,1.225,1.173,1.153,1.13,1.0269,0.9463,0.9125,0.9518,0.964,0.9523,0.9768,0.9706,0.9507,1.0072,1.0321,1.0375,1.164,1.2367,1.2579,1.3506,1.413,1.4503,1.51,1.612,1.735,1.6899,1.7,1.7707,1.7097,1.6995,1.76,1.8081,1.8314,1.8341,1.9167,2.0256,2.1555,2.1643,2.212,2.2856,2.3049,2.297,2.27,2.2547,2.1964,2.0913,1.9732,1.7977,1.5599,1.2799,0.587,-0.6478,-1.539,-2.0749,-2.1832,-2.0895,-2.0163,-2.0002,-1.9417,-1.9604,-2.0262,-1.9641,-1.9165,-1.9416,-1.8634,-1.7777,-1.6999,-1.6144,-1.5085,-1.3868,-1.2847,-1.1748,-1.0265,-0.9218,-0.8077,-0.6583,-0.5358,-0.3822,-0.165,-0.0461,0.0698,0.189,0.2856,0.3698,0.3927,0.3413,0.2181,0.1304,0.1481,0.0729,-0.0802,-0.1738,-0.3352,-0.5461,-0.7478,-0.9483,-1.1111,-1.2816,-1.3515,-1.43,-1.4848,-1.4227,-1.3621,-1.3158,-1.2611,-1.1537,-1.1001,-1.163,1.5576,1.5861,1.5835,1.5246,1.4451,1.4195,1.3738,1.3041,1.2562,1.2427,1.2465,1.184,1.1205,1.0619,1.0742,1.0605,1.0398,1.0889,1.0781,1.0338,1.1416,1.1717,1.1429,1.2775,1.3432,1.3409,1.4304,1.4903,1.5268,1.5831,1.6596,1.7311,1.6893,1.6862,1.7296,1.7038,1.6954,1.7078,1.7902,1.8271,1.8269,1.9176,2.0024,2.0635,2.0857,2.1076,2.1479,2.1982,2.2199,2.2056,2.2344,2.2242,2.1608,2.0816,1.9622,1.7484,0.9013,0.1259,-0.5177,-1.4659,-2.0371,-2.0781,-1.9923,-1.906,-1.8205,-1.7442,-1.7197,-1.7502,-1.7913,-1.8265,-1.8215,-1.7747,-1.7053,-1.6237,-1.5417,-1.4351,-1.3136,-1.1849,-1.0698,-0.9603,-0.8265,-0.6902,-0.5283,-0.3311,-0.1431,0.0257,0.1288,0.2331,0.3461,0.4333,0.5222,0.6026,0.6299,0.5664,0.4184,0.3939,0.3536,0.2498,0.1597,0.0337,-0.1413,-0.2782,-0.4553,-0.7029,-0.8282,-0.9238,-0.9765,-1.0816,-1.1002,-1.0476,-0.994,-0.9361,-0.9158,-0.8505,-0.8609,1.6489,1.6682,1.6245,1.5608,1.4858,1.4839,1.4491,1.3979,1.3712,1.3619,1.3632,1.3523,1.3021,1.2349,1.2137,1.183,1.1597,1.2006,1.1856,1.1289,1.2482,1.277,1.2381,1.36,1.4198,1.4234,1.4906,1.5463,1.577,1.6217,1.6657,1.6974,1.6848,1.6864,1.7025,1.7003,1.6969,1.6993,1.7876,1.8315,1.8428,1.9244,1.9856,2.0068,2.0255,2.0355,2.039,2.104,2.1396,2.1331,2.1803,2.1924,2.1586,2.1129,2.0405,1.8493,0.8089,0.0262,-0.2217,-1.1434,-1.744,-1.8371,-1.7768,-1.6809,-1.5938,-1.4881,-1.4128,-1.3901,-1.4888,-1.5611,-1.6517,-1.6159,-1.5532,-1.4746,-1.3998,-1.3042,-1.1795,-1.0568,-0.9463,-0.843,-0.6961,-0.5333,-0.352,-0.1279,0.0521,0.1746,0.2789,0.3777,0.4802,0.5646,0.6572,0.7488,0.8638,0.8355,0.6578,0.648,0.6148,0.5552,0.4766,0.3644,0.2304,0.1382,-0.0218,-0.3054,-0.3806,-0.4995,-0.6475,-0.733,-0.7306,-0.6672,-0.6166,-0.5782,-0.5564,-0.5117,-0.4468,1.6864,1.6924,1.6421,1.6011,1.5677,1.5647,1.531,1.4835,1.5243,1.5351,1.5159,1.5045,1.4664,1.3933,1.3624,1.342,1.3155,1.322,1.2893,1.2306,1.2879,1.303,1.2843,1.4011,1.4555,1.4615,1.5255,1.577,1.6051,1.6088,1.6366,1.6767,1.6816,1.6953,1.7086,1.7024,1.7224,1.7609,1.8101,1.8544,1.8853,1.9327,1.9734,1.9983,2.0138,2.0231,2.0276,2.0397,2.0496,2.0553,2.0585,2.0515,2.0324,2.0069,1.9651,1.8258,1.1795,0.5835,0.1725,-0.47,-1.0323,-1.4037,-1.3462,-1.2397,-1.2707,-1.1501,-1.0568,-1.0188,-1.0424,-1.1464,-1.3363,-1.3301,-1.273,-1.2096,-1.1522,-1.0653,-0.9409,-0.8762,-0.7852,-0.6503,-0.5184,-0.3394,-0.0792,0.0263,0.1742,0.3097,0.4086,0.5024,0.6033,0.6954,0.7968,0.8928,0.9675,0.9818,0.8648,0.8784,0.9151,0.8477,0.7317,0.6454,0.5647,0.4571,0.2602,0.0965,0.0041,-0.1357,-0.3289,-0.3857,-0.3432,-0.2865,-0.2364,-0.2031,-0.1657,-0.1024,-0.0429,1.7564,1.7504,1.7303,1.6932,1.6494,1.6387,1.617,1.5892,1.5996,1.6015,1.5957,1.5633,1.5295,1.4977,1.4541,1.3749,1.2828,1.324,1.307,1.243,1.3088,1.3217,1.2851,1.364,1.4253,1.4653,1.5032,1.55,1.5969,1.5907,1.6004,1.6231,1.633,1.6445,1.6635,1.6996,1.7376,1.7772,1.8223,1.8606,1.8894,1.9274,1.9546,1.9751,1.9963,1.9861,1.9405,1.9991,2.0147,1.9681,2.0121,2.0369,2.0318,2.0196,1.9853,1.8795,1.3369,0.8233,0.4203,-0.1595,-0.6662,-1.0051,-1.0107,-0.9453,-0.9241,-0.8473,-0.7802,-0.7459,-0.7268,-0.7795,-0.8434,-0.9888,-1.0671,-0.9886,-0.9555,-0.8727,-0.7227,-0.6505,-0.5821,-0.4204,-0.2548,-0.0699,0.0735,0.251,0.4153,0.5335,0.6367,0.7158,0.7946,0.8793,0.9518,1.0198,1.1105,1.169,1.1595,1.1366,1.1262,1.0526,0.9687,0.9039,0.83,0.7768,0.6098,0.5067,0.4066,0.3278,0.1692,0.1096,0.1362,0.1128,0.1603,0.193,0.2423,0.2799,0.3375,1.8168,1.8087,1.8004,1.773,1.7273,1.7229,1.7096,1.6893,1.6906,1.6909,1.6757,1.6234,1.5808,1.5417,1.4884,1.4019,1.291,1.3367,1.327,1.2698,1.3423,1.3557,1.33,1.3822,1.4343,1.4666,1.5038,1.54,1.5709,1.575,1.5754,1.5782,1.5941,1.6168,1.6455,1.6985,1.7457,1.7763,1.814,1.8482,1.8798,1.911,1.9354,1.9484,1.9695,1.9647,1.9238,1.9604,1.978,1.9599,1.9824,2.0072,2.0327,2.0311,2.0094,1.9243,1.5877,1.1801,0.7952,0.3405,-0.0798,-0.4683,-0.5459,-0.5589,-0.575,-0.5507,-0.5124,-0.4761,-0.4437,-0.42,-0.4385,-0.595,-0.7234,-0.7216,-0.7385,-0.6752,-0.5096,-0.4734,-0.3665,-0.1894,0.0,0.1507,0.2648,0.4513,0.595,0.7065,0.8083,0.8894,0.9504,1.0308,1.0972,1.1417,1.2295,1.2982,1.3232,1.3301,1.3248,1.2614,1.1989,1.14,1.0916,1.0426,0.9814,0.8976,0.8314,0.78,0.7126,0.6406,0.5853,0.5394,0.5503,0.5774,0.6154,0.6429,0.7001,1.8711,1.8664,1.8498,1.8309,1.8122,1.8245,1.8072,1.7831,1.8124,1.8094,1.7777,1.706,1.6324,1.5552,1.5075,1.4306,1.3912,1.4077,1.3896,1.3411,1.3943,1.4128,1.3949,1.4651,1.4904,1.4911,1.5421,1.5517,1.5373,1.5662,1.5688,1.5533,1.6055,1.639,1.6485,1.7042,1.741,1.7635,1.7901,1.8232,1.8576,1.8861,1.9095,1.9216,1.9359,1.9548,1.9811,1.9259,1.9313,1.987,1.9474,1.9449,2.0149,2.0208,2.0107,1.9858,1.9075,1.6722,1.293,1.0742,0.6852,0.2144,0.0566,-0.0784,-0.2122,-0.2311,-0.2112,-0.1876,-0.1656,-0.1371,-0.1202,-0.157,-0.2525,-0.4107,-0.4717,-0.4418,-0.3557,-0.3133,-0.2025,0.0464,0.2259,0.368,0.4954,0.6159,0.729,0.8286,0.9179,0.9954,1.0604,1.1565,1.2254,1.2783,1.3572,1.4379,1.4772,1.5074,1.5,1.4805,1.4178,1.3598,1.3134,1.2653,1.2091,1.1341,1.1079,1.0558,0.9914,0.9235,0.9023,0.8762,0.9126,0.9332,0.9579,0.9868,1.0554,1.9042,1.9065,1.93,1.931,1.9239,1.9276,1.9132,1.8936,1.9074,1.8974,1.86,1.7859,1.7281,1.6796,1.6123,1.5628,1.5451,1.5535,1.4908,1.3992,1.4413,1.4518,1.4402,1.5014,1.5349,1.5421,1.5854,1.5999,1.5827,1.5954,1.603,1.6207,1.6687,1.6815,1.6691,1.7142,1.749,1.7559,1.7847,1.8091,1.8284,1.867,1.893,1.9057,1.9189,1.9398,1.9649,1.9562,1.94,1.9239,1.9501,1.979,1.9921,1.9948,1.9845,1.965,1.9437,1.7786,1.4586,1.3233,1.0745,0.6345,0.4507,0.337,0.201,0.1471,0.1376,0.1458,0.1419,0.1383,0.1632,0.1491,0.0448,-0.1442,-0.1713,-0.1287,-0.0138,0.096,0.213,0.3118,0.4417,0.5633,0.666,0.7788,0.8933,0.9802,1.07,1.1464,1.2256,1.3053,1.3846,1.4355,1.5135,1.5793,1.6221,1.6576,1.669,1.6417,1.5921,1.5231,1.4841,1.4546,1.4039,1.3756,1.3502,1.3155,1.255,1.2181,1.1913,1.1789,1.1763,1.2159,1.2724,1.3057,1.3242,1.9435,1.9464,1.9859,1.9952,1.9882,1.9854,1.9667,1.9398,1.9406,1.9221,1.8776,1.809,1.7709,1.7458,1.6736,1.6437,1.6493,1.6638,1.6081,1.5092,1.5428,1.5514,1.5371,1.5841,1.613,1.6242,1.6627,1.6705,1.6476,1.6697,1.6888,1.71,1.7478,1.7553,1.7292,1.7904,1.8104,1.7749,1.8344,1.8579,1.8373,1.8772,1.9028,1.894,1.9034,1.92,1.9381,1.9546,1.9463,1.9205,1.9563,1.9741,1.97,1.9647,1.9485,1.9286,1.9217,1.8327,1.612,1.5484,1.3882,1.0556,0.8672,0.7235,0.599,0.5093,0.4518,0.406,0.3898,0.3893,0.3969,0.3864,0.3155,0.235,0.1453,0.1665,0.2707,0.3965,0.4886,0.5595,0.6661,0.77,0.87,0.9498,1.0708,1.1551,1.2292,1.3101,1.3974,1.4843,1.5421,1.5962,1.6508,1.7111,1.769,1.8053,1.832,1.7975,1.7487,1.6666,1.6024,1.5806,1.5442,1.5432,1.5238,1.5208,1.4703,1.4732,1.46,1.4516,1.4058,1.4284,1.4452,1.4566,1.4777,1.9823,1.9894,2.025,2.0289,2.0096,2.0073,1.9803,1.9325,1.9251,1.9065,1.8603,1.8122,1.7772,1.7572,1.7234,1.7058,1.6973,1.7461,1.7439,1.7036,1.711,1.716,1.7057,1.7181,1.7288,1.7366,1.7591,1.7584,1.7328,1.7728,1.804,1.8055,1.8308,1.8326,1.8277,1.9085,1.89,1.8217,1.9267,1.9356,1.8538,1.9113,1.9356,1.8875,1.8941,1.901,1.9102,1.9283,1.949,1.9623,1.9544,1.9508,1.9467,1.9372,1.9232,1.8958,1.9292,1.8981,1.8164,1.7461,1.6547,1.4617,1.2506,1.0996,0.9341,0.8171,0.7173,0.6275,0.6159,0.6137,0.6048,0.5905,0.6028,0.6383,0.4877,0.4174,0.4526,0.5746,0.6798,0.7669,0.892,1.0122,1.0819,1.142,1.2262,1.3132,1.3846,1.4647,1.5447,1.6283,1.705,1.7548,1.7944,1.8508,1.909,1.9382,1.9608,1.9289,1.8912,1.8346,1.7571,1.7338,1.697,1.6928,1.6965,1.6976,1.6722,1.6433,1.6222,1.5823,1.5694,1.5907,1.5907,1.5833,1.597,2.025,2.0345,2.0663,2.0671,2.0553,2.03,2.0023,1.9754,1.9522,1.9258,1.9014,1.8956,1.8796,1.8825,1.8761,1.8739,1.8673,1.8885,1.8958,1.8732,1.8745,1.8527,1.8194,1.8163,1.8371,1.8582,1.8259,1.8071,1.8293,1.8498,1.8748,1.9081,1.9272,1.9254,1.9066,1.937,1.939,1.9166,1.958,1.9975,1.9765,1.956,1.9529,1.9509,1.9118,1.8995,1.9062,1.9193,1.9347,1.9532,1.9433,1.9314,1.9333,1.9533,1.9611,1.9562,1.9734,1.9761,1.9216,1.8482,1.7468,1.6312,1.4715,1.3316,1.223,1.1312,1.0415,0.955,0.9058,0.8738,0.8591,0.8324,0.8698,0.941,0.8037,0.6959,0.7335,0.8207,0.9159,0.9984,1.0896,1.1766,1.2574,1.3265,1.4,1.4638,1.5323,1.6026,1.6809,1.7555,1.8316,1.8928,1.939,1.9939,2.043,2.0716,2.0768,2.0528,2.0323,2.0207,1.9601,1.9242,1.8712,1.829,1.8412,1.8451,1.7718,1.714,1.6987,1.6885,1.6692,1.6575,1.6738,1.6754,1.6878,2.0622,2.0689,2.0811,2.0778,2.062,2.0342,2.0038,1.9777,1.9617,1.9354,1.9213,1.925,1.9302,1.9354,1.9457,1.9531,1.9523,1.9574,1.9523,1.9479,1.9457,1.9251,1.8945,1.8936,1.9133,1.9329,1.897,1.898,1.9226,1.9299,1.9597,1.9984,2.0226,2.01,1.9833,2.0266,2.0177,1.9961,2.0419,2.0815,2.0276,2.0373,2.0288,2.0213,1.9788,1.9654,1.9623,1.9875,1.9997,1.9842,1.9693,1.9694,1.9883,2.0043,2.0139,2.0044,2.0185,2.0045,1.9408,1.8788,1.8107,1.7224,1.6195,1.5474,1.4613,1.401,1.3386,1.2285,1.1799,1.1587,1.1448,1.1244,1.1512,1.1909,1.1329,1.0549,1.0178,1.0922,1.1649,1.2318,1.3033,1.3732,1.4424,1.5025,1.5576,1.6184,1.6743,1.742,1.8109,1.8807,1.9417,1.9927,2.0311,2.0687,2.1044,2.1322,2.1545,2.1359,2.1492,2.1473,2.0994,2.0625,2.0134,1.9659,1.9807,1.9568,1.8637,1.7957,1.7843,1.7671,1.7403,1.7183,1.7256,1.7353,1.7524,2.0934,2.0934,2.0852,2.0687,2.0444,2.0315,1.994,1.9479,1.9494,1.9347,1.913,1.9198,1.9376,1.9487,1.9664,1.9687,1.9882,1.9876,1.9748,1.9705,1.9697,1.961,1.9435,1.9442,1.9567,1.9675,1.9775,1.9864,1.9993,2.0162,2.0431,2.0684,2.0927,2.0858,2.0716,2.1338,2.1106,2.0603,2.1448,2.1614,2.0968,2.1102,2.1151,2.0896,2.067,2.0489,2.0465,2.0738,2.0891,2.0425,2.0279,2.0453,2.0868,2.0793,2.0689,2.0554,2.0614,2.0316,1.9311,1.9115,1.8657,1.8021,1.766,1.7291,1.648,1.612,1.5586,1.4469,1.4419,1.4072,1.3931,1.4191,1.4191,1.4181,1.4358,1.4111,1.3575,1.36,1.404,1.4485,1.5066,1.5799,1.6283,1.6619,1.6863,1.7536,1.8111,1.8663,1.9193,1.9708,2.0256,2.075,2.1038,2.1238,2.1535,2.1848,2.2029,2.211,2.241,2.2383,2.1767,2.1377,2.1122,2.0907,2.0735,2.0148,1.922,1.8793,1.8583,1.8127,1.7652,1.7541,1.7526,1.7662,1.7811,2.1159,2.1222,2.1135,2.0941,2.061,2.0289,1.9882,1.9435,1.928,1.9236,1.9153,1.9332,1.9649,2.005,2.0203,2.0461,2.0624,2.0504,2.0357,2.0018,2.0003,1.9897,1.9726,1.9697,1.9843,1.9929,1.9869,2.0085,2.0478,2.0646,2.0819,2.1071,2.1175,2.1228,2.1299,2.1543,2.1715,2.1549,2.2062,2.2226,2.1943,2.1601,2.1597,2.1548,2.1206,2.0912,2.091,2.1066,2.131,2.1412,2.1197,2.1049,2.1158,2.1351,2.138,2.1293,2.1406,2.1253,2.058,1.9733,1.9106,1.8877,1.8302,1.7745,1.7723,1.7577,1.7181,1.6453,1.6094,1.5782,1.5521,1.5535,1.5824,1.6093,1.6283,1.6481,1.6386,1.5655,1.543,1.5805,1.6434,1.7066,1.7531,1.8081,1.8471,1.8924,1.9347,1.9871,2.0244,2.0605,2.0983,2.1411,2.1568,2.1732,2.202,2.226,2.2393,2.2561,2.2876,2.3084,2.245,2.2283,2.209,2.1788,2.1498,2.0759,1.9976,1.9304,1.9036,1.8461,1.7931,1.7866,1.7858,1.7984,1.8115,2.1079,2.0974,2.1111,2.0957,2.061,2.0376,2.0053,1.9712,1.9589,1.9493,1.9522,1.9811,2.0147,2.0371,2.0743,2.0966,2.0943,2.0819,2.0603,2.0315,2.0239,2.0177,2.001,1.9912,1.9978,2.0142,2.0158,2.0436,2.0745,2.0982,2.1079,2.1262,2.1419,2.1487,2.1603,2.1814,2.1978,2.1966,2.2197,2.2338,2.2258,2.2041,2.1988,2.2184,2.1941,2.1721,2.1556,2.1932,2.2033,2.2055,2.2056,2.2007,2.1914,2.2091,2.2116,2.2099,2.1835,2.1794,2.1207,2.0503,1.9794,1.9664,1.9087,1.887,1.8677,1.8609,1.8387,1.7991,1.7692,1.7412,1.7234,1.7517,1.7787,1.7885,1.8035,1.8243,1.8327,1.7573,1.6957,1.725,1.7731,1.8182,1.8696,1.9102,1.9487,1.9708,1.9942,2.0448,2.0902,2.1225,2.1505,2.1811,2.1982,2.2183,2.2475,2.266,2.273,2.2859,2.302,2.316,2.2944,2.2988,2.3094,2.2661,2.2195,2.1751,2.0992,2.0282,1.9487,1.8893,1.8459,1.825,1.8187,1.8342,1.8471,2.0884,2.0663,2.0876,2.0818,2.0535,2.0494,2.0335,2.0096,2.0099,2.0081,2.0058,2.0491,2.0677,2.0821,2.1156,2.1243,2.1111,2.095,2.0819,2.0571,2.0478,2.0392,2.0296,2.0158,2.0193,2.0247,2.035,2.0646,2.0934,2.1158,2.1269,2.134,2.1595,2.1664,2.1779,2.2007,2.214,2.2066,2.2119,2.218,2.2143,2.2116,2.2258,2.2477,2.2487,2.2365,2.2233,2.2534,2.2726,2.2295,2.2847,2.3049,2.297,2.2859,2.2782,2.2721,2.2234,2.189,2.1615,2.1039,2.0483,2.0285,2.0019,1.9808,1.958,1.9369,1.9259,1.9222,1.9053,1.906,1.9199,1.9264,1.9422,1.9468,1.9519,1.9606,1.957,1.9229,1.8874,1.8608,1.8805,1.9148,1.9383,1.9667,2.0091,2.0438,2.0691,2.0943,2.1401,2.1757,2.1961,2.2166,2.2318,2.2465,2.273,2.2859,2.2944,2.3045,2.3144,2.3217,2.3256,2.3292,2.3289,2.323,2.2823,2.2316,2.1783,2.1049,2.0258,1.9481,1.8996,1.8756,1.8704,1.8713,1.8779,2.0777,2.0753,2.0636,2.0569,2.0527,2.0494,2.0457,2.04,2.0628,2.0678,2.0639,2.0935,2.131,2.1507,2.1649,2.1645,2.1507,2.1324,2.1095,2.0844,2.0728,2.0603,2.0535,2.046,2.0512,2.0671,2.0687,2.0778,2.1095,2.1332,2.1332,2.1425,2.1617,2.1724,2.1746,2.1878,2.1961,2.1902,2.189,2.1878,2.1882,2.2015,2.2138,2.2415,2.2409,2.2379,2.2478,2.2678,2.2789,2.2754,2.3074,2.3126,2.2986,2.291,2.2808,2.265,2.247,2.2147,2.1697,2.1393,2.095,2.0622,2.0455,2.0277,2.0139,2.0042,1.9992,2.0054,2.0158,2.0319,2.0486,2.0395,2.0379,2.0371,2.0356,2.0348,2.0272,2.0272,2.0162,1.9806,1.9922,1.996,2.0085,2.0239,2.0534,2.0868,2.1111,2.1357,2.167,2.1995,2.2245,2.2445,2.2597,2.2756,2.2944,2.3011,2.3086,2.3144,2.3241,2.3321,2.3369,2.3383,2.3369,2.3345,2.3159,2.2689,2.2146,2.1647,2.0993,2.0209,1.975,1.9281,1.91,1.8956,1.8887,2.0654,2.0538,2.0769,2.0802,2.0745,2.0852,2.0934,2.0934,2.1118,2.1238,2.1381,2.1584,2.1768,2.1944,2.2091,2.1985,2.1735,2.1425,2.1238,2.1038,2.0982,2.0901,2.0794,2.072,2.0811,2.095,2.095,2.0942,2.1127,2.1198,2.1238,2.119,2.1417,2.1587,2.167,2.1705,2.1675,2.1579,2.1493,2.1399,2.1397,2.165,2.1995,2.2073,2.2198,2.2273,2.2345,2.2499,2.2606,2.2668,2.291,2.2936,2.291,2.2919,2.2893,2.2729,2.2579,2.2324,2.1903,2.1697,2.1454,2.0999,2.0958,2.0878,2.0665,2.0558,2.055,2.0608,2.0748,2.0845,2.0811,2.0958,2.0958,2.0934,2.1015,2.1039,2.1047,2.1182,2.1055,2.0862,2.0723,2.0673,2.0648,2.0827,2.1037,2.1295,2.1567,2.1806,2.2013,2.2288,2.2563,2.2703,2.2885,2.302,2.3153,2.3193,2.3232,2.328,2.3336,2.3415,2.3471,2.3508,2.3513,2.3526,2.3252,2.3021,2.2667,2.22,2.1571,2.0925,2.021,1.9644,1.9378,1.92,1.9147,2.061,2.0353,2.0925,2.1087,2.0999,2.1198,2.1323,2.1419,2.1521,2.1652,2.1871,2.2037,2.2113,2.2141,2.2203,2.2143,2.1768,2.1442,2.1294,2.1151,2.1175,2.1159,2.103,2.099,2.0974,2.0966,2.1119,2.1166,2.1055,2.1198,2.1143,2.1198,2.1301,2.1464,2.1601,2.1615,2.136,2.1149,2.1094,2.0975,2.0999,2.1438,2.1789,2.1781,2.1944,2.2002,2.199,2.2133,2.2234,2.2398,2.2605,2.2773,2.2756,2.291,2.2995,2.2859,2.2685,2.2426,2.2186,2.2064,2.1832,2.1386,2.1509,2.1385,2.1267,2.1165,2.1094,2.1054,2.1228,2.1306,2.1268,2.1356,2.1419,2.1456,2.1593,2.1759,2.1749,2.1839,2.192,2.1718,2.1507,2.1376,2.1337,2.1298,2.1487,2.171,2.1968,2.2216,2.2444,2.2693,2.2918,2.3028,2.3168,2.325,2.3354,2.3401,2.3439,2.3444,2.3499,2.3553,2.3598,2.3643,2.3647,2.3651,2.3607,2.3379,2.3073,2.2817,2.2327,2.1639,2.0662,2.0195,2.0198,1.9838,1.9543,2.0764,2.0753,2.0869,2.1023,2.1158,2.1277,2.1339,2.1452,2.1718,2.1799,2.1865,2.215,2.2251,2.213,2.2172,2.2007,2.1814,2.1686,2.1481,2.1215,2.1238,2.1119,2.0893,2.103,2.0834,2.0815,2.0964,2.1039,2.098,2.1295,2.1402,2.1269,2.1409,2.1691,2.1417,2.1378,2.1291,2.0951,2.1063,2.1175,2.1276,2.1623,2.1631,2.1509,2.1479,2.1554,2.1593,2.1735,2.1878,2.2148,2.2523,2.2703,2.2764,2.302,2.3119,2.3045,2.2919,2.2721,2.2453,2.2315,2.213,2.1802,2.1823,2.1823,2.1786,2.182,2.182,2.1794,2.1928,2.1949,2.1815,2.1865,2.1915,2.1978,2.2096,2.2222,2.2286,2.2285,2.2409,2.2489,2.2234,2.2096,2.2002,2.1956,2.1968,2.2163,2.2373,2.2625,2.2837,2.3049,2.3193,2.3289,2.3336,2.3415,2.3517,2.3562,2.3553,2.3589,2.3634,2.3665,2.3687,2.3709,2.3756,2.3768,2.3765,2.3765,2.3543,2.3284,2.3015,2.2484,2.1674,2.1367,2.1261,2.0761,2.0129,2.0781,2.0662,2.1119,2.1246,2.1262,2.1487,2.1713,2.1836,2.2081,2.2186,2.2262,2.2489,2.2543,2.2362,2.2183,2.1982,2.1878,2.1789,2.1565,2.1262,2.1222,2.1039,2.0722,2.0589,2.0433,2.0424,2.0466,2.055,2.0708,2.0934,2.1047,2.0843,2.1007,2.1127,2.1103,2.0991,2.0853,2.0755,2.0803,2.095,2.1111,2.134,2.1464,2.1363,2.1379,2.1402,2.1518,2.1579,2.2029,2.2484,2.3011,2.3436,2.3746,2.3885,2.3819,2.3597,2.3296,2.2944,2.2556,2.249,2.229,2.2096,2.2076,2.2231,2.226,2.2279,2.2298,2.2251,2.2268,2.2296,2.2324,2.2299,2.2332,2.24,2.2494,2.2559,2.2644,2.272,2.2782,2.2902,2.2954,2.2773,2.2599,2.2537,2.2493,2.2538,2.2755,2.3014,2.3153,2.3262,2.3401,2.3503,2.3517,2.3553,2.3629,2.3696,2.3665,2.3678,2.3709,2.373,2.373,2.3743,2.381,2.385,2.3886,2.3877,2.3882,2.3735,2.3446,2.3103,2.2752,2.245,2.2112,2.1523,2.1062,2.0907,2.0753,2.1411,2.1612,2.1511,2.1945,2.2133,2.22,2.2381,2.248,2.2561,2.2624,2.2614,2.256,2.2231,2.2023,2.1957,2.1832,2.1579,2.1394,2.1198,2.0966,2.0652,2.0362,2.0099,1.9839,2.0008,2.0124,2.0317,2.0518,2.0633,2.0481,2.0931,2.0901,2.0801,2.0728,2.0654,2.0704,2.0712,2.0819,2.1023,2.1183,2.134,2.1363,2.1355,2.1402,2.1595,2.1625,2.2076,2.2854,2.3291,2.3775,2.4425,2.4716,2.4738,2.4535,2.4173,2.367,2.3252,2.2946,2.2508,2.2345,2.2292,2.2489,2.2614,2.2614,2.2605,2.2624,2.2552,2.2579,2.2614,2.262,2.2631,2.2695,2.2794,2.2867,2.2929,2.3063,2.3142,2.3214,2.3265,2.3265,2.3142,2.3102,2.3036,2.2995,2.3144,2.3383,2.3462,2.3508,2.3567,2.3643,2.3656,2.3669,2.3712,2.3756,2.3756,2.3756,2.3795,2.3807,2.3777,2.3789,2.3843,2.39,2.3987,2.4072,2.4125,2.4008,2.3881,2.3624,2.3397,2.3217,2.2855,2.23,2.1853,2.1142,2.1277,2.1713,2.204,2.2217,2.2516,2.2581,2.252,2.2556,2.2564,2.2501,2.2362,2.2369,2.2405,2.2396,2.2147,2.1878,2.1998,2.1743,2.1456,2.1254,2.0949,2.0623,2.0322,2.0042,1.9595,1.9719,1.9905,2.0109,2.0599,2.0718,2.0849,2.1157,2.1111,2.0905,2.0689,2.0677,2.072,2.0794,2.0974,2.1206,2.1363,2.1448,2.1471,2.1386,2.1332,2.1417,2.1509,2.2114,2.2996,2.3515,2.4327,2.5227,2.5631,2.5804,2.5694,2.5018,2.4622,2.4386,2.3451,2.2877,2.2771,2.2787,2.2858,2.2981,2.2816,2.2851,2.3006,2.2868,2.2782,2.2842,2.2903,2.3119,2.3261,2.3445,2.3493,2.3522,2.3463,2.3534,2.3558,2.354,2.3504,2.3476,2.3374,2.3313,2.3241,2.3333,2.354,2.3647,2.3691,2.3716,2.3759,2.3771,2.3783,2.3783,2.3804,2.3801,2.3801,2.3822,2.3813,2.3795,2.3837,2.3926,2.4023,2.4129,2.4238,2.4338,2.4284,2.422,2.4163,2.4015,2.3796,2.3695,2.3369,2.277,2.1602,2.202,2.2522,2.2609,2.251,2.2883,2.3023,2.2931,2.2864,2.2738,2.2616,2.236,2.2405,2.2587,2.2569,2.2497,2.239,2.2345,2.1961,2.1493,2.1175,2.0806,2.0468,2.0246,1.9943,1.9899,2.0026,2.0378,2.0844,2.1069,2.1413,2.1625,2.1538,2.1144,2.0898,2.0747,2.0681,2.0818,2.0974,2.1191,2.1355,2.1556,2.1639,2.1735,2.1556,2.1664,2.1844,2.1869,2.2705,2.3667,2.4313,2.5307,2.6316,2.6776,2.6901,2.6841,2.6008,2.5604,2.5375,2.4177,2.3022,2.3024,2.3267,2.3563,2.3563,2.3536,2.3554,2.3484,2.3172,2.3032,2.3114,2.3602,2.4056,2.4141,2.4179,2.4212,2.4163,2.41,2.392,2.3929,2.3781,2.3664,2.3638,2.3589,2.3553,2.3508,2.3616,2.3698,2.3792,2.3843,2.3876,2.3896,2.3887,2.389,2.389,2.3878,2.3846,2.3867,2.3908,2.3887,2.3908,2.3967,2.4063,2.4159,2.4293,2.4419,2.4519,2.4572,2.4524,2.4417,2.4356,2.4291,2.4266,2.4269,2.3708,2.2163,2.2726,2.3276,2.3257,2.3012,2.3323,2.3423,2.3314,2.3189,2.2958,2.2712,2.2487,2.2533,2.2738,2.2816,2.272,2.2685,2.2535,2.2169,2.1787,2.1424,2.1023,2.0715,2.0608,2.067,2.0614,2.0526,2.0736,2.1541,2.1903,2.2264,2.2307,2.2008,2.1766,2.1248,2.0903,2.0744,2.1012,2.1037,2.1302,2.1487,2.1556,2.1806,2.1928,2.1857,2.1924,2.2264,2.2539,2.3397,2.4485,2.5455,2.6524,2.7467,2.8057,2.8045,2.7662,2.7176,2.6576,2.6255,2.5023,2.377,2.4039,2.3928,2.42,2.4339,2.4313,2.4025,2.432,2.3781,2.3335,2.3571,2.43,2.4613,2.4651,2.5064,2.513,2.4965,2.4838,2.4526,2.4319,2.4075,2.3756,2.3783,2.375,2.3756,2.3712,2.3725,2.3825,2.3919,2.3989,2.4018,2.4037,2.4037,2.4019,2.402,2.3999,2.4018,2.4078,2.4078,2.4036,2.4045,2.4122,2.4198,2.432,2.4459,2.4615,2.4682,2.4695,2.4654,2.4607,2.4575,2.4559,2.4632,2.4571,2.4289,2.2838,2.3347,2.3921,2.3966,2.3653,2.3816,2.3774,2.3553,2.3423,2.3162,2.2833,2.2773,2.2756,2.2833,2.3028,2.3003,2.285,2.2721,2.2428,2.2103,2.1859,2.1705,2.167,2.16,2.1641,2.1326,2.1424,2.1766,2.2311,2.2401,2.2903,2.3507,2.3466,2.2894,2.2049,2.1393,2.1312,2.1514,2.1215,2.1439,2.1793,2.182,2.1945,2.2155,2.2195,2.2279,2.2557,2.3002,2.3872,2.5066,2.5932,2.7047,2.8241,2.8817,2.9037,2.9157,2.86,2.825,2.8044,2.5959,2.5266,2.514,2.4736,2.4742,2.512,2.4936,2.4555,2.4984,2.4468,2.4156,2.4493,2.4998,2.5126,2.5377,2.5806,2.6014,2.5831,2.5443,2.5109,2.4715,2.4214,2.3831,2.3885,2.391,2.3937,2.3935,2.3894,2.3946,2.4048,2.4078,2.4106,2.4108,2.4108,2.4135,2.4126,2.4163,2.4191,2.4238,2.4238,2.4172,2.4171,2.4247,2.4349,2.446,2.4574,2.4686,2.4753,2.4793,2.4789,2.4779,2.4779,2.4779,2.487,2.4755,2.4367,2.3391,2.38,2.4263,2.4301,2.4067,2.4048,2.3881,2.3584,2.3344,2.31,2.2977,2.2969,2.3107,2.3218,2.3289,2.333,2.3268,2.304,2.2806,2.2257,2.2213,2.2134,2.2195,2.2498,2.2806,2.3115,2.3145,2.3282,2.4069,2.3638,2.398,2.4631,2.4719,2.3957,2.2983,2.2448,2.2607,2.2802,2.2508,2.2361,2.2824,2.2522,2.2362,2.2632,2.2571,2.2669,2.291,2.3378,2.4335,2.5544,2.6426,2.746,2.8699,2.935,2.9561,2.9573,2.9086,2.8537,2.8273,2.7204,2.6355,2.5837,2.5439,2.5305,2.5278,2.5607,2.56,2.5433,2.5,2.4672,2.4687,2.5614,2.5998,2.624,2.6595,2.6785,2.6664,2.6092,2.5637,2.5172,2.4695,2.4492,2.4438,2.4644,2.468,2.445,2.4412,2.412,2.4113,2.4144,2.4173,2.4164,2.4173,2.422,2.4257,2.4284,2.4303,2.4348,2.4348,2.4284,2.4312,2.4403,2.4485,2.4603,2.4687,2.4753,2.4802,2.4865,2.4945,2.4953,2.4916,2.4892,2.4936,2.4638,2.4141,2.3905,2.4173,2.4411,2.4291,2.4002,2.401,2.384,2.3433,2.2932,2.2797,2.303,2.295,2.311,2.3436,2.3631,2.3662,2.3689,2.3387,2.3078,2.2532,2.2702,2.2705,2.2875,2.3313,2.3966,2.4508,2.4668,2.4867,2.5291,2.5052,2.5248,2.5708,2.5906,2.5373,2.4501,2.4164,2.3715,2.3679,2.3239,2.2983,2.3129,2.3007,2.2824,2.2917,2.3009,2.3107,2.3407,2.3995,2.4806,2.6058,2.7111,2.7975,2.9137,2.9662,2.9855,2.9741,2.9579,2.9125,2.8933,2.832,2.7401,2.6535,2.632,2.6197,2.6006,2.6199,2.6161,2.5942,2.5422,2.5222,2.5287,2.6226,2.6727,2.6956,2.7315,2.7529,2.7671,2.7118,2.6609,2.608,2.554,2.5333,2.5244,2.5354,2.5546,2.5222,2.4926,2.4598,2.4273,2.4256,2.4284,2.4288,2.431,2.4396,2.4408,2.4381,2.4426,2.4462,2.4445,2.4393,2.4472,2.4558,2.4657,2.4727,2.4758,2.4787,2.486,2.4927,2.4954,2.4989,2.4993,2.4984,2.5001,2.4573,2.4033,2.4422,2.4469,2.4342,2.3978,2.3559,2.3584,2.3494,2.3206,2.2318,2.25,2.3353,2.2771,2.3106,2.3771,2.391,2.3959,2.3932,2.357,2.3245,2.3119,2.3215,2.3276,2.3662,2.4271,2.4874,2.5241,2.5547,2.5906,2.6288,2.6221,2.6416,2.6659,2.6884,2.6625,2.6182,2.5783,2.5171,2.4802,2.3946,2.3749,2.371,2.3258,2.3188,2.3248,2.3364,2.3598,2.4091,2.4967,2.6011,2.7128,2.8226,2.9083,2.9715,2.9984,3.0095,3.0157,3.0129,2.996,2.972,2.8978,2.8548,2.7801,2.7398,2.753,2.7213,2.6685,2.6547,2.6405,2.6061,2.5939,2.5994,2.6601,2.7217,2.7624,2.805,2.8352,2.8677,2.8355,2.7868,2.7307,2.6682,2.6429,2.6522,2.6608,2.6399,2.6062,2.5693,2.5211,2.4855,2.4413,2.4453,2.4465,2.4514,2.4607,2.4594,2.4559,2.4575,2.4635,2.4571,2.4554,2.4638,2.467,2.4704,2.4754,2.4791,2.4836,2.4898,2.4918,2.4927,2.4972,2.5028,2.5069,2.507,2.451,2.3996,2.4137,2.4128,2.4044,2.365,2.2988,2.2191,2.2202,2.2788,2.2768,2.314,2.3608,2.3707,2.386,2.4371,2.44,2.4284,2.4145,2.3932,2.3597,2.3476,2.3479,2.3686,2.4099,2.4664,2.5454,2.6168,2.6631,2.6909,2.7329,2.7375,2.7125,2.7089,2.7551,2.7634,2.759,2.7549,2.69,2.6132,2.4977,2.4645,2.4449,2.4093,2.3912,2.3813,2.3909,2.4248,2.5045,2.5524,2.6563,2.8065,2.8482,2.9105,2.9973,3.0155,3.027,3.0319,3.0253,3.0131,2.9979,2.9531,2.9102,2.8847,2.8354,2.7477,2.7129,2.69,2.6762,2.6619,2.6555,2.64,2.6505,2.7021,2.7558,2.7969,2.8412,2.8818,2.9107,2.9038,2.8544,2.8033,2.7433,2.739,2.7534,2.7514,2.7276,2.6931,2.6506,2.6017,2.5364,2.4886,2.4515,2.4526,2.4598,2.4651,2.4759,2.4764,2.4764,2.4779,2.4713,2.4676,2.4701,2.4732,2.4734,2.4764,2.4798,2.487,2.4955,2.495,2.4931,2.5008,2.5085,2.5113,2.5027,2.4493,2.412,2.3329,2.3273,2.2962,2.2436,2.1767,2.1003,2.1241,2.2133,2.2265,2.28,2.383,2.3914,2.4281,2.4733,2.4704,2.4611,2.4512,2.4265,2.3934,2.362,2.3606,2.4059,2.4494,2.5097,2.5987,2.6799,2.7422,2.7708,2.8111,2.8228,2.8038,2.7745,2.8103,2.8148,2.8103,2.7967,2.8027,2.7378,2.6664,2.606,2.5592,2.5257,2.5011,2.4826,2.4887,2.5378,2.6015,2.6302,2.7488,2.8662,2.885,2.9489,3.019,3.0326,3.0383,3.0417,3.0316,3.0209,3.0042,2.981,2.957,2.9303,2.8868,2.8126,2.7515,2.7204,2.7003,2.6807,2.6808,2.6808,2.7098,2.7413,2.7821,2.8249,2.8714,2.9172,2.9321,2.9437,2.906,2.8586,2.8339,2.826,2.8263,2.827,2.8193,2.791,2.7534,2.7037,2.611,2.5145,2.4684,2.4465,2.4566,2.466,2.4783,2.4861,2.4861,2.4832,2.4793,2.4747,2.4772,2.4778,2.4803,2.4794,2.4784,2.4851,2.4903,2.4936,2.4945,2.5012,2.5082,2.5129,2.4981,2.4533,2.4255,2.2249,2.2226,2.1538,2.1139,2.0384,2.0387,2.0897,2.1526,2.1476,2.2246,2.3878,2.3855,2.4305,2.4942,2.4946,2.4917,2.4785,2.4548,2.4237,2.3826,2.3862,2.427,2.4945,2.5609,2.6338,2.7189,2.7851,2.8174,2.8516,2.8642,2.8583,2.8466,2.85,2.8518,2.8471,2.8261,2.8355,2.854,2.7981,2.7416,2.6868,2.6659,2.6629,2.6624,2.6674,2.6888,2.7328,2.7956,2.8713,2.9108,2.9563,3.0199,3.0365,3.0446,3.0489,3.0426,3.0338,3.0232,3.0061,2.9846,2.9654,2.9362,2.8994,2.8535,2.8058,2.7522,2.7264,2.717,2.7178,2.7344,2.7645,2.8005,2.8421,2.8785,2.92,2.9541,2.9721,2.9726,2.9457,2.908,2.8997,2.896,2.9077,2.9111,2.9039,2.8847,2.8317,2.7789,2.7119,2.5882,2.5231,2.4776,2.4592,2.4707,2.4779,2.4851,2.4865,2.4847,2.4861,2.4807,2.4783,2.4827,2.4856,2.4856,2.4856,2.4817,2.4845,2.4884,2.4922,2.4972,2.5044,2.512,2.4922,2.4629,2.4572,2.177,2.1805,2.1962,2.175,2.1387,2.1443,2.1939,2.2753,2.2644,2.3161,2.4138,2.4605,2.4902,2.5183,2.5201,2.5149,2.5,2.4793,2.4504,2.4182,2.4064,2.4489,2.5217,2.5676,2.6531,2.7497,2.8147,2.8525,2.8791,2.8872,2.8896,2.8848,2.8834,2.881,2.8815,2.8621,2.8904,2.9269,2.9057,2.8525,2.795,2.728,2.698,2.7063,2.7137,2.7669,2.8105,2.8559,2.9304,2.9896,3.0184,3.0452,3.054,3.052,3.051,3.045,3.0307,3.0209,3.0085,2.9853,2.9598,2.9442,2.9169,2.8924,2.8498,2.7934,2.7616,2.761,2.7663,2.7912,2.8207,2.8631,2.9001,2.9336,2.9652,2.9883,3.0109,2.9926,2.9757,2.9664,2.9589,2.9672,2.9778,2.9827,2.9822,2.9361,2.8649,2.8147,2.7923,2.7084,2.6298,2.5721,2.4834,2.4773,2.4817,2.4856,2.4893,2.4953,2.4985,2.4922,2.4818,2.4808,2.4808,2.4913,2.4932,2.4865,2.4826,2.4837,2.4894,2.4935,2.5015,2.511,2.5222,2.5023,2.5023,2.1011,2.1108,2.1155,2.1213,2.1225,2.1315,2.2044,2.3033,2.3297,2.3834,2.459,2.5084,2.5363,2.5418,2.5386,2.5314,2.5167,2.4977,2.4676,2.44,2.4303,2.4647,2.5186,2.5793,2.6696,2.7648,2.8379,2.8825,2.8975,2.8984,2.8984,2.8984,2.8984,2.9021,2.9071,2.9218,2.9377,2.9626,2.9653,2.9389,2.892,2.8468,2.8234,2.8226,2.8421,2.8787,2.9046,2.9444,2.9824,3.0265,3.0452,3.0559,3.0605,3.0587,3.053,3.0461,3.0333,3.0186,3.0076,2.986,2.957,2.9472,2.9234,2.8938,2.8901,2.8403,2.835,2.8314,2.8174,2.8348,2.8814,2.9218,2.949,2.9815,2.999,3.0155,3.0147,2.999,2.9806,2.9654,2.9635,2.9716,2.9829,2.9953,2.994,2.9918,2.9187,2.8886,2.8606,2.8203,2.7455,2.6669,2.5806,2.5001,2.4803,2.487,2.4921,2.5002,2.5095,2.5015,2.4912,2.4798,2.4755,2.4884,2.4931,2.4875,2.4842,2.4842,2.4865,2.4921,2.5003,2.5111,2.523,2.5351,2.5331,2.0257,2.0421,2.0477,2.0584,2.0896,2.1235,2.2154,2.3324,2.3774,2.4363,2.5045,2.538,2.5549,2.5541,2.5491,2.5412,2.5289,2.511,2.4831,2.4631,2.442,2.4829,2.5381,2.603,2.7022,2.7894,2.8682,2.8925,2.9044,2.903,2.903,2.9007,2.9021,2.9048,2.9175,2.9325,2.9494,2.9732,2.9853,2.9984,2.989,2.9834,2.9657,2.9737,2.994,3.0056,3.0205,3.0316,3.0409,3.0481,3.0559,3.0613,3.0657,3.064,3.0568,3.0491,3.0375,3.027,3.0151,2.9876,2.9726,2.957,2.924,2.9119,2.911,2.9091,2.9033,2.8973,2.8833,2.8918,2.9382,2.9723,2.9975,3.0157,3.028,3.0326,3.0199,3.0056,2.9876,2.969,2.9751,2.982,2.9874,3.0002,2.9973,2.999,2.994,2.9779,2.9503,2.9006,2.8386,2.7606,2.678,2.6007,2.5234,2.4884,2.4957,2.5057,2.5132,2.5067,2.4993,2.486,2.4813,2.4879,2.4911,2.4842,2.4837,2.4837,2.4875,2.4911,2.5009,2.5126,2.5264,2.5377,2.548,2.0133,2.0572,2.2489,2.2927,2.2518,2.3603,2.4457,2.471,2.4869,2.5153,2.5322,2.5484,2.5603,2.5603,2.5587,2.5512,2.5389,2.5231,2.5147,2.4989,2.4693,2.5038,2.5569,2.6223,2.7481,2.8415,2.9058,2.9141,2.916,2.9112,2.9076,2.9089,2.9021,2.9084,2.923,2.9397,2.9616,2.9851,3.0025,3.0128,3.0166,3.0118,3.0104,3.0147,3.0221,3.0316,3.041,3.0472,3.0539,3.0611,3.0645,3.0671,3.068,3.0674,3.0614,3.052,3.0406,3.0314,3.0165,2.9965,2.9846,2.9779,2.957,2.9551,2.9542,2.9561,2.956,2.9676,2.9585,2.9567,2.9905,3.0135,3.0358,3.0394,3.0472,3.0382,3.0244,3.0117,2.9984,2.9928,2.9934,2.9924,2.9898,2.9856,2.9608,2.9646,2.964,2.9486,2.9241,2.9178,2.9136,2.8367,2.7521,2.6855,2.6009,2.512,2.4996,2.5103,2.517,2.5133,2.5052,2.4913,2.4898,2.4919,2.4856,2.4787,2.4787,2.4826,2.4894,2.493,2.5022,2.5141,2.5283,2.5403,2.5499]},{"header":{"parameterUnit":"m.s-1","parameterCategory":1,"la1":31.0,"la2":29.5877,"lo1":-88.7671,"lo2":-86.6584,"dy":0.0162,"dx":0.0185,"nx":115,"ny":88,"refTime":"2023-09-13T12:00:00:Z","depth":0,"parameterNumber":3,"parameterNumberName":"V-component_of_WINDS"},"data":[0.0,0.0,0.0,0.0,0.0,0.0,0.0,0.0,0.0,0.0,0.0,0.0,0.0,0.0,0.0,0.0,0.0,0.0,0.0,0.0,0.0,0.0,0.0,0.0,0.0,0.0,0.0,0.0,0.0,0.0,0.0,0.0,0.0,0.0,0.0,0.0,0.0,0.0,0.0,0.0,0.0,0.0,0.0,0.0,0.0,0.0,0.0,0.0,0.0,0.0,0.0,0.0,0.0,0.0,0.0,0.0,0.0,0.0,0.0,0.0,0.0,0.0,0.0,0.0,0.0,0.0,0.0,0.0,0.0,0.0,0.0,0.0,0.0,0.0,0.0,0.0,0.0,0.0,0.0,0.0,0.0,0.0,0.0,0.0,0.0,0.0,0.0,0.0,0.0,0.0,0.0,0.0,0.0,0.0,0.0,0.0,0.0,0.0,0.0,0.0,0.0,0.0,0.0,0.0,0.0,0.0,0.0,0.0,0.0,0.0,0.0,0.0,0.0,0.0,0.0,0.0,0.0,0.0,0.0,0.0,0.0,0.0,0.0,0.0,0.0,0.0,0.0,0.0,0.0,0.0,0.0,0.0,0.0,0.0,0.0,0.0,0.0,0.0,0.0,0.0,0.0,0.0,0.0,0.0,0.0,0.0,0.0,0.0,0.0,0.0,0.0,0.0,0.0,0.0,0.0,0.0,0.0,0.0,0.0,0.0,0.0,0.0,0.0,0.0,0.0,0.0,0.0,0.0,0.0,0.0,0.0,0.0,0.0,0.0,0.0,0.0,0.0,0.0,0.0,0.0,0.0,0.0,0.0,0.0,0.0,0.0,0.0,0.0,0.0,0.0,0.0,0.0,0.0,0.0,0.0,0.0,0.0,0.0,0.0,0.0,0.0,0.0,0.0,0.0,0.0,0.0,0.0,0.0,0.0,0.0,0.0,0.0,0.0,0.0,0.0,0.0,0.0,0.0,0.0,0.0,0.0,0.0,0.0,0.0,0.0,0.0,0.0,0.0,0.0,0.0,0.0,0.0,0.0,0.0,0.0,0.0,0.0,0.0,0.0,0.0,0.0,0.0,0.0,0.0,0.0,0.0,0.0,0.0,0.0,0.0,0.0,0.0,0.0,0.0,0.0,0.0,0.0,0.0,0.0,0.0,0.0,0.0,0.0,0.0,0.0,0.0,0.0,0.0,0.0,0.0,0.0,0.0,0.0,0.0,0.0,0.0,0.0,0.0,0.0,0.0,0.0,0.0,0.0,0.0,0.0,0.0,0.0,0.0,0.0,0.0,0.0,0.0,0.0,0.0,0.0,0.0,0.0,0.0,0.0,0.0,0.0,0.0,0.0,0.0,0.0,0.0,0.0,0.0,0.0,0.0,0.0,0.0,0.0,0.0,0.0,0.0,0.0,0.0,0.0,0.0,0.0,0.0,0.0,0.0,0.0,0.0,0.0,0.0,0.0,0.0,0.0,0.0,0.0,0.0,0.0,0.0,0.0,0.0,0.0,0.0,0.0,0.0,0.0,0.0,0.0,0.0,0.0,0.0,0.0,0.0,0.0,0.0,0.0,0.0,0.0,0.0,0.0,0.0,0.0,0.0,0.0,0.0,0.0,0.0,0.0,0.0,0.0,0.0,0.0,0.0,0.0,0.0,0.0,0.0,0.0,0.0,0.0,0.0,0.0,0.0,0.0,0.0,0.0,0.0,0.0,0.0,0.0,0.0,0.0,0.0,0.0,0.0,0.0,0.0,0.0,0.0,0.0,0.0,0.0,0.0,0.0,0.0,0.0,0.0,0.0,0.0,0.0,0.0,0.0,0.0,0.0,0.0,0.0,0.0,0.0,0.0,0.0,0.0,0.0,0.0,0.0,0.0,0.0,0.0,0.0,0.0,0.0,0.0,0.0,0.0,0.0,0.0,0.0,0.0,0.0,0.0,0.0,0.0,0.0,0.0,0.0,0.0,0.0,0.0,0.0,0.0,0.0,0.0,0.0,0.0,0.0,0.0,0.0,0.0,0.0,0.0,0.0,0.0,0.0,0.0,0.0,0.0,0.0,0.0,0.0,0.0,0.0,0.0,0.0,0.0,0.0,0.0,0.0,0.0,0.0,0.0,0.0,0.0,0.0,0.0,0.0,0.0,0.0,0.0,0.0,0.0,0.0,0.0,0.0,0.0,0.0,0.0,0.0,0.0,0.0,0.0,0.0,0.0,0.0,0.0,0.0,0.0,0.0,0.0,0.0,0.0,0.0,0.0,0.0,0.0,0.0,0.0,0.0,0.0,0.0,0.0,0.0,0.0,0.0,0.0,0.0,0.0,0.0,0.0,0.0,0.0,0.0,0.0,0.0,0.0,0.0,0.0,0.0,0.0,0.0,0.0,0.0,0.0,0.0,0.0,0.0,0.0,0.0,0.0,0.0,0.0,0.0,0.0,0.0,0.0,0.0,0.0,0.0,0.0,0.0,0.0,0.0,0.0,0.0,0.0,0.0,0.0,0.0,0.0,0.0,0.0,0.0,0.0,0.0,0.0,0.0,0.0,0.0,0.0,0.0,0.0,0.0,0.0,0.0,0.0,0.0,0.0,0.0,0.0,0.0,0.0,0.0,0.0,0.0,0.0,0.0,0.0,0.0,0.0,0.0,0.0,0.0,0.0,0.0,0.0,0.0,0.0,0.0,0.0,0.0,0.0,0.0,0.0,0.0,0.0,0.0,0.0,0.0,0.0,0.0,0.0,0.0,0.0,0.0,0.0,0.0,0.0,0.0,0.0,0.0,0.0,0.0,0.0,0.0,0.0,0.0,0.0,0.0,0.0,0.0,0.0,0.0,0.0,0.0,0.0,0.0,0.0,0.0,0.0,0.0,0.0,0.0,0.0,0.0,0.0,0.0,0.0,0.0,0.0,0.0,0.0,0.0,0.0,0.0,0.0,0.0,0.0,0.0,0.0,0.0,0.0,0.0,0.0,0.0,0.0,0.0,0.0,0.0,0.0,0.0,0.0,0.0,0.0,0.0,0.0,0.0,0.0,0.0,0.0,0.0,0.0,0.0,0.0,0.0,0.0,0.0,0.0,0.0,0.0,0.0,0.0,0.0,0.0,0.0,0.0,0.0,0.0,0.0,0.0,0.0,0.0,0.0,0.0,0.0,0.0,0.0,0.0,0.0,0.0,0.0,0.0,0.0,0.0,0.0,0.0,0.0,0.0,0.0,0.0,0.0,0.0,0.0,0.0,0.0,0.0,0.0,0.0,0.0,0.0,0.0,0.0,0.0,0.0,0.0,0.0,0.0,0.0,0.0,0.0,0.0,0.0,0.0,0.0,0.0,0.0,0.0,0.0,0.0,0.0,0.0,0.0,0.0,0.0,0.0,0.0,0.0,0.0,0.0,0.0,0.0,0.0,0.0,0.0,0.0,0.0,0.0,0.0,0.0,0.0,0.0,0.0,0.0,0.0,0.0,0.0,0.0,0.0,0.0,0.0,0.0,0.0,0.0,0.0,0.0,0.0,0.0,0.0,0.0,0.0,0.0,0.0,0.0,0.0,0.0,0.0,0.0,0.0,0.0,0.0,0.0,0.0,0.0,0.0,0.0,0.0,0.0,0.0,0.0,0.0,0.0,0.0,0.0,0.0,0.0,0.0,0.0,0.0,0.0,0.0,0.0,0.0,0.0,0.0,0.0,0.0,0.0,0.0,0.0,0.0,0.0,0.0,0.0,0.0,0.0,0.0,0.0,0.0,0.0,0.0,0.0,0.0,0.0,0.0,0.0,0.0,0.0,0.0,0.0,0.0,0.0,0.0,0.0,0.0,0.0,0.0,0.0,0.0,0.0,0.0,0.0,0.0,0.0,0.0,0.0,0.0,0.0,0.0,0.0,0.0,0.0,0.0,0.0,0.0,0.0,0.0,0.0,0.0,0.0,0.0,0.0,0.0,0.0,0.0,0.0,0.0,0.0,0.0,0.0,0.0,0.0,0.0,0.0,0.0,0.0,0.0,0.0,0.0,0.0,0.0,0.0,0.0,0.0,0.0,0.0,0.0,0.0,0.0,0.0,0.0,0.0,0.0,0.0,0.0,0.0,0.0,0.0,0.0,0.0,0.0,0.0,0.0,0.0,0.0,0.0,0.0,0.0,0.0,0.0,0.0,0.0,0.0,0.0,0.0,0.0,0.0,0.0,0.0,0.0,0.0,0.0,0.0,0.0,0.0,0.0,0.0,0.0,0.0,0.0,0.0,0.0,0.0,0.0,0.0,0.0,0.0,0.0,0.0,0.0,0.0,0.0,0.0,0.3579,0.0,0.0,0.0,0.0,0.0,0.0,0.0,0.0,0.0,0.0,0.0,0.0,0.0,0.0,0.0,0.0,0.0,0.0,0.0,0.0,0.0,0.0,0.0,0.0,0.0,0.0,0.0,0.0,0.0,0.0,0.0,0.0,0.0,0.0,0.0,0.0,0.0,0.0,0.0,0.0,0.0,0.0,0.0,0.0,0.0,0.0,0.0,0.0,0.0,0.0,0.0,0.0,0.0,0.0,0.0,0.0,0.0,0.0,0.0,0.0,0.0,0.0,0.0,0.0,0.0,0.0,0.0,0.0,0.0,0.0,0.0,0.0,0.0,0.0,0.0,0.0,0.0,0.0,0.0,0.0,0.0,0.0,0.0,0.0,0.0,0.0,0.0,0.0,0.0,0.0,0.0,0.0,0.0,0.0,0.0,0.0,0.0,0.0,0.0,0.0,0.0,0.0,0.0,0.0,0.0,0.0,0.0,0.0,0.0,0.0,0.5712,0.5305,0.5385,0.481,0.3634,0.0,0.0,0.0,0.0,0.0,0.0,0.0,0.0,0.0,0.0,0.0,0.0,0.0,0.0,0.0,0.0,0.0,0.0,0.0,0.0,0.0,0.0,0.0,0.0,0.0,0.0,0.0,0.0,0.0,0.0,0.0,0.0,0.0,0.0,0.0,0.0,0.0,0.0,0.0,0.0,0.0,0.0,0.0,0.0,0.0,0.0,0.0,0.0,0.0,0.0,0.0,0.0,0.0,0.0,0.0,0.0,0.0,0.0,0.0,0.0,0.0,0.0,0.0,0.0,0.0,0.0,0.0,0.0,0.0,0.0,0.0,0.0,0.0,0.0,0.0,0.0,0.0,0.0,0.0,0.0,0.0,0.0,0.0,0.0,0.0,0.0,0.0,0.0,0.0,0.0,0.0,0.0,0.0,0.0,0.0,0.0,0.0,0.0,0.0,0.0,0.0,0.0,0.0,0.0,0.0,0.0,0.0,0.0,0.0,0.0,0.0,0.0,0.5637,0.5042,0.3734,0.0,0.0,0.0,0.0,0.0,0.0,0.0,0.0,0.0,0.0,0.0,0.0,0.0,0.0,0.0,0.0,0.0,0.0,0.0,0.0,0.0,0.0,0.0,0.0,0.0,0.0,0.0,0.0,0.0,0.0,0.0,0.0,0.0,0.0,0.0,0.0,0.0,0.0,0.0,0.0,0.0,0.0,0.0,0.0,0.0,0.0,0.0,0.0,0.0,0.0,0.0,0.0,0.0,0.0,0.0,0.0,0.0,0.0,0.0,0.0,0.0,0.0,0.0,0.0,0.0,0.0,0.0,0.0,0.0,0.0,0.0,0.0,0.0,0.0,0.0,0.0,0.0,0.0,0.0,0.0,0.0,0.0,0.0,0.0,0.0,0.0,0.0,0.0,0.0,0.0,0.0,0.0,0.0,0.0,0.0,0.0,0.0,0.0,0.0,0.0,0.0,0.0,0.0,0.0,0.0,0.0,0.0,0.0,0.0,0.0,0.6505,0.6474,0.5998,0.0,0.4131,0.0,0.0,0.0,0.0,0.0,0.0,0.0,0.0,0.0,0.0,0.0,0.0,0.0,0.0,0.0,0.0,0.0,0.0,0.0,0.0,0.0,0.0,0.0,0.0,0.0,0.0,0.0,0.0,0.0,0.0,0.0,0.0,0.0,0.0,0.0,0.0,0.0,0.0,0.0,0.0,0.0,0.0,0.0,0.0,0.0,0.0,0.0,0.0,0.0,0.0,0.0,0.0,0.0,0.0,0.0,0.0,0.0,0.0,0.0,0.0,0.0,0.0,0.0,0.0,0.0,0.0,0.0,0.0,0.0,0.0,0.0,0.0,0.0,0.0,0.0,0.0,0.0,0.0,0.0,0.0,0.0,0.0,0.0,0.0,0.0,0.0,0.0,0.0,0.0,0.0,0.0,0.0,0.0,0.0,0.0,0.0,0.0,0.0,0.0,0.0,0.0,0.0,0.0,0.0,0.0,0.0,0.0,0.0,0.0,0.0,0.678,0.6798,0.5655,0.472,0.0,0.0,0.0,0.0,0.0,0.0,0.0,0.0,0.0,0.0,0.0,0.0,0.0,0.0,0.0,0.0,0.0,0.0,0.0,0.0,0.0,0.0,0.0,0.0,0.0,0.0,0.0,0.0,0.0,0.0,0.0,0.0,0.0,0.0,0.0,0.0,0.0,0.0,0.0,0.0,0.0,0.0,0.0,0.0,0.0,0.0,0.0,0.0,0.0,0.0,0.0,0.0,0.0,0.0,0.0,0.0,0.0,0.0,0.0,0.0,0.0,0.0,0.0,0.0,0.0,0.0,0.0,0.0,0.0,0.0,0.0,0.0,0.0,0.0,0.0,0.0,0.0,0.0,0.0,0.0,0.0,0.0,0.0,0.0,0.0,0.0,0.0,0.0,0.0,0.0,0.0,0.0,0.0,0.0,0.0,0.0,0.0,0.0,0.0,0.0,0.0,0.0,0.0,0.0,0.0,0.0,0.0,0.0,0.0,0.0,0.7618,0.7146,0.6814,0.5442,0.4479,0.4177,0.0,0.0,0.0,0.0,0.0,0.0,0.0,0.0,0.0,0.0,0.0,0.0,0.0,0.0,0.0,0.0,0.0,0.0,0.0,0.0,0.0,0.0,0.0,0.0,0.0,0.0,0.0,0.0,0.0,0.0,0.0,0.0,0.0,0.0,0.0,0.0,0.0,0.0,0.0,0.0,0.0,0.0,0.0,0.0,0.0,0.0,0.0,0.0,0.0,0.0,0.0,0.0,0.0,0.0,0.0,0.0,0.0,0.0,0.0,0.0,0.0,0.0,0.0,0.0,0.0,0.0,0.0,0.0,0.0,0.0,0.0,0.0,0.0,0.0,0.0,0.0,0.0,0.0,0.0,0.0,0.0,0.0,0.0,0.0,0.0,0.0,0.0,0.0,0.0,0.0,0.0,0.0,0.0,0.0,0.0,0.0,0.0,0.0,0.0,0.0,0.0,0.0,0.0,0.0,0.0,0.0,0.0,0.0,0.8714,0.8384,0.7806,0.6823,0.5571,0.4806,0.0,0.0,0.0,0.0,0.0,0.0,0.0,0.0,0.0,0.0,0.0,0.0,0.0,0.0,0.0,0.0,0.0,0.0,0.0,0.0,0.0,0.0,0.0,0.0,0.0,0.0,0.0,0.0,0.0,0.0,0.0,0.0,0.0,0.0,0.0,0.0,0.0,0.0,0.0,0.0,0.0,0.0,0.0,0.0,0.0,0.0,0.0,0.0,0.0,0.0,0.0,0.0,0.0,0.0,0.0,0.0,0.0,0.0,0.0,0.0,0.0,0.0,0.0,0.0,0.0,0.0,0.0,0.0,0.0,0.0,0.0,0.0,0.0,0.0,0.0,0.0,0.0,0.0,0.0,0.0,0.0,0.0,0.0,0.0,0.0,0.0,0.0,0.0,0.0,0.0,0.0,0.0,0.0,0.0,0.0,0.0,0.0,0.0,0.0,0.0,0.0,0.0,0.0,0.0,0.0,0.0,0.0,0.0,0.0,0.9517,0.877,0.7853,0.6763,0.5901,0.5368,0.0,0.0,0.0,0.0,0.0,0.0,0.0,0.0,0.0,0.0,0.0,0.0,0.0,0.0,0.0,0.0,0.0,0.0,0.0,0.0,0.0,0.0,0.0,0.0,0.0,0.0,0.0,0.0,0.0,0.0,0.0,0.0,0.0,0.0,0.0,0.0,0.0,0.0,0.0,0.0,0.0,0.0,0.0,0.0,0.0,0.0,0.0,0.0,0.0,0.0,0.0,0.0,0.0,0.0,0.0,0.0,0.0,0.0,0.0,0.0,0.0,0.0,0.0,0.0,0.0,0.0,0.0,0.0,0.0,0.0,0.0,0.0,0.0,0.0,0.0,0.0,0.0,0.0,0.0,0.0,0.0,0.0,0.0,0.0,0.0,0.0,0.0,0.0,0.0,0.0,0.0,0.0,0.0,0.0,0.0,0.0,0.0,0.0,0.0,0.0,0.0,0.0,0.0,0.0,0.0,0.0,0.0,0.0,0.0,0.9775,0.0,0.8002,0.6974,0.6235,0.5676,0.0,0.0,0.0,0.0,0.0,0.0,0.0,0.0,0.0,0.0,0.0,0.0,0.0,0.0,0.0,0.0,0.0,0.0,0.0,0.0,0.0,0.0,0.0,0.0,0.0,0.0,0.0,0.0,0.0,0.0,0.0,0.0,0.0,0.0,0.0,0.0,0.0,0.0,0.0,0.0,0.0,0.0,0.0,0.0,0.0,0.0,0.0,0.0,0.0,0.0,0.0,0.0,0.0,0.0,0.0,0.0,0.0,0.0,0.0,0.0,0.0,0.0,0.0,0.0,0.0,0.0,0.0,0.0,0.0,0.0,0.0,0.0,0.0,0.0,0.0,0.0,0.0,0.0,0.0,0.0,0.0,0.0,0.0,0.0,0.0,0.0,0.0,0.0,0.0,0.0,0.0,0.0,0.0,0.0,0.0,0.0,0.0,0.0,0.0,0.0,0.0,0.0,0.0,0.0,0.0,0.0,0.0,0.0,0.9775,0.9343,0.889,0.8273,0.7439,0.6569,0.5749,0.0,0.0,0.0,0.0,0.0,0.0,0.0,0.0,0.0,0.0,0.0,0.0,0.0,0.0,0.0,0.0,0.0,0.0,0.0,0.0,0.0,0.0,0.0,0.0,0.0,0.0,0.0,0.0,0.0,0.0,0.0,0.0,0.0,0.0,0.0,0.0,0.0,0.0,0.0,0.0,0.0,0.0,0.0,0.0,0.0,0.0,0.0,0.0,0.0,0.0,0.0,0.0,0.0,0.0,0.0,0.0,0.0,0.0,0.0,0.0,0.0,0.0,0.0,0.0,0.0,0.0,0.0,0.0,0.0,0.0,0.0,0.0,0.0,0.0,0.0,0.0,0.0,0.0,0.0,0.0,0.0,0.0,0.0,0.0,0.0,0.0,0.0,0.0,0.0,0.0,0.0,0.0,0.0,0.0,0.0,0.0,0.0,0.0,0.0,0.0,0.0,0.0,0.0,0.0,0.0,0.0,0.0,0.0,0.0,0.9303,0.9118,0.8513,0.7498,0.6871,0.6381,0.0,0.0,0.0,0.0,0.0,0.0,0.0,0.0,0.0,0.0,0.0,0.0,0.0,0.0,0.0,0.0,0.0,0.0,0.0,0.0,0.0,0.0,0.0,0.0,0.0,0.0,0.0,0.0,0.0,0.0,0.0,0.0,0.0,0.0,0.0,0.0,0.0,0.0,0.0,0.0,0.0,0.0,0.0,0.0,0.0,0.0,0.0,0.0,0.0,0.0,0.0,0.0,0.0,0.0,0.0,0.0,0.0,0.0,0.0,0.0,0.0,0.0,0.0,0.0,0.0,0.0,0.0,0.0,0.0,0.0,0.0,0.0,0.0,0.0,0.0,0.0,0.0,0.0,0.0,0.0,0.0,0.0,0.0,0.0,0.0,0.0,0.0,0.0,0.0,0.0,0.0,0.0,0.0,0.0,0.0,0.0,0.0,0.0,0.0,0.0,0.0,0.0,0.0,0.0,0.0,0.0,0.0,0.0,0.0,0.9482,0.919,0.8574,0.757,0.6991,0.6432,0.6015,0.0,0.0,0.0,0.0,0.0,0.0,0.0,0.0,0.0,0.0,0.0,0.0,0.0,0.0,0.0,0.0,0.0,0.0,0.0,0.0,0.0,0.0,0.0,0.0,0.0,0.0,0.0,0.0,0.0,0.0,0.0,0.0,0.0,0.0,0.0,0.0,0.0,0.0,0.0,0.0,0.0,0.0,0.0,0.0,0.0,0.0,0.0,0.0,0.0,0.0,0.0,0.0,0.0,0.0,0.0,0.0,0.0,0.0,0.0,0.0,0.0,0.0,0.0,0.0,0.0,0.0,0.0,0.0,0.0,0.0,0.0,0.0,0.0,0.0,0.0,0.0,0.0,0.0,0.0,0.0,0.0,0.0,0.0,0.0,0.0,0.0,0.0,0.0,0.0,0.0,0.0,0.0,0.0,0.0,0.0,0.0,0.0,0.0,0.0,0.0,0.0,0.0,0.0,0.0,0.0,0.0,0.0,0.0,0.9704,0.9233,0.8581,0.7741,0.6829,0.6032,0.0,0.0,0.0,0.0,0.0,0.0,0.0,0.0,0.0,0.0,0.0,0.0,0.0,0.0,0.0,0.0,0.0,0.0,0.0,0.0,0.0,0.0,0.0,0.0,0.0,0.0,0.0,0.0,0.0,0.0,0.0,0.0,0.0,0.0,0.0,0.0,0.0,0.0,0.0,0.0,0.0,0.0,0.0,0.0,0.0,0.0,0.0,0.0,0.0,0.0,0.0,0.0,0.0,0.0,0.0,0.0,0.0,0.0,0.0,0.0,0.0,0.0,0.0,0.0,0.0,0.0,0.0,0.0,0.0,0.0,0.0,0.0,0.0,0.0,0.0,0.0,0.0,0.0,0.0,0.0,0.0,0.0,0.0,0.0,0.0,0.0,0.0,0.0,0.0,0.0,0.0,0.0,0.0,0.0,0.0,0.0,0.0,0.0,0.0,0.0,0.0,0.0,0.0,0.0,0.0,0.0,0.0,0.0,0.0,0.9846,0.9413,0.8717,0.7693,0.6725,0.6156,0.0,0.0,0.0,0.0,0.0,0.0,0.0,0.0,0.0,0.0,0.0,0.0,0.0,0.0,0.0,0.0,0.0,0.0,0.0,0.0,0.0,0.0,0.0,0.0,0.0,0.0,0.0,0.0,0.0,0.0,0.0,0.0,0.0,0.0,0.0,0.0,0.0,0.0,0.0,0.0,0.0,0.0,0.0,0.0,0.0,0.0,0.0,0.0,0.0,0.0,0.0,0.0,0.0,0.0,0.0,0.0,0.0,0.0,0.0,0.0,0.0,0.0,0.0,0.0,0.0,0.0,0.0,0.0,0.0,0.0,0.0,0.0,0.0,0.0,0.0,0.0,0.0,0.0,0.0,0.0,0.0,0.0,0.0,0.0,0.0,0.0,0.0,0.0,0.0,0.0,0.0,0.0,0.0,0.0,0.0,0.0,0.0,0.0,0.0,0.0,0.0,0.0,0.0,0.0,0.0,0.0,0.0,0.0,1.131,1.005,0.9469,0.8562,0.7336,0.6461,0.5816,0.0,0.0,0.0,0.0,0.0,0.0,0.0,0.0,0.0,0.0,0.0,0.0,0.0,0.0,0.0,0.0,0.0,0.0,0.0,0.0,0.0,0.0,0.0,0.0,0.0,0.0,0.0,0.0,0.0,0.0,0.0,0.0,0.0,0.0,0.0,0.0,0.0,0.0,0.0,0.0,0.0,0.0,0.0,0.0,0.0,0.0,0.0,0.0,0.0,0.0,0.0,0.0,0.0,0.0,0.0,0.0,0.0,0.0,0.0,0.0,0.0,0.0,0.0,0.0,0.0,0.0,0.0,0.0,0.0,0.0,0.0,0.0,0.0,0.0,0.0,0.0,0.0,0.0,0.0,0.0,0.0,0.0,0.0,0.0,0.0,0.0,0.0,0.0,0.0,0.0,0.0,0.0,0.0,0.0,0.0,0.0,0.0,0.0,0.0,0.0,0.0,0.0,0.0,0.0,0.0,0.0,0.0,0.0,1.1468,1.0203,0.9503,0.8318,0.6719,0.6035,0.52,0.0,0.0,0.0,0.0,0.0,0.0,0.0,0.0,0.0,0.0,0.0,0.0,0.0,0.0,0.0,0.0,0.0,0.0,0.0,0.0,0.0,0.0,0.0,0.0,0.0,0.0,0.0,0.0,0.0,0.0,0.0,0.0,0.0,0.0,0.0,0.0,0.0,0.0,0.0,0.0,0.0,0.0,0.0,0.0,0.0,0.0,0.0,0.0,0.0,0.0,0.0,0.0,0.0,0.0,0.0,0.0,0.0,0.0,0.0,0.0,0.0,0.0,0.0,0.0,0.0,0.0,0.0,0.0,0.0,0.0,0.0,0.0,0.0,0.0,0.0,0.0,0.0,0.0,0.0,0.0,0.0,0.0,0.0,0.0,0.0,0.0,0.0,0.0,0.0,0.0,0.0,0.0,0.0,0.0,0.0,0.0,0.0,0.0,0.0,0.0,0.0,0.0,0.0,0.0,0.0,0.0,0.0,0.0,1.1841,0.9682,0.964,0.8427,0.6006,0.5657,0.5146,0.0,0.0,0.0,0.0,0.0,0.0,0.0,0.0,0.0,0.0,0.0,0.0,0.0,0.0,0.0,0.0,0.0,0.0,0.0,0.0,0.0,0.0,0.0,0.0,0.0,0.0,0.0,0.0,0.0,0.0,0.0,0.0,0.0,0.0,0.0,0.0,0.0,0.0,0.0,0.0,0.0,0.0,0.0,0.0,0.0,0.0,0.0,0.0,-0.1974,0.0,0.0,0.0,0.0,0.0,0.0,0.0,0.0,0.0,0.0,0.0,0.0,0.0,0.0,0.0,0.0,0.0,0.0,0.0,0.0,0.0,0.0,0.0,0.0,0.0,0.0,0.0,0.0,0.0,0.0,0.0,0.0,0.0,0.0,0.0,0.0,0.0,0.0,0.0,0.0,0.0,0.0,0.0,0.0,0.0,0.0,0.0,0.0,0.0,0.0,0.0,0.0,0.0,0.0,0.0,0.0,0.0,0.0,0.0,1.2103,0.9863,0.9806,0.8496,0.5887,0.5493,0.4773,0.0,0.0,0.0,0.0,0.0,0.0,0.0,0.0,0.0,0.0,0.0,0.0,0.0,0.0,0.0,0.0,0.0,0.0,0.0,0.0,0.0,0.0,0.0,0.0,0.0,0.0,0.0,0.0,0.0,0.0,0.0,0.0,0.0,0.0,0.0,0.0,0.0,0.0,0.0,0.0,0.0,0.0,0.0,0.0,0.0,0.0,0.0,0.0,0.0,0.0,0.0,0.0,0.0,0.0,0.0,0.0,0.0,0.0,0.0,0.0,0.0,0.0,0.0,0.0,0.0,0.0,0.0,0.0,0.0,0.0,0.0,0.0,0.0,0.0,0.0,0.0,0.0,0.0,0.0,0.0,0.0,0.0,0.0,0.0,0.0,0.0,0.0,0.0,0.0,0.0,0.0,0.0,0.0,0.0,0.0,0.0,0.0,0.0,0.0,0.0,0.0,0.0,0.0,0.0,0.0,0.0,0.0,1.3298,1.2156,1.0144,0.9818,0.84,0.5753,0.5182,0.4206,0.2574,0.0,0.0,0.0,0.0,0.0,0.0,0.0,0.0,0.0,0.0,0.0,0.0,0.0,0.0,0.0,0.0,0.0,0.0,0.0,0.0,0.0,0.0,0.0,0.0,0.0,0.0,0.0,0.0,0.0,0.0,0.0,0.0,0.0,0.0,0.0,0.0,0.0,0.0,-0.3459,-0.3042,0.0,0.0,0.0,0.0,0.0,0.0,0.0,0.0,-0.2652,0.0,0.0,0.0,0.0,0.0,0.0,0.0,0.0,0.0,0.0,0.0,0.0,0.0,0.0,0.0,0.0,0.0,0.0,0.0,0.0,0.0,0.0,0.0,0.0,0.0,0.0,0.0,0.0,0.0,0.0,0.0,0.0,0.0,0.0,0.0,0.0,0.0,0.0,0.0,0.0,0.0,0.0,0.0,0.0,0.0,0.0,0.0,0.0,0.0,0.0,0.0,0.0,0.0,0.0,0.0,0.0,1.3283,1.299,1.1807,0.9603,0.929,0.7857,0.5319,0.4596,0.3608,0.2269,0.0,0.0,0.0,0.0,0.0,0.0,0.0,0.0,0.0,0.0,0.0,0.0,0.0,0.0,0.0,0.0,0.0,0.0,0.0,0.0,0.0,0.0,0.0,0.0,0.0,0.0,0.0,0.0,0.0,0.0,0.0,0.0,0.0,0.0,0.0,0.0,0.0,0.0,0.0,-0.2285,-0.1845,0.0,0.0,0.0,0.0,0.0,0.0,0.0,0.0,-0.3436,0.0,0.0,0.0,0.0,0.0,0.0,0.0,0.0,0.0,0.0,0.0,0.0,0.0,0.0,0.0,0.0,0.0,0.0,0.0,0.0,0.0,0.0,0.0,0.0,0.0,0.0,0.0,0.0,0.0,0.0,0.0,0.0,0.0,0.0,0.0,0.0,0.0,0.0,0.0,0.0,0.0,0.0,0.0,0.0,0.0,0.0,0.0,0.0,0.0,0.0,0.0,0.0,0.0,0.0,0.0,1.3369,1.2627,1.1216,0.9196,0.8522,0.7153,0.5019,0.3826,0.2593,0.0,0.0,0.0,0.0,0.0,0.0,0.0,0.0,0.0,0.0,0.0,0.0,0.0,0.0,0.0,0.0,0.0,0.0,0.0,0.0,0.0,0.0,0.0,0.0,0.0,0.0,0.0,0.0,0.0,0.0,0.0,0.0,0.0,0.0,0.0,0.0,0.0,0.0,0.0,0.0,-0.1926,-0.202,-0.3228,0.0,0.0,0.0,0.0,0.0,0.0,-0.4253,-0.429,0.0,0.0,0.0,0.0,0.0,0.0,0.0,0.0,0.0,0.0,0.0,0.0,0.0,0.0,0.0,0.0,0.0,0.0,0.0,0.0,0.0,0.0,0.0,0.0,0.0,0.0,0.0,0.0,0.0,0.0,0.0,0.0,0.0,0.0,0.0,0.0,0.0,0.0,0.0,0.0,0.0,0.0,0.0,0.0,0.0,0.0,0.0,0.0,0.0,0.0,0.0,0.0,0.0,0.0,0.0,1.3412,1.2255,1.0745,0.8821,0.781,0.6424,0.4677,0.3077,0.1545,0.0,0.0,0.0,0.0,0.0,0.0,0.0,0.0,0.0,0.0,0.0,0.0,0.0,0.0,0.0,0.0,0.0,0.0,0.0,0.0,0.0,0.0,0.0,0.0,0.0,0.0,0.0,0.0,0.0,0.0,0.0,0.0,0.0,0.0,0.0,0.0,0.0,0.0,0.0,0.0,0.0,-0.1971,-0.3678,-0.3201,0.0,0.0,0.0,0.0,-0.5548,-0.5635,0.0,0.0,0.0,0.0,0.0,0.0,0.0,0.0,0.0,0.0,0.0,0.0,0.0,0.0,0.0,0.0,0.0,0.0,0.0,0.0,0.0,0.0,0.0,0.0,0.0,0.0,0.0,0.0,0.0,0.0,0.0,0.0,0.0,0.0,0.0,0.0,0.0,0.0,0.0,0.0,0.0,0.0,0.0,0.0,0.0,0.0,0.0,0.0,0.0,0.0,0.0,0.0,0.0,0.0,0.0,0.0,1.315,1.2208,1.0607,0.8351,0.7419,0.605,0.403,0.2329,0.0615,0.0,0.0,0.0,0.0,0.0,0.0,0.0,0.0,0.0,0.0,0.0,0.0,0.0,0.0,0.0,0.0,0.0,0.0,0.0,0.0,0.0,0.0,0.0,0.0,0.0,0.0,0.0,0.0,0.0,0.0,0.0,0.0,0.0,0.0,0.0,0.0,0.0,0.0,0.0,0.0,0.0,-0.0631,-0.3196,-0.282,-0.2573,0.0,0.0,-0.5995,-0.6755,-0.8354,0.0,0.0,0.0,0.0,0.0,0.0,0.0,0.0,0.0,0.0,0.0,0.0,0.0,0.0,0.0,0.0,0.0,0.0,0.0,0.0,0.0,0.0,0.0,0.0,0.0,0.0,0.0,0.0,0.0,0.0,0.0,0.0,0.0,0.0,0.0,0.0,0.0,0.0,0.0,0.0,0.0,0.0,0.0,0.0,0.0,0.0,0.0,0.0,0.0,0.0,0.0,0.0,0.0,0.0,0.0,1.3959,1.2696,1.1342,0.9747,0.7927,0.6313,0.5098,0.4276,0.1796,-0.0223,0.0,0.0,0.0,0.0,0.0,0.0,0.0,0.0,0.0,0.0,0.0,0.0,0.0,0.0,0.0,0.0,0.0,0.0,0.0,0.0,0.0,0.0,0.0,0.0,0.0,0.0,0.0,0.0,0.0,0.0,0.0,0.0,0.0,0.0,0.0,0.0,0.0,0.0,0.0,0.0,0.0,0.0,-0.2884,-0.2858,0.0,0.0,0.0,-0.7568,-0.884,0.0,0.0,0.0,0.0,0.0,0.0,0.0,0.0,0.0,0.0,0.0,0.0,0.0,0.0,0.0,0.0,0.0,0.0,0.0,0.0,0.0,0.0,0.0,0.0,0.0,0.0,0.0,0.0,0.0,0.0,0.0,0.0,0.0,0.0,0.0,0.0,0.0,0.0,0.0,0.0,0.0,0.0,0.0,0.0,0.0,0.0,0.0,0.0,0.0,0.0,0.0,0.0,0.0,0.0,0.0,0.0,0.0,1.2371,1.0791,0.9208,0.7608,0.5638,0.4505,0.4254,0.1227,0.0,0.0,0.0,0.0,0.0,0.0,0.0,0.0,0.0,0.0,0.0,0.0,0.0,0.0,0.0,0.0,0.0,0.0,0.0,0.0,0.0,0.0,0.0,0.0,0.0,0.0,0.0,-0.3258,0.0,0.0,0.0,0.0,0.0,0.0,0.0,0.0,0.0,0.0,0.0,0.0,0.0,0.0,-0.0611,-0.2037,-0.2352,-0.3248,0.0,0.0,-0.9361,-1.1387,-1.3463,-1.4935,0.0,0.0,0.0,0.0,0.0,0.0,0.0,0.0,0.0,0.0,0.0,0.0,0.0,0.0,0.0,0.0,0.0,0.0,0.0,0.0,0.0,0.0,0.0,0.0,0.0,0.0,0.0,0.0,0.0,0.0,0.0,0.0,0.0,0.0,0.0,0.0,0.0,0.0,0.0,0.0,0.0,0.0,0.0,0.0,0.0,0.0,0.0,0.0,0.0,0.0,0.0,0.0,0.0,0.0,1.3606,1.2225,1.111,0.9493,0.7371,0.5849,0.4608,0.364,0.0725,-0.1505,0.0,0.0,0.0,0.0,0.0,0.0,0.0,0.0,0.0,0.0,0.0,0.0,0.0,0.0,0.0,0.0,0.0,0.0,0.0,0.0,0.0,0.0,0.0,0.0,0.0,0.0,0.0,0.0,0.0,0.0,0.0,0.0,0.0,0.0,0.0,0.0,0.0,0.0,0.0,0.0,0.0,0.0493,-0.0189,-0.0787,-0.2395,0.0,-0.877,-1.1562,-1.4516,-1.719,-1.906,-1.9514,0.0,0.0,0.0,0.0,0.0,0.0,0.0,0.0,0.0,0.0,0.0,0.0,0.0,0.0,0.0,0.0,0.0,0.0,0.0,0.0,0.0,0.0,0.0,0.0,0.0,0.0,0.0,0.0,0.0,0.0,0.0,0.0,0.0,0.0,0.0,0.0,0.0,0.0,0.0,0.0,0.0,0.0,0.0,0.0,0.0,0.0,0.0,0.0,0.0,0.0,0.0,0.0,0.0,1.3492,1.1846,1.0781,0.9278,0.7317,0.5521,0.3941,0.2681,0.0223,-0.1929,0.0,0.0,0.0,0.0,0.0,0.0,0.0,0.0,0.0,0.0,0.0,0.0,0.0,0.0,0.0,0.0,0.0,0.0,0.0,0.0,0.0,0.0,0.0,0.0,0.0,0.0,0.0,0.0,0.1033,0.4565,0.976,0.0,0.0,0.0,0.0,0.0,0.0,0.0,0.0,0.0,0.0,0.5108,0.4633,0.3508,0.0,0.0,-0.7713,-1.0858,-1.7211,-1.9944,-2.1413,-2.1635,-2.1701,0.0,0.0,0.0,0.0,0.0,0.0,0.0,0.0,0.0,0.0,0.0,0.0,0.0,0.0,0.0,0.0,0.0,0.0,0.0,0.0,0.0,0.0,0.0,0.0,0.0,0.0,0.0,0.0,0.0,0.0,0.0,0.0,0.0,0.0,0.0,0.0,0.0,0.0,0.0,0.0,0.0,0.0,0.0,0.0,0.0,0.0,0.0,0.0,0.0,0.0,0.0,0.0,1.3507,1.176,1.0647,0.9138,0.7258,0.536,0.355,0.1838,-0.0278,-0.242,0.0,0.0,0.0,0.0,0.0,0.0,0.0,0.0,0.0,0.0,0.0,0.0,0.0,0.0,0.0,0.0,0.0,0.0,0.0,0.0,0.0,0.0,0.0,0.0,0.0,0.0,0.0,0.0,0.168,0.6556,1.3521,0.0,0.0,0.0,0.0,0.0,0.0,0.0,0.0,0.0,0.0,0.652,0.8083,0.675,0.2599,-0.5566,-0.7641,-1.124,-1.9631,-2.2443,-2.357,-2.3455,0.0,0.0,0.0,0.0,0.0,0.0,0.0,0.0,0.0,0.0,0.0,0.0,0.0,0.0,0.0,0.0,0.0,0.0,0.0,0.0,0.0,0.0,0.0,0.0,0.0,0.0,0.0,0.0,0.0,0.0,1.1911,0.0,0.0,0.0,0.0,0.0,0.0,0.0,0.0,0.0,0.0,0.0,0.0,0.0,0.0,0.0,0.0,0.0,0.0,0.0,0.0,0.0,0.0,1.3653,1.2007,1.0828,0.9207,0.7162,0.5469,0.354,0.1277,-0.0723,-0.2945,-0.5494,0.0,0.0,0.0,0.0,0.0,0.0,0.0,0.0,0.0,0.0,0.0,0.0,0.0,0.0,0.0,0.0,0.0,0.0,0.0,0.0,0.0,0.0,0.0,0.0,0.0,0.0,-0.1297,0.2774,0.8948,0.0,0.0,0.0,0.0,0.0,0.0,0.0,0.0,0.0,0.3441,0.2464,0.3263,0.9335,0.8256,0.3476,-0.5734,-0.8952,-1.335,-2.162,-2.4575,-2.5749,0.0,0.0,0.0,0.0,0.0,0.0,0.0,0.0,0.0,0.0,0.0,0.0,0.0,0.0,0.0,0.0,0.0,0.0,0.0,0.0,0.0,0.0,0.0,0.0,0.0,0.0,0.0,0.5125,0.4654,0.0,0.0,0.0,0.0,0.0,0.0,0.0,0.0,0.0,0.0,0.0,1.8711,1.956,0.0,0.0,0.0,0.0,0.0,0.0,0.0,0.0,0.0,0.0,0.0,0.0,1.3779,1.2047,1.0826,0.9068,0.6717,0.5731,0.3979,0.125,-0.0851,-0.3721,-0.7376,0.0,0.0,0.0,0.0,0.0,0.0,0.0,0.0,0.0,0.0,0.0,0.0,0.0,0.0,0.0,0.0,0.0,0.0,0.0,0.0,0.0,0.0,0.0,0.0,0.0,0.0309,0.0,0.0,0.0,0.0,0.0,0.0,0.0,0.0,0.0,0.0,0.0,-0.0131,-1.0412,-0.3315,0.4978,1.0829,0.9461,0.4801,0.0,0.0,0.0,0.0,0.0,0.0,0.0,0.0,0.0,0.0,0.0,0.0,0.0,0.0,-0.7083,-0.6076,-0.4726,-0.3576,-0.297,0.0,0.0,0.0,0.0,0.0,0.0,0.0,0.0,0.0,0.0,0.0,0.0,0.0,0.0,0.4062,0.0,0.728,0.0,0.0,0.0,0.0,0.0,0.0,0.0,0.0,2.1241,2.1444,2.1165,2.2206,2.2405,0.0,2.2157,2.1816,0.0,0.0,0.0,0.0,0.0,0.0,0.0,0.0,1.393,1.2117,1.0812,0.8933,0.6551,0.588,0.4175,0.128,-0.1663,-0.503,-0.8809,-1.042,-1.1807,0.0,0.0,0.0,0.0,0.0,0.0,0.0,0.0,0.0,0.0,0.0,0.0,0.0,0.0,0.0,0.0,0.0,0.0,0.0,0.0,0.0,0.0,0.0,0.178,0.0,0.0,0.0,0.0,0.0,0.0,0.0,0.0,0.0,0.9059,0.7758,0.1964,-1.3675,-0.4141,0.5727,0.945,0.0,0.0,0.0,0.0,0.0,0.0,0.0,-2.3828,-2.4738,-2.5693,-2.5945,-2.4857,-2.2932,-2.0217,-1.6233,0.0,0.0,-0.6871,-0.5695,-0.4593,-0.3383,-0.2999,-0.2696,-0.1969,-0.1714,-0.1524,0.0,0.0,0.0,0.0,0.0,0.0,0.0,0.0,0.118,0.3059,0.0,1.0848,0.0,0.0,0.0,0.0,0.0,2.1312,0.0,0.0,2.4005,2.4553,2.4695,2.5531,2.6061,2.6184,2.6444,2.6421,2.5857,2.233,0.0,0.0,0.0,0.0,0.0,0.0,1.4149,1.2315,1.0768,0.8876,0.6661,0.5866,0.4044,0.1,-0.3179,-0.674,-0.9559,-1.0954,-1.2731,-1.5087,-1.5199,0.0,0.0,0.0,0.0,0.0,0.0,0.0,0.0,0.0,0.0,0.0,0.0,0.0,0.0,0.0,0.0,0.0,0.0,0.0,0.0,0.5153,0.0,0.0,0.0,0.0,0.0,0.0,0.0,0.0,0.0,0.0,1.7406,1.2614,0.5485,-0.5634,0.0,0.0,0.0,0.0,0.9098,0.1877,-0.2347,-0.777,-1.6444,-2.0187,-2.2409,-2.3422,0.0,0.0,-2.1055,-2.2228,-2.1241,-1.4057,-1.0995,-0.9005,-0.7616,-0.7324,-0.6364,-0.3513,-0.2846,-0.2279,-0.088,-0.0536,-0.0537,0.8476,0.0,0.0,0.0,0.0,0.5627,0.3215,0.0331,0.3289,0.707,1.1255,1.2585,0.0,0.0,0.0,0.0,0.0,0.0,2.2807,2.3424,2.3924,2.4368,2.4776,2.5201,2.5493,2.5703,2.5862,2.5795,2.5426,2.4025,2.3235,2.305,0.0,0.0,0.0,0.0,1.4541,1.2359,1.0561,0.8529,0.6042,0.4802,0.2009,-0.2436,-0.4529,-0.7008,-1.0008,-1.2077,-1.4081,-1.6162,-1.6738,0.0,0.0,0.0,0.0,0.0,0.0,0.0,0.0,0.0,0.0,0.0,0.0,0.0,0.0,0.0,0.0,0.0,0.0,0.0,1.26,0.9105,0.8327,0.0,0.0,0.0,0.0,0.0,0.0,0.0,0.0,0.0,2.3315,1.7037,1.0333,0.0,0.0,0.6494,1.053,1.052,0.851,0.432,0.0157,0.0,-1.1421,-1.6373,-1.989,-2.1263,-2.2774,-2.3544,-2.2849,-2.1798,-1.9679,-1.5486,-1.1966,-0.9055,-0.769,-0.6368,-0.494,-0.3148,-0.2204,-0.1289,0.0067,0.0,-0.0135,1.3261,1.3044,1.1498,1.0733,1.048,0.9464,0.7502,0.5224,0.7629,1.1747,1.6822,1.6123,1.6644,1.8277,2.1334,0.0,0.0,0.0,2.3039,2.3359,2.3943,2.4404,2.4791,2.538,2.5782,2.6034,2.6386,2.6417,2.614,2.5352,2.4951,2.4734,0.0,0.0,1.9498,1.7109,1.4635,1.2181,1.0458,0.8359,0.5762,0.3578,0.0379,-0.3874,-0.4998,-0.6978,-1.0053,-1.2363,-1.4681,-1.697,-1.7896,-1.8297,0.0,0.0,0.0,0.0,0.0,0.0,0.0,0.0,0.0,0.0,0.0,-0.4795,-0.0728,0.0,0.0,0.0,1.1821,1.3411,1.5415,1.2808,0.0,0.0,0.0,0.0,0.0,0.0,0.0,2.5968,2.6602,2.6691,2.6185,2.1482,1.6774,1.3296,1.051,1.0202,1.42,0.0,0.9738,0.7045,0.317,-0.1497,-0.7279,-1.2045,-1.5912,-1.8581,-2.007,-2.0781,-2.0526,-1.8871,-1.6801,-1.4451,-1.1454,-0.8778,-0.7089,-0.5286,-0.3604,-0.2256,-0.137,-0.0408,0.101,0.0933,0.0793,1.6933,1.8195,1.4869,1.3606,1.3655,1.3058,1.2705,1.2758,1.3284,1.6605,2.1613,2.0658,2.1352,2.3351,2.3271,0.0,2.3399,2.3098,2.3061,2.3263,2.4164,2.4639,2.4807,2.5896,2.6521,2.6709,2.7442,2.7658,2.7299,2.617,2.5634,2.5685,2.2922,2.0958,1.9761,1.7249,1.4638,1.1964,1.0385,0.8225,0.5434,0.2318,-0.0753,-0.3745,-0.4709,-0.6684,-0.9747,-1.2062,-1.4596,-1.733,-1.861,-1.939,-1.9771,0.0,0.0,0.0,0.0,0.0,0.0,0.0,0.0,0.0,0.0,0.0,0.0,0.0,0.0,0.0,1.618,0.0,1.7088,1.6162,0.0,0.0,0.0,1.63,1.6588,2.0509,2.3773,2.5422,0.0,0.0,2.6899,2.5371,2.3549,2.1412,1.7584,1.5442,1.6768,1.469,1.2254,0.9805,0.6359,0.1976,-0.3453,-0.768,-1.1626,-1.5374,-1.6805,-1.6972,-1.6005,-1.4845,-1.3334,-1.2025,-1.0123,-0.826,-0.6252,-0.4224,-0.2354,-0.118,-0.0474,0.0342,0.1801,0.2019,0.1922,1.7679,1.9174,1.8797,1.8239,1.76,1.6977,1.714,1.7865,1.7719,1.9775,2.3231,2.2767,2.3353,2.472,2.4548,2.4455,2.4444,2.4301,2.4309,2.441,2.4885,2.5194,2.5323,2.5605,2.5769,2.5816,2.5908,2.5836,2.5602,2.4964,2.4376,2.3817,2.2388,2.1167,2.0124,1.7578,1.4977,1.2283,1.0418,0.7606,0.3891,0.1764,-0.0321,-0.2361,-0.4148,-0.6326,-0.8914,-1.1555,-1.4077,-1.6549,-1.8282,-1.9384,-1.9807,-2.0217,0.0,0.0,0.0,0.0,0.0,0.0,0.0,0.0,0.0,-0.108,0.4981,0.0,1.431,0.0,1.5836,1.729,1.8771,1.7796,0.0,0.0,2.0036,2.0663,1.9521,2.2297,2.489,2.6473,2.6725,2.6729,2.6528,2.5403,2.4034,2.2392,1.979,1.7826,1.7297,1.5918,1.4075,1.1667,0.8203,0.4443,0.0974,-0.4615,-0.951,-1.2323,-1.3522,-1.4088,-1.42,-1.3468,-1.2458,-1.1437,-1.0226,-0.843,-0.5994,-0.3708,-0.1496,0.0124,0.0756,0.1331,0.258,0.2498,0.2298,1.8772,2.0082,2.0927,2.1163,2.094,2.0285,2.0207,2.0539,2.0985,2.2219,2.3943,2.4227,2.4709,2.531,2.5253,2.5165,2.5121,2.5136,2.5129,2.5066,2.4919,2.4882,2.4923,2.4892,2.4862,2.4833,2.5066,2.5026,2.4771,2.4366,2.3775,2.3006,2.1925,2.0647,1.9205,1.7121,1.4827,1.2382,0.935,0.6343,0.3365,0.169,0.0091,-0.151,-0.3594,-0.5806,-0.8114,-1.0798,-1.3408,-1.5973,-1.7931,-1.9408,-2.0297,-2.127,-2.1479,0.0,0.0,0.0,0.0,0.0,0.0,0.0,0.0,0.0,0.0,0.0,1.4946,1.5856,1.7041,1.8497,2.0367,2.0594,2.0596,2.0462,2.1896,2.2529,2.1526,2.3673,2.5373,2.5983,2.647,2.6541,2.5896,2.5112,2.4245,2.317,2.1198,1.9351,1.7987,1.6714,1.5266,1.3259,1.0866,0.7694,0.3753,-0.1742,-0.6238,-0.8269,-0.9746,-1.0763,-1.1331,-1.0894,-1.025,-0.9883,-0.8893,-0.7397,-0.5078,-0.2657,-0.0461,0.1049,0.2,0.2739,0.3723,0.3698,0.354,2.0196,2.0978,2.2126,2.3012,2.3573,2.2978,2.2413,2.1972,2.3305,2.4026,2.4322,2.5139,2.5489,2.5488,2.5552,2.555,2.5489,2.5613,2.5527,2.5209,2.4576,2.4191,2.4031,2.4053,2.4021,2.3977,2.46,2.4757,2.442,2.407,2.3485,2.2676,2.149,1.9886,1.7854,1.6259,1.432,1.19,0.7926,0.5115,0.3568,0.2002,0.0545,-0.0803,-0.2887,-0.4992,-0.717,-0.9763,-1.2503,-1.5224,-1.7324,-1.915,-2.0787,-2.1986,-2.2329,0.0,-2.2047,0.0,0.0,0.0,0.0,0.0,0.0,0.0,0.0,1.1427,1.4218,1.7534,1.8485,1.9634,2.1288,2.3177,2.3574,2.1876,2.2149,2.2562,2.2765,2.4292,2.5253,2.4933,2.5932,2.6233,2.5306,2.4712,2.4197,2.3575,2.2144,2.0526,1.9029,1.762,1.6197,1.4652,1.3679,1.0643,0.5647,0.1356,-0.1832,-0.3797,-0.571,-0.7139,-0.8171,-0.797,-0.7673,-0.7799,-0.7097,-0.5634,-0.3684,-0.128,0.078,0.2065,0.3299,0.4271,0.475,0.4901,0.4935,2.1905,2.2477,2.34,2.3925,2.4172,2.4403,2.4251,2.3871,2.4222,2.469,2.5249,2.5421,2.5481,2.5423,2.5486,2.5447,2.5337,2.5489,2.5101,2.4341,2.4201,2.3767,2.3118,2.362,2.3784,2.3712,2.4199,2.4312,2.4089,2.3534,2.2844,2.205,2.102,1.9528,1.7589,0.0,0.0,0.0,0.7507,0.566,0.4226,0.2664,0.1453,0.057,-0.1556,0.0,-0.5617,-0.821,-1.0853,-1.3403,-1.566,0.0,0.0,0.0,0.0,0.0,0.0,0.0,0.0,0.0,0.0,0.0,-0.4669,0.0977,0.6161,1.0589,1.3952,1.5942,1.7556,1.8897,2.0067,2.1689,2.2447,2.1911,2.1049,2.0784,2.1672,2.2956,2.3959,2.4687,2.4813,2.4955,2.5208,2.4472,2.3867,2.3751,2.2885,2.1886,2.0808,1.9054,1.7549,1.6524,1.4673,1.2109,0.8881,0.5996,0.3184,0.0592,-0.1857,-0.3813,-0.5466,-0.6306,-0.6506,-0.6583,-0.5881,-0.4536,-0.2384,0.0555,0.2715,0.3332,0.4818,0.5848,0.526,0.5075,0.5102,2.2825,0.0,2.3835,2.4294,0.0,2.4564,2.4306,2.3808,2.4489,2.5014,2.5347,2.5376,2.5356,2.5282,2.4917,2.4733,2.4673,2.4735,2.4284,2.3412,2.3332,2.3064,2.2594,2.2435,2.2688,2.3317,2.3412,2.3555,2.366,2.3058,2.2381,2.1657,2.0589,1.9004,1.6949,1.4337,1.1732,0.9114,0.7312,0.5896,0.4859,0.3272,0.2111,0.1366,-0.0792,0.0,0.0,0.0,0.0,0.0,0.0,0.0,0.0,-2.0342,0.0,-2.3851,-2.3837,-2.362,-2.3189,-1.8726,-1.4579,-1.132,-0.3733,0.2662,0.682,1.0237,1.2846,1.4573,1.5724,1.7025,1.8691,2.0629,2.1506,2.0796,2.0309,2.033,2.103,2.2454,2.3465,2.3827,2.4392,2.4754,2.4602,2.4271,2.4001,2.4035,2.3426,2.2682,2.1832,2.0339,1.889,1.7828,1.6418,1.4592,1.2575,1.0531,0.811,0.5238,0.2476,-0.0043,-0.2232,-0.3537,-0.4475,-0.4964,-0.455,-0.3386,-0.1424,0.1475,0.3753,0.4216,0.5508,0.66,0.6304,0.6219,0.6089,2.3242,2.2738,2.3726,2.4151,2.4088,2.4092,2.3668,2.3032,0.0,0.0,0.0,2.5187,2.5197,2.5128,2.4303,2.3928,2.3918,2.3764,2.3217,2.2373,2.2251,2.2089,2.1841,2.1255,2.1594,2.2671,2.268,2.2862,2.3203,2.2635,2.1883,2.1038,2.0091,1.8453,1.6056,1.2872,1.0613,0.9301,0.7502,0.6196,0.5328,0.3913,0.2779,0.2007,-0.005,-0.1804,-0.3008,-0.5661,-0.8146,-1.0356,-1.272,-1.5302,-1.7925,-1.9532,-2.129,-2.3337,-2.3938,-2.3886,-2.3083,-1.8973,-1.4502,-0.9982,-0.1719,0.4635,0.8084,0.9819,1.1551,1.3462,1.3992,1.5247,1.7507,1.9521,2.0422,1.9532,1.9738,2.0061,2.053,2.1925,2.2864,2.2984,2.4064,2.4698,2.4092,2.4164,2.4338,2.4414,2.4056,2.3377,2.2593,2.1172,1.9737,1.8768,1.7931,1.7103,1.5797,1.4198,1.2235,0.9425,0.6841,0.4254,0.1759,-0.009,-0.1543,-0.2765,-0.2635,-0.1647,-0.01,0.2447,0.4381,0.5007,0.6256,0.7396,0.7849,0.7983,0.7827,2.3045,2.21,2.2877,2.3111,2.2957,2.316,2.2953,2.2469,2.322,2.4048,2.486,2.4865,2.496,2.5064,2.4099,2.3657,2.3597,2.2832,2.1947,2.108,2.1067,2.0642,1.9963,2.0818,2.1361,2.1697,2.2571,2.2886,2.2617,2.2231,2.1258,1.9862,1.9469,1.7849,1.4955,1.2281,1.0682,1.0094,0.8584,0.7051,0.5568,0.4551,0.3604,0.2799,0.0952,-0.0918,-0.2706,-0.4334,-0.6318,-0.8788,-1.0638,-1.3073,-1.6238,-1.7341,-1.9276,-2.242,-2.2928,-2.2607,-2.1636,-1.8366,-1.2418,-0.3435,0.1777,0.5471,0.7759,0.8945,1.0609,1.3001,1.3761,1.505,1.7183,1.8,1.8637,1.9219,1.9135,1.943,2.0445,2.0923,2.1606,2.2642,2.3386,2.4142,2.4339,2.4467,2.4657,2.4898,2.4643,2.4457,2.3238,2.1437,2.0079,1.9704,1.9101,1.8416,1.763,1.661,1.4896,1.2733,1.1238,0.8999,0.5674,0.405,0.2642,0.1041,0.0573,0.1112,0.249,0.4089,0.5743,0.6862,0.8158,0.9221,0.9773,1.0336,1.0184,2.2553,2.1934,2.2314,2.241,2.2145,2.1447,2.1049,2.0903,2.0898,2.1979,2.3649,2.3758,2.4097,2.4567,2.3727,2.3326,2.3315,2.2877,2.1922,2.0643,2.1334,2.1142,2.03,2.061,2.1251,2.2009,2.1958,2.2072,2.2205,2.1702,2.0862,1.9698,1.8186,1.6406,1.4512,1.2471,1.0927,0.9837,0.8501,0.7254,0.6168,0.5079,0.4109,0.3256,0.1653,0.0148,-0.1231,-0.3011,-0.4885,-0.6988,-0.8789,-1.1134,-1.4136,-1.5508,-1.7704,-2.0912,-2.1862,-2.2061,-2.1602,-1.4925,-0.7608,0.0105,0.3559,0.6499,0.9328,0.9651,1.0586,1.2595,1.2929,1.3956,1.6384,1.678,1.7276,1.847,1.9072,1.9707,2.0335,2.0943,2.1672,2.2686,2.3571,2.4188,2.4461,2.4676,2.4877,2.5044,2.4606,2.3809,2.3224,2.1487,2.0159,2.0128,1.9783,1.9422,1.9052,1.8609,1.7473,1.5805,1.4387,1.2536,0.981,0.7813,0.5461,0.3833,0.3594,0.4651,0.6295,0.7085,0.7893,0.8811,0.9862,1.0775,1.1486,1.215,1.1852,2.1777,2.1223,2.1581,2.1573,2.1225,1.9906,1.9336,1.9247,1.8716,1.9833,2.1954,2.2325,2.2978,2.3759,2.3015,2.2712,2.2886,2.2667,2.1689,2.0391,2.142,2.1458,2.0561,2.0454,2.1112,2.2047,2.1436,2.1356,2.174,2.1118,2.0434,1.9489,1.6813,1.5086,1.4398,1.2747,1.1162,0.9734,0.8523,0.7444,0.6457,0.5471,0.4515,0.3443,0.2132,0.0965,0.0,-0.1798,-0.3584,-0.5227,-0.6971,-0.9122,-1.1728,-1.3527,-1.5841,-1.864,-2.0069,-2.0149,-1.8523,-1.0414,-0.2872,0.2376,0.5079,0.7725,1.0441,1.0858,1.1371,1.263,1.286,1.3713,1.5812,1.6476,1.685,1.7882,1.9072,1.9778,2.004,2.1057,2.2135,2.2953,2.384,2.4441,2.4606,2.4842,2.4975,2.4785,2.383,2.3015,2.2731,2.1447,2.0384,2.009,2.0049,1.9967,1.9862,1.9763,1.9217,1.8255,1.7082,1.5532,1.3745,1.1297,0.9159,0.7828,0.7722,0.8594,0.9954,1.0117,1.034,1.1116,1.1908,1.2657,1.3556,1.4037,1.3702,2.0613,1.9546,2.0332,2.0407,1.9931,1.9107,1.853,1.8076,1.739,1.8186,2.0075,2.0709,2.1634,2.2444,2.1631,2.1652,2.23,2.1434,2.058,1.982,2.0425,2.0256,1.9513,2.0365,2.0891,2.1038,2.12,2.1248,2.1102,2.0594,1.9818,1.8444,1.5828,1.4455,1.4275,1.2767,1.1356,1.0316,0.9362,0.7916,0.6092,0.5678,0.4816,0.3366,0.2227,0.1304,0.0499,-0.0906,-0.2313,-0.3748,-0.505,-0.682,-0.9039,-1.0994,-1.3121,-1.5531,-1.6755,-1.5393,-1.0519,-0.4705,0.0362,0.3899,0.689,0.9189,1.103,1.2251,1.3285,1.4122,1.46,1.5313,1.6437,1.7376,1.7855,1.7835,1.8819,1.9308,1.9532,2.0761,2.2211,2.333,2.4014,2.4494,2.4785,2.4939,2.4834,2.4358,2.3452,2.2841,2.2744,2.1333,1.9953,1.9521,1.9607,1.991,1.9899,1.9925,1.9654,1.9339,1.9375,1.8309,1.6934,1.6895,1.6761,1.2895,1.2872,1.3109,1.2486,1.2294,1.2979,1.3503,1.4235,1.5029,1.6025,1.6386,1.5789,2.0027,1.9413,1.9997,1.969,1.8749,1.8416,1.7584,1.6468,1.6371,1.7105,1.8308,1.8765,2.0318,2.2643,2.2271,2.211,2.2046,2.196,2.0932,1.9444,2.0178,1.9891,1.8835,1.9766,2.0293,2.0355,2.0812,2.0893,2.0446,1.9462,1.8513,1.7615,1.5345,1.4149,1.3882,1.2436,1.1116,1.0009,0.9369,0.8087,0.6335,0.568,0.49,0.3824,0.2653,0.1798,0.122,0.0048,-0.1115,-0.2221,-0.3439,-0.4982,-0.6813,-0.8516,-1.0378,-1.2299,-1.1485,-0.9724,-0.6933,0.0736,0.6083,0.7718,0.945,1.1339,1.3288,1.4506,1.5417,1.5967,1.6343,1.6884,1.7745,1.8701,1.9022,1.8596,1.9469,2.0027,1.9292,2.1267,2.2941,2.3473,2.4173,2.4678,2.4855,2.473,2.4264,2.3553,2.2688,2.2182,2.2163,2.0833,1.966,1.9112,1.8962,1.912,1.9477,1.9578,1.9556,1.9637,1.974,1.9333,1.901,1.9184,1.8963,1.7182,1.6702,1.6328,1.5857,1.5447,1.5639,1.6054,1.638,1.6975,1.7406,1.7831,1.7651,1.9564,1.9361,1.9361,1.8684,1.7707,1.7685,1.6892,1.5731,1.6055,1.6818,1.7765,1.7946,1.9488,2.1827,2.2124,2.1902,2.1583,2.1884,2.0849,1.8976,1.9687,1.9385,1.827,1.9244,1.9813,1.9955,2.0422,2.0335,1.9649,1.825,1.7324,1.6681,1.4972,1.384,1.3422,1.2184,1.0967,0.996,0.9355,0.8298,0.6844,0.5929,0.5089,0.4174,0.3208,0.2499,0.2098,0.1011,-0.0,-0.0838,-0.2003,-0.3277,-0.4736,-0.6309,-0.7884,-0.9372,-0.8827,-0.6665,-0.3497,0.4105,0.9176,1.066,1.1816,1.3192,1.4797,1.5819,1.6688,1.7555,1.7822,1.8118,1.8506,1.9343,1.944,1.8705,1.9716,2.0082,1.9629,2.1313,2.2706,2.3805,2.4276,2.4564,2.4652,2.441,2.3861,2.2824,2.1923,2.115,2.1011,2.002,1.9086,1.8651,1.8212,1.8332,1.897,1.8952,1.9062,1.9204,1.9293,1.9427,1.9464,1.9756,1.995,1.8252,1.83,1.8164,1.7669,1.7586,1.7638,1.8086,1.8295,1.8339,1.8487,1.893,1.9164,1.9229,1.8796,1.7842,1.7396,1.696,1.7001,1.6635,1.6049,1.6708,1.7659,1.8637,1.8829,1.9372,2.0084,2.0294,2.0372,2.0451,2.0455,1.9572,1.8074,1.8652,1.8522,1.784,1.8935,1.9491,1.9483,1.988,1.9562,1.8383,1.7177,1.6366,1.5911,1.4489,1.3606,1.317,1.2087,1.1132,1.0321,0.9473,0.8549,0.7665,0.6561,0.5473,0.4522,0.3823,0.3295,0.2804,0.1829,0.094,0.0359,-0.0674,-0.1705,-0.2811,-0.4358,-0.5728,-0.6963,-0.981,-0.7536,0.0628,0.4538,0.785,1.1727,1.3345,1.4261,1.5076,1.5543,1.6588,1.857,1.8518,1.8435,1.8392,1.9084,1.9142,1.8449,1.871,1.9318,1.9726,2.015,2.172,2.4058,2.4387,2.4147,2.4196,2.4129,2.3441,2.2394,2.152,2.0728,1.9733,1.9106,1.8546,1.8006,1.7727,1.7804,1.8336,1.8109,1.7959,1.8179,1.8456,1.8744,1.8911,1.9039,1.9121,1.9224,1.8945,1.8818,1.8895,1.8957,1.8979,1.9172,1.925,1.9327,1.8941,1.9534,1.9663,1.8672,1.8608,1.8233,1.7764,1.7305,1.742,1.6966,1.6243,1.6564,1.7325,1.8115,1.7983,1.8309,1.9169,1.8865,1.8751,1.884,1.9174,1.8494,1.7187,1.7527,1.7381,1.6899,1.7537,1.8161,1.8504,1.8563,1.8149,1.7275,1.6187,1.5522,1.507,1.3825,1.3022,1.265,1.1736,1.0911,1.0312,0.9385,0.8578,0.7923,0.7063,0.6304,0.5663,0.4609,0.3816,0.3378,0.2721,0.2073,0.1333,0.0483,-0.0267,-0.0976,-0.2167,-0.3189,-0.3824,-0.3897,-0.1267,0.4166,0.7048,1.0065,1.3834,1.4845,1.5201,1.5456,1.5768,1.6543,1.768,1.7654,1.7716,1.8832,1.9512,1.9653,1.9195,1.97,1.9717,1.9202,2.0168,2.2108,2.3544,2.4241,2.4648,2.4041,2.3882,2.3255,2.2009,2.0989,1.9936,1.8948,1.8332,1.79,1.7488,1.7019,1.6695,1.6559,1.6693,1.6775,1.7178,1.7475,1.7644,1.7799,1.808,1.8226,1.8427,1.8534,1.859,1.8418,1.8581,1.8886,1.9127,1.9289,1.9171,1.9046,1.9014,1.9138,1.8168,1.8166,1.7848,1.75,1.7198,1.7229,1.6947,1.6457,1.6833,1.7434,1.797,1.7562,1.7712,1.813,1.766,1.7235,1.721,1.7819,1.7451,1.6327,1.6725,1.6742,1.6498,1.6917,1.7399,1.7791,1.7529,1.7028,1.6339,1.5545,1.495,1.4462,1.3317,1.2632,1.2288,1.151,1.0855,1.0307,0.9544,0.8865,0.8222,0.7576,0.7044,0.6614,0.5647,0.4717,0.4089,0.3545,0.2956,0.232,0.1647,0.1008,0.0444,-0.0266,-0.0746,-0.0756,-0.0242,0.2134,0.5884,0.8071,1.0742,1.463,1.5523,1.5892,1.6466,1.658,1.7161,1.7923,1.7795,1.8013,1.9183,1.9769,1.9742,1.9561,2.0154,2.0035,1.8693,2.0505,2.2199,2.341,2.4551,2.4641,2.37,2.3218,2.2599,2.1742,2.039,1.8965,1.7874,1.7412,1.714,1.6847,1.6242,1.5749,1.5424,1.5301,1.5307,1.5646,1.6203,1.6433,1.6571,1.693,1.7258,1.7522,1.7727,1.7832,1.7975,1.8089,1.8285,1.8507,1.8577,1.8454,1.8258,1.8029,1.7772,1.7679,1.7558,1.651,1.6341,1.6534,1.6428,1.6487,1.6847,1.7502,1.7937,1.817,1.7899,1.7505,1.7272,1.6742,1.6029,1.5934,1.6629,1.6488,1.5772,1.6397,1.6688,1.6698,1.7154,1.7374,1.7458,1.7127,1.6495,1.5713,1.5257,1.4693,1.3864,1.3117,1.252,1.2198,1.1495,1.0985,1.0544,1.0025,0.939,0.8712,0.8152,0.7666,0.7328,0.6855,0.607,0.5031,0.4225,0.3667,0.3325,0.2824,0.2173,0.163,0.1369,0.1538,0.1825,0.05,0.1868,0.5961,0.7178,0.9651,1.373,1.5243,1.6319,1.7597,1.7554,1.7844,1.9048,1.8932,1.9013,1.966,1.9409,1.918,1.9534,1.9838,1.9726,1.9919,2.0652,2.2036,2.3648,2.4584,2.4263,2.2818,2.2209,2.1946,2.1307,1.9684,1.7774,1.6645,1.6365,1.6261,1.5999,1.5751,1.542,1.4644,1.3934,1.3927,1.4049,1.4682,1.5102,1.5109,1.535,1.5686,1.5973,1.612,1.6257,1.6419,1.6575,1.688,1.7105,1.7345,1.7368,1.6931,1.6423,1.5721,1.7221,1.7166,1.6484,1.6275,1.6359,1.6391,1.6558,1.6753,1.7024,1.731,1.7498,1.7171,1.6982,1.6943,1.655,1.6254,1.614,1.637,1.6128,1.5746,1.6727,1.7074,1.6788,1.7045,1.6824,1.625,1.6417,1.6069,1.5284,1.5008,1.4625,1.4089,1.3393,1.2671,1.2016,1.1346,1.0876,1.0708,1.0201,0.9721,0.9266,0.8508,0.7938,0.7603,0.7318,0.6774,0.6007,0.5287,0.4657,0.4133,0.3879,0.3668,0.3602,0.3562,0.3902,0.4446,0.3253,0.4434,0.8506,0.8759,1.0241,1.4086,1.5093,1.5687,1.6981,1.6811,1.7015,1.8027,1.754,1.7573,1.8649,1.8436,1.8657,1.9997,2.0083,2.0321,2.1044,2.1991,2.2634,2.2914,2.3544,2.3464,2.2848,2.2302,2.17,2.102,1.9303,1.7403,1.5829,1.5906,1.6069,1.5734,1.5536,1.5318,1.4734,1.4033,1.3636,1.3354,1.3538,1.3835,1.384,1.3684,1.4039,1.437,1.4542,1.4674,1.4825,1.5042,1.5317,1.5645,1.5897,1.5633,1.5164,1.463,1.4077,1.6746,1.6697,1.6225,1.6157,1.6244,1.6293,1.6503,1.6788,1.6795,1.7005,1.728,1.6943,1.6805,1.6786,1.6519,1.6294,1.6279,1.6493,1.6222,1.5835,1.691,1.7306,1.6922,1.7061,1.6557,1.5753,1.6198,1.6061,1.5164,1.53,1.5073,1.4412,1.3778,1.2988,1.2165,1.1627,1.1258,1.0771,1.0591,1.0193,0.9564,0.9004,0.8522,0.804,0.7739,0.737,0.6911,0.6304,0.5673,0.5146,0.5014,0.5105,0.5187,0.531,0.5772,0.6313,0.6337,0.7219,0.9878,1.0152,1.1393,1.4396,1.502,1.5784,1.7034,1.7059,1.7159,1.7764,1.7401,1.7382,1.8475,1.8178,1.8602,2.0235,2.0153,2.0587,2.1658,2.2485,2.2743,2.2649,2.3041,2.3013,2.2518,2.1715,2.0903,1.9807,1.8483,1.7151,1.5657,1.5641,1.5624,1.5481,1.526,1.5072,1.4909,1.4232,1.3495,1.294,1.2531,1.2673,1.2689,1.2238,1.2228,1.2722,1.3014,1.2989,1.3123,1.3323,1.3555,1.3956,1.4431,1.4221,1.3896,1.3347,1.2846,1.6269,1.6182,1.575,1.578,1.6057,1.6038,1.6324,1.6873,1.6957,1.7166,1.7424,1.7122,1.6938,1.6822,1.6498,1.6258,1.6177,1.6642,1.6622,1.638,1.6961,1.7311,1.7358,1.7332,1.6695,1.5913,1.6404,1.6254,1.5534,1.5892,1.582,1.4621,1.4112,1.3437,1.2562,1.2335,1.1753,1.1054,1.118,1.0785,0.9753,0.953,0.9232,0.8552,0.8138,0.7874,0.7621,0.7066,0.6474,0.6093,0.6115,0.6198,0.6325,0.667,0.7286,0.7998,0.8792,0.9156,0.9914,1.1124,1.2812,1.4301,1.5104,1.6613,1.8235,1.8244,1.8093,1.8619,1.8143,1.8079,1.8612,1.831,1.8691,1.9941,2.012,2.0517,2.1292,2.1825,2.2062,2.2271,2.2789,2.287,2.1581,2.0601,1.9341,1.7993,1.7099,1.6339,1.5927,1.5655,1.5419,1.5255,1.5123,1.5054,1.4982,1.4276,1.3539,1.2949,1.2458,1.2374,1.202,1.1421,1.102,1.1472,1.166,1.1558,1.16,1.1939,1.2224,1.2643,1.288,1.2881,1.271,1.2315,1.2089,1.575,1.5611,1.522,1.5226,1.5418,1.5718,1.607,1.6429,1.6674,1.6964,1.712,1.7068,1.6998,1.695,1.6745,1.6652,1.6667,1.6708,1.6773,1.6719,1.6879,1.7276,1.757,1.7616,1.7057,1.6224,1.6368,1.6271,1.5693,1.5799,1.5455,1.4708,1.4326,1.367,1.286,1.2579,1.2294,1.186,1.1649,1.1359,1.0731,1.0074,0.9525,0.9045,0.8562,0.8112,0.7799,0.7416,0.6946,0.6441,0.6644,0.6982,0.7325,0.8041,0.8629,0.907,1.0055,1.0841,1.115,1.1774,1.3103,1.4881,1.4909,1.566,1.8477,1.8369,1.8039,1.7961,1.7777,1.7718,1.7421,1.7355,1.7933,1.8977,2.0019,2.0501,2.0152,2.0572,2.1191,2.141,2.1618,2.1336,2.0722,1.9853,1.8748,1.7445,1.6649,1.6166,1.5882,1.5807,1.5575,1.5327,1.5217,1.5162,1.4911,1.4238,1.3616,1.3015,1.2699,1.2627,1.2011,1.1222,1.0967,1.099,1.09,1.0814,1.0804,1.0972,1.1244,1.1605,1.1797,1.2043,1.1884,1.1623,1.1546,1.526,1.517,1.5051,1.5096,1.5328,1.568,1.6082,1.6448,1.6607,1.6899,1.7073,1.7031,1.7002,1.6973,1.684,1.6754,1.6748,1.6718,1.6748,1.6784,1.6765,1.6957,1.7284,1.7352,1.7002,1.6509,1.6418,1.6211,1.5919,1.5768,1.538,1.4923,1.4561,1.3944,1.3065,1.2973,1.2731,1.2413,1.2148,1.1837,1.1181,1.0775,1.0281,0.975,0.928,0.875,0.8078,0.803,0.7827,0.7468,0.7559,0.7957,0.8542,0.924,0.9768,1.0048,1.1304,1.2164,1.2484,1.2973,1.4211,1.5577,1.5436,1.6307,1.7885,1.8176,1.7926,1.7709,1.7826,1.7673,1.7461,1.765,1.807,1.8604,1.9722,2.005,1.8943,1.9805,2.0382,2.0602,2.0656,2.0551,2.0036,1.9231,1.8481,1.7661,1.6817,1.6244,1.5742,1.5781,1.5654,1.529,1.4892,1.4688,1.4328,1.3715,1.3398,1.2897,1.2346,1.2397,1.1818,1.0967,1.0705,1.0453,1.0256,1.0186,1.0331,1.042,1.0615,1.0935,1.1087,1.1212,1.1153,1.1002,1.095,1.4863,1.4863,1.5011,1.5238,1.5546,1.573,1.6219,1.6784,1.6797,1.6967,1.7225,1.7135,1.6992,1.6791,1.6354,1.6373,1.6244,1.6312,1.6497,1.6534,1.6528,1.6601,1.682,1.6827,1.6712,1.6509,1.6374,1.6157,1.5903,1.5752,1.5466,1.5028,1.4721,1.4202,1.3518,1.3398,1.3124,1.2749,1.2634,1.2229,1.1563,1.1338,1.0952,1.0419,0.997,0.9391,0.8845,0.8803,0.8868,0.8565,0.866,0.8946,0.962,1.0142,1.0655,1.116,1.2203,1.313,1.3522,1.447,1.5655,1.6369,1.6758,1.7291,1.7906,1.814,1.8088,1.7788,1.7966,1.793,1.783,1.8493,1.8493,1.8316,1.8882,1.8811,1.8685,1.9244,1.9866,1.9846,2.0085,1.9951,1.9405,1.8702,1.8084,1.7845,1.6963,1.6011,1.5542,1.5398,1.5195,1.4869,1.4459,1.4057,1.3653,1.3127,1.2976,1.2701,1.1978,1.1652,1.1271,1.0658,1.0359,1.0197,1.0565,1.0489,1.0219,1.031,1.0407,1.036,1.0554,1.0644,1.0687,1.0404,1.0283,1.461,1.4518,1.4662,1.4937,1.539,1.578,1.6244,1.6746,1.6983,1.7018,1.717,1.7483,1.7006,1.602,1.5363,1.4934,1.5192,1.5451,1.5691,1.6138,1.6126,1.6256,1.6479,1.6528,1.643,1.6355,1.6306,1.5976,1.5501,1.5277,1.5057,1.4754,1.4553,1.4318,1.3964,1.3658,1.3569,1.3205,1.2996,1.2575,1.2101,1.1729,1.1363,1.0861,1.0343,0.9918,0.9529,0.9324,0.9544,0.9815,0.9604,0.9482,0.9922,1.0645,1.1189,1.1682,1.2609,1.3605,1.4211,1.4803,1.568,1.6628,1.6771,1.7136,1.8114,1.8201,1.8026,1.7799,1.7796,1.7682,1.7313,1.7103,1.7421,1.7717,1.7848,1.8065,1.8439,1.8823,1.897,1.9003,1.9072,1.9037,1.8555,1.7923,1.7605,1.7724,1.6967,1.5806,1.5325,1.497,1.4624,1.4239,1.3873,1.3448,1.2971,1.2594,1.2477,1.2314,1.1719,1.1259,1.0889,1.0628,1.0418,1.0686,1.1132,1.0922,1.0565,1.0372,1.0497,1.0286,1.0093,1.0108,1.0103,0.9815,0.9531,1.4759,1.4823,1.4713,1.4949,1.539,1.5635,1.6094,1.654,1.6656,1.6723,1.6674,1.6771,1.6242,1.5561,1.4728,1.4477,1.4732,1.5057,1.5385,1.573,1.5812,1.5907,1.6132,1.6269,1.625,1.6093,1.5963,1.554,1.5142,1.4829,1.4691,1.4477,1.4244,1.4087,1.3962,1.3631,1.3402,1.3329,1.3075,1.2832,1.2657,1.2407,1.1938,1.1548,1.1059,1.0712,1.0109,1.0227,1.0333,1.0402,1.0285,1.032,1.0629,1.1195,1.1636,1.1937,1.2862,1.3552,1.4103,1.4828,1.5604,1.6354,1.6446,1.6842,1.7416,1.7659,1.7679,1.7526,1.7538,1.7488,1.7085,1.6696,1.6879,1.7046,1.7115,1.7236,1.7544,1.796,1.8264,1.8257,1.8201,1.7946,1.751,1.7124,1.694,1.6982,1.6293,1.52,1.45,1.4182,1.3899,1.3563,1.3208,1.2808,1.233,1.2049,1.1959,1.1773,1.1477,1.1171,1.0944,1.0781,1.0646,1.0991,1.1248,1.1323,1.1045,1.0841,1.0526,1.0311,1.0127,0.9858,0.9518,0.9195,0.891,1.5034,1.522,1.5028,1.5125,1.5474,1.5513,1.5816,1.6274,1.6131,1.5902,1.5884,1.5371,1.53,1.492,1.4337,1.4261,1.4577,1.4875,1.5057,1.5361,1.5501,1.5647,1.5786,1.5963,1.5919,1.5818,1.5686,1.5277,1.4863,1.4542,1.4414,1.4326,1.3957,1.3868,1.3742,1.3354,1.3172,1.339,1.3225,1.3065,1.3109,1.2962,1.2657,1.2204,1.202,1.1581,1.1085,1.1051,1.1146,1.0694,1.0897,1.1242,1.1578,1.1773,1.1923,1.1954,1.2837,1.3415,1.3836,1.4595,1.5365,1.5706,1.5996,1.6256,1.6576,1.6837,1.6889,1.6931,1.6931,1.6937,1.6986,1.6526,1.6369,1.6481,1.6451,1.6378,1.6421,1.6864,1.7144,1.7504,1.7307,1.7015,1.6776,1.6503,1.6342,1.6112,1.538,1.4664,1.3898,1.3464,1.3261,1.2992,1.2691,1.2388,1.1959,1.171,1.1628,1.1427,1.1226,1.1074,1.0968,1.0799,1.0736,1.0956,1.1193,1.1248,1.1219,1.0957,1.0658,1.0413,0.9994,0.9608,0.9123,0.8627,0.8361,1.5165,1.5147,1.534,1.543,1.5468,1.5513,1.5626,1.5796,1.5334,1.4818,1.4451,1.4727,1.4441,1.3967,1.3397,1.346,1.3967,1.4316,1.4634,1.5006,1.5198,1.5385,1.5474,1.5558,1.5457,1.5226,1.5238,1.5096,1.4634,1.4321,1.4321,1.4181,1.3905,1.3773,1.3721,1.3472,1.3392,1.3619,1.3546,1.3472,1.3409,1.3228,1.304,1.2618,1.255,1.2341,1.2078,1.1805,1.1674,1.1594,1.1191,1.1217,1.1523,1.1673,1.1873,1.217,1.252,1.3045,1.3689,1.416,1.4806,1.526,1.5484,1.57,1.5876,1.6014,1.6045,1.5952,1.582,1.5662,1.5507,1.5579,1.5567,1.5561,1.5549,1.5543,1.5626,1.5626,1.5752,1.6182,1.6132,1.6163,1.5976,1.5812,1.5686,1.5371,1.4782,1.3803,1.2892,1.2763,1.2779,1.2505,1.2269,1.1972,1.1628,1.1473,1.1322,1.1226,1.1023,1.0875,1.0773,1.0718,1.0773,1.0824,1.0922,1.1066,1.1042,1.097,1.0639,1.0242,0.974,0.93,0.8906,0.8539,0.8164,1.5283,1.5406,1.5159,1.5114,1.5142,1.5011,1.4863,1.4795,1.4514,1.4057,1.3621,1.3684,1.3668,1.3251,1.2948,1.3145,1.3647,1.4181,1.446,1.48,1.4897,1.4977,1.5108,1.5193,1.5051,1.4875,1.4875,1.4869,1.4588,1.4501,1.446,1.4496,1.4176,1.3952,1.3805,1.3695,1.3742,1.3947,1.4025,1.4097,1.4029,1.3726,1.3281,1.3132,1.288,1.273,1.2642,1.2407,1.221,1.2116,1.1673,1.1623,1.1673,1.1678,1.1728,1.2022,1.2323,1.2759,1.3357,1.3689,1.4066,1.4772,1.4812,1.4892,1.5152,1.5281,1.5276,1.518,1.5005,1.4937,1.5051,1.488,1.488,1.4863,1.4715,1.4663,1.4669,1.449,1.4606,1.4812,1.5056,1.5158,1.5209,1.5062,1.4937,1.4567,1.4073,1.3102,1.2014,1.2039,1.225,1.2008,1.1723,1.1477,1.123,1.1124,1.1019,1.0918,1.082,1.0671,1.0573,1.0466,1.0407,1.0352,1.0535,1.0735,1.0933,1.0888,1.0463,1.0093,0.9912,0.9581,0.8933,0.8448,0.8127,1.539,1.5617,1.4926,1.4697,1.4772,1.4501,1.4247,1.3977,1.3909,1.3595,1.3012,1.2981,1.3025,1.2977,1.2949,1.3109,1.3668,1.4192,1.443,1.4673,1.4621,1.461,1.4794,1.4834,1.4823,1.4886,1.4651,1.4547,1.4674,1.4501,1.4599,1.4501,1.4368,1.414,1.3894,1.3836,1.4138,1.44,1.4498,1.4687,1.4635,1.4055,1.3615,1.361,1.3251,1.3155,1.3213,1.2972,1.2837,1.2608,1.2274,1.1981,1.1972,1.1673,1.1528,1.1773,1.2126,1.2559,1.2939,1.3127,1.351,1.4222,1.4035,1.4154,1.4277,1.4411,1.4498,1.4538,1.4318,1.4236,1.4346,1.4337,1.4244,1.4134,1.3889,1.3663,1.3789,1.3646,1.3367,1.3637,1.3967,1.4149,1.419,1.4231,1.4087,1.3632,1.3135,1.2633,1.1683,1.1563,1.1615,1.1418,1.1175,1.1027,1.0828,1.0726,1.062,1.0561,1.0462,1.0364,1.0261,1.0158,1.0098,1.0039,1.0142,1.0348,1.0576,1.064,1.0234,0.9976,1.0077,0.9741,0.8993,0.8523,0.8195,1.5364,1.5147,1.4954,1.472,1.4542,1.4419,1.4258,1.3998,1.3637,1.3489,1.3268,1.2982,1.2847,1.3035,1.306,1.3354,1.3631,1.3815,1.415,1.4581,1.4529,1.4651,1.4971,1.4794,1.5137,1.5262,1.5023,1.4731,1.5034,1.4636,1.4233,1.4414,1.417,1.3752,1.4176,1.4217,1.4294,1.4738,1.468,1.4553,1.4351,1.3842,1.3847,1.4035,1.4082,1.3931,1.3889,1.3647,1.3472,1.3177,1.2485,1.2135,1.1977,1.1477,1.1276,1.1427,1.1678,1.2017,1.251,1.2754,1.3035,1.3557,1.3505,1.3505,1.3547,1.3437,1.3437,1.3552,1.3372,1.3319,1.35,1.353,1.343,1.3271,1.3016,1.309,1.3193,1.2866,1.255,1.2466,1.2837,1.3016,1.3155,1.3193,1.3135,1.2667,1.2211,1.1715,1.1386,1.1242,1.1124,1.0922,1.082,1.0671,1.047,1.0368,1.0364,1.0257,1.0154,1.0106,1.0054,1.0003,0.984,0.9784,0.9844,0.9844,0.9993,1.0003,0.9888,0.9835,0.9877,0.9513,0.897,0.8546,0.8235,1.5307,1.5289,1.4651,1.4466,1.4477,1.4087,1.37,1.3447,1.3137,1.2939,1.2788,1.2466,1.2368,1.2652,1.3002,1.3339,1.3472,1.3615,1.4004,1.4477,1.4518,1.4731,1.5124,1.5305,1.5608,1.6319,1.65,1.7015,1.662,1.5561,1.4737,1.5074,1.4777,1.4588,1.464,1.4766,1.4943,1.5079,1.5045,1.4875,1.4645,1.4326,1.414,1.4274,1.4285,1.4233,1.4041,1.3947,1.3765,1.351,1.2953,1.2791,1.2626,1.2105,1.1489,1.183,1.1425,1.1565,1.212,1.2403,1.274,1.3016,1.3069,1.29,1.2852,1.2798,1.2745,1.2847,1.2856,1.2808,1.2759,1.2939,1.2764,1.2545,1.2213,1.244,1.2487,1.2144,1.1859,1.1732,1.1696,1.1918,1.2143,1.2236,1.2276,1.2173,1.172,1.1225,1.0981,1.0909,1.0726,1.0526,1.047,1.0364,1.0213,1.0058,1.0106,1.0051,1.0003,0.9951,0.9951,0.9895,0.9681,0.9636,0.965,0.9647,0.9528,0.9529,0.9592,0.9629,0.9658,0.9242,0.8878,0.8641,0.8296,1.5051,1.5147,1.4239,1.3968,1.4104,1.3382,1.2972,1.2817,1.2598,1.2461,1.2314,1.222,1.2278,1.2377,1.29,1.3233,1.3324,1.351,1.3947,1.4228,1.4501,1.4817,1.5351,1.5766,1.6717,1.7941,1.8016,1.844,1.8374,1.7524,1.6339,1.6074,1.563,1.5326,1.5182,1.5198,1.5283,1.5181,1.5187,1.5057,1.4789,1.4558,1.4326,1.4274,1.4269,1.4233,1.3957,1.391,1.3929,1.3936,1.3447,1.3247,1.3262,1.2189,1.1535,1.1506,1.108,1.0912,1.1404,1.1818,1.2412,1.2642,1.2677,1.2466,1.2278,1.2278,1.2274,1.222,1.2372,1.2323,1.2278,1.241,1.2288,1.1877,1.1427,1.1651,1.1809,1.1436,1.1162,1.1011,1.0972,1.0972,1.1162,1.1267,1.1423,1.1528,1.1226,1.0718,1.0569,1.0466,1.0308,1.0158,1.0102,1.0047,0.9943,0.984,0.984,0.984,0.9795,0.974,0.9788,0.9732,0.9573,0.9535,0.9449,0.912,0.884,0.9096,0.9347,0.9306,0.9216,0.9087,0.8831,0.856,0.8279,1.4531,1.4419,1.37,1.3243,1.3022,1.2417,1.2197,1.2164,1.212,1.2124,1.2281,1.2652,1.272,1.2676,1.2671,1.3045,1.3472,1.3218,1.3652,1.4134,1.4471,1.4943,1.5682,1.6678,1.7654,1.8677,1.9294,1.9732,1.9761,1.9378,1.801,1.6958,1.6382,1.5764,1.5469,1.5449,1.53,1.5193,1.5108,1.4823,1.4507,1.4274,1.4129,1.4077,1.4222,1.4321,1.4176,1.4035,1.4088,1.43,1.3645,1.3277,1.3062,1.1952,1.1287,1.0973,1.0491,1.0325,1.0603,1.1375,1.1972,1.2235,1.2308,1.2154,1.2027,1.2068,1.1895,1.1722,1.2031,1.1923,1.1828,1.1796,1.1844,1.1408,1.0933,1.083,1.0906,1.0755,1.0478,1.0304,1.0297,1.0403,1.0514,1.0714,1.0871,1.1023,1.0757,1.0297,1.0098,0.9995,0.9884,0.9781,0.9725,0.9669,0.9669,0.9618,0.9677,0.9677,0.9625,0.9621,0.9614,0.951,0.9364,0.9222,0.9081,0.8643,0.8203,0.8243,0.8399,0.8735,0.88,0.8602,0.8333,0.799,0.784,1.3564,1.2971,1.2038,1.1958,1.2286,1.1534,1.1229,1.1371,1.1462,1.1774,1.2152,1.2715,1.2676,1.2328,1.2382,1.2471,1.2603,1.2642,1.3261,1.4025,1.4553,1.5537,1.6575,1.76,1.8679,1.9986,2.0737,2.1102,2.1304,2.0525,1.9794,1.8633,1.7209,1.6668,1.6254,1.5777,1.5443,1.5125,1.4891,1.4564,1.4269,1.3999,1.3852,1.3647,1.3999,1.3868,1.3583,1.3467,1.371,1.3733,1.3201,1.3034,1.2764,1.1573,1.0869,1.0438,0.9854,0.9764,1.0188,1.0954,1.1604,1.1858,1.1983,1.2071,1.2006,1.2122,1.2131,1.2031,1.187,1.1735,1.1398,1.1511,1.1538,1.0938,1.0639,1.0465,1.0257,1.023,1.0154,1.0157,1.0033,0.9984,1.0095,1.0257,1.0364,1.0466,1.0146,0.9877,0.9673,0.9573,0.9465,0.9413,0.9409,0.935,0.935,0.9406,0.9514,0.9462,0.9357,0.9409,0.9357,0.926,0.9117,0.8973,0.8603,0.8052,0.7613,0.7337,0.7498,0.7934,0.815,0.8128,0.7767,0.7362,0.7023,1.2349,1.1455,1.0363,1.0477,1.1162,1.0568,1.0368,1.0564,1.0813,1.1384,1.2076,1.2529,1.2426,1.2026,1.1877,1.2081,1.2126,1.2363,1.2929,1.3747,1.4724,1.5914,1.7152,1.8312,1.9445,2.0886,2.1163,2.1286,2.0711,2.0785,1.9697,1.8552,1.7901,1.7314,1.6977,1.6405,1.5846,1.5406,1.4937,1.4436,1.4087,1.3999,1.3626,1.3372,1.3525,1.3435,1.3115,1.3013,1.3103,1.3088,1.283,1.251,1.1943,1.1265,1.0346,0.9796,0.9291,0.9086,0.9751,1.0429,1.1021,1.1595,1.18,1.2066,1.2202,1.2122,1.2175,1.2392,1.2052,1.1698,1.1306,1.1202,1.1152,1.0655,1.1028,1.0927,1.0341,1.0161,1.0097,1.0011,0.9911,0.984,0.9669,0.9777,0.984,0.9943,0.9888,0.9566,0.9302,0.9148,0.9099,0.9047,0.9047,0.904,0.8981,0.9093,0.9099,0.8883,0.8883,0.9106,0.911,0.8959,0.8867,0.8732,0.8243,0.7467,0.7136,0.7023,0.7128,0.7289,0.7396,0.745,0.7238,0.6814,0.6,1.0893,1.003,0.8884,0.896,0.9858,0.9562,0.9666,1.0119,1.0368,1.0986,1.1823,1.1981,1.1972,1.1823,1.1418,1.1469,1.1769,1.2017,1.2496,1.3215,1.4675,1.5698,1.6931,1.8286,1.9486,1.9974,2.0154,1.9857,1.8972,1.9048,1.83,1.7875,1.7523,1.7488,1.7617,1.7093,1.6501,1.5992,1.5343,1.4529,1.3884,1.3768,1.3382,1.305,1.2944,1.2798,1.2504,1.2424,1.2493,1.2429,1.223,1.1831,1.141,1.0134,0.9295,0.8775,0.7999,0.7834,0.8307,0.9193,1.0144,1.1193,1.1469,1.1868,1.1915,1.2028,1.2511,1.2937,1.2467,1.211,1.1551,1.0934,1.086,1.0969,1.1355,1.1244,1.0699,1.028,1.0272,1.0048,0.9906,0.981,0.9469,0.9298,0.9309,0.9368,0.9472,0.9312,0.8991,0.8883,0.8834,0.8656,0.8656,0.8725,0.8722,0.8735,0.8685,0.8464,0.8464,0.8738,0.8798,0.8646,0.8563,0.8482,0.7925,0.7195,0.6923,0.6817,0.6758,0.6756,0.6756,0.6756,0.6606,0.623,0.5458,0.9749,0.8958,0.8059,0.8131,0.8939,0.8991,0.9347,1.0072,1.0639,1.1204,1.1519,1.1514,1.1145,1.0889,1.0736,1.0694,1.085,1.1238,1.162,1.2915,1.4494,1.5788,1.6954,1.8056,1.9052,1.9139,1.9164,1.8686,1.7973,1.7571,1.7502,1.7246,1.7068,1.7167,1.6929,1.6535,1.62,1.5598,1.4969,1.4246,1.3377,1.3003,1.2652,1.2224,1.2255,1.2053,1.1673,1.1656,1.1542,1.144,1.1149,1.0678,1.0233,0.9113,0.8476,0.7993,0.7387,0.7447,0.8041,0.8774,0.9333,1.0243,1.1193,1.1867,1.2397,1.2767,1.3255,1.3594,1.3223,1.3049,1.2851,1.1944,1.1643,1.182,1.1911,1.1577,1.1113,1.0808,1.0554,1.017,0.9915,0.9279,0.8835,0.8666,0.8679,0.8658,0.8705,0.9078,0.8956,0.8788,0.8679,0.832,0.8205,0.8339,0.8412,0.8362,0.8368,0.8206,0.8206,0.8421,0.8431,0.8224,0.8133,0.7994,0.743,0.6923,0.682,0.6663,0.6277,0.6164,0.627,0.6206,0.5987,0.5632,0.5021,0.8701,0.8205,0.7697,0.8128,0.8974,0.9037,0.9451,1.025,1.0877,1.118,1.117,1.0885,1.0471,1.0069,0.9909,0.9862,0.9873,1.0474,1.107,1.249,1.4255,1.5532,1.6696,1.7727,1.8224,1.8135,1.7515,1.6852,1.588,1.5654,1.593,1.6299,1.6425,1.6243,1.6063,1.5918,1.5622,1.494,1.4241,1.3336,1.2558,1.204,1.1755,1.1551,1.1347,1.1145,1.0853,1.0621,1.0466,1.0133,0.9801,0.9428,0.8977,0.8296,0.7652,0.714,0.6761,0.6858,0.755,0.8054,0.8639,0.9527,1.0768,1.1939,1.2754,1.3134,1.391,1.4232,1.4164,1.3981,1.3658,1.2792,1.2605,1.2785,1.1877,1.1473,1.097,1.0614,1.0414,1.0077,0.974,0.8971,0.8263,0.8116,0.7993,0.8013,0.7979,0.841,0.8775,0.859,0.8362,0.795,0.7723,0.7809,0.7931,0.7981,0.7937,0.7889,0.7943,0.8103,0.7892,0.7684,0.7597,0.7501,0.7158,0.6874,0.6719,0.6505,0.628,0.6057,0.6,0.5825,0.5485,0.5055,0.4617,0.7759,0.7774,0.785,0.8787,0.9879,0.9769,1.0033,1.0637,1.0825,1.0853,1.0643,1.0079,0.9571,0.9304,0.9298,0.9197,0.9187,1.0005,1.0716,1.1844,1.3675,1.4972,1.6036,1.6994,1.7256,1.6786,1.6041,1.5032,1.3539,1.3942,1.4567,1.4853,1.4749,1.4834,1.4964,1.4736,1.4606,1.4248,1.3342,1.2495,1.1822,1.1281,1.0998,1.0779,1.0525,1.0261,1.0102,1.0024,0.9596,0.9341,0.9103,0.8684,0.8032,0.7129,0.6603,0.6067,0.5652,0.63,0.693,0.7494,0.8253,0.9302,1.0862,1.197,1.2835,1.345,1.4264,1.4787,1.482,1.4601,1.4261,1.3996,1.3718,1.2808,1.1619,1.1025,1.0438,1.018,1.0005,0.9804,0.958,0.8971,0.8109,0.7755,0.7632,0.7535,0.7611,0.7888,0.8196,0.8228,0.7886,0.7422,0.7261,0.7289,0.7402,0.745,0.7396,0.7297,0.7512,0.7566,0.7357,0.7249,0.7201,0.7098,0.6933,0.6771,0.6613,0.6502,0.6389,0.6168,0.5893,0.5673,0.5443,0.4875,0.4393,0.8429,0.8426,0.8574,0.9555,1.0965,1.1429,1.1619,1.1611,1.1105,1.0545,0.9839,0.8982,0.8332,0.7919,0.7987,0.8302,0.8669,0.9187,1.0016,1.1324,1.2814,1.3952,1.4986,1.5865,1.6061,1.5646,1.4762,1.3785,1.3182,1.3131,1.2793,1.2776,1.3215,1.3403,1.3382,1.2993,1.3412,1.3459,1.2521,1.1821,1.1206,1.0664,1.0397,1.0108,0.9903,0.9613,0.9364,0.9164,0.8631,0.7915,0.7765,0.7392,0.692,0.6272,0.5747,0.5483,0.5675,0.6199,0.6852,0.7775,0.862,0.9373,1.0884,1.209,1.3012,1.378,1.4606,1.4984,1.5177,1.4936,1.4466,1.4141,1.3515,1.2379,1.1192,1.0276,0.9739,0.9575,0.9482,0.9653,0.9446,0.8834,0.796,0.7566,0.7436,0.7216,0.7289,0.7583,0.7755,0.7847,0.7788,0.7323,0.7111,0.7244,0.6866,0.681,0.681,0.6756,0.7028,0.7192,0.7141,0.7033,0.6918,0.681,0.6761,0.6606,0.6396,0.6337,0.6332,0.6062,0.5734,0.5567,0.532,0.4761,0.4362,0.9014,0.905,0.8987,0.9872,1.1271,1.1822,1.1956,1.1645,1.062,0.9619,0.8791,0.7712,0.6905,0.6396,0.6735,0.7173,0.7436,0.8237,0.9127,1.0332,1.1769,1.2995,1.4,1.4636,1.4853,1.4475,1.3897,1.3068,1.2516,1.2201,1.1901,1.2064,1.2219,1.2312,1.2292,1.1943,1.1825,1.1975,1.1732,1.1062,1.0535,1.014,0.9915,0.953,0.9367,0.9049,0.8515,0.8293,0.7623,0.6947,0.6793,0.6403,0.6005,0.5552,0.5289,0.509,0.555,0.6009,0.666,0.7709,0.8549,0.9521,1.0793,1.1867,1.2904,1.3786,1.4509,1.5089,1.5167,1.5167,1.456,1.3892,1.2826,1.1701,1.0593,0.9479,0.9175,0.893,0.9093,0.9357,0.9071,0.8505,0.7971,0.7575,0.7291,0.7218,0.7378,0.7817,0.792,0.7868,0.7901,0.7655,0.7393,0.7246,0.6815,0.6487,0.6487,0.6596,0.6817,0.698,0.6928,0.6871,0.6704,0.6701,0.6699,0.6601,0.6556,0.6391,0.6277,0.6005,0.5791,0.5629,0.5253,0.4602,0.4331,0.9216,0.932,0.9142,0.9801,1.1125,1.1242,1.1287,1.1205,0.9674,0.8428,0.7471,0.628,0.5333,0.4905,0.5416,0.581,0.6352,0.7213,0.8227,0.9325,1.0749,1.2034,1.3055,1.3616,1.3784,1.3556,1.3061,1.2397,1.1666,1.1355,1.1476,1.1864,1.1732,1.174,1.1648,1.099,1.0743,1.0529,1.0462,1.0047,0.9581,0.944,0.9495,0.8973,0.8731,0.8478,0.7901,0.7426,0.7026,0.6586,0.6149,0.5597,0.5218,0.5095,0.4829,0.5092,0.5486,0.5945,0.6664,0.7649,0.8433,0.9399,1.0481,1.1384,1.2346,1.3498,1.4268,1.4446,1.4451,1.4007,1.3335,1.2322,1.1195,1.0193,0.9137,0.8331,0.7894,0.8104,0.8796,0.9029,0.8934,0.8373,0.7995,0.7528,0.7375,0.7259,0.7588,0.81,0.8162,0.8098,0.7955,0.7871,0.7577,0.726,0.6756,0.6485,0.6431,0.6542,0.6603,0.6763,0.6815,0.6652,0.6544,0.6544,0.6544,0.6766,0.6774,0.6552,0.6329,0.6168,0.5955,0.58,0.5297,0.4565,0.4388,0.814,0.799,0.8596,0.9514,1.0373,1.0458,1.0464,1.0429,0.8863,0.747,0.6355,0.495,0.3833,0.3315,0.3879,0.4434,0.5257,0.6239,0.7258,0.8268,0.96,1.0903,1.1961,1.2315,1.2655,1.2895,1.2532,1.167,1.1052,1.0867,1.0804,1.093,1.0996,1.1059,1.0989,1.0276,0.9882,0.9369,0.9231,0.9131,0.8813,0.8471,0.8249,0.821,0.8167,0.7738,0.7203,0.6791,0.6095,0.5406,0.5119,0.4687,0.436,0.4561,0.4628,0.4823,0.5549,0.6009,0.6601,0.7582,0.8627,0.9212,1.0044,1.0671,1.1659,1.2952,1.3618,1.3541,1.3343,1.272,1.1901,1.0705,0.9563,0.862,0.7737,0.7174,0.6675,0.7531,0.8392,0.8576,0.8624,0.8298,0.7909,0.7644,0.7505,0.773,0.8147,0.8471,0.8537,0.8475,0.804,0.7925,0.7652,0.7279,0.6766,0.6428,0.6322,0.6164,0.6114,0.6329,0.665,0.6647,0.6647,0.6443,0.6448,0.6663,0.6768,0.6655,0.6438,0.6275,0.5948,0.5624,0.5246,0.4638,0.4581,0.7338,0.6961,0.6976,0.7616,0.8414,0.8504,0.8628,0.8554,0.7234,0.5722,0.417,0.2471,0.1385,0.1443,0.2165,0.322,0.4155,0.5366,0.6612,0.7635,0.8427,0.9585,1.0368,1.1015,1.1263,1.1594,1.1538,1.0993,1.0618,1.0621,1.0621,1.0621,1.0621,1.0491,1.0295,0.9776,0.9192,0.8355,0.8293,0.815,0.8088,0.7962,0.7963,0.8027,0.7615,0.7177,0.6639,0.6191,0.5528,0.4929,0.4619,0.4227,0.4029,0.4163,0.4427,0.4756,0.5348,0.6073,0.6599,0.7514,0.8689,0.9081,0.9853,1.0604,1.0734,1.1838,1.1888,1.1873,1.2177,1.1742,1.0345,0.9142,0.804,0.6952,0.658,0.6272,0.6408,0.7062,0.7917,0.8503,0.8428,0.8102,0.7714,0.726,0.7188,0.7321,0.7889,0.8488,0.8609,0.8623,0.8263,0.7963,0.7644,0.7228,0.6704,0.6374,0.6213,0.6003,0.5736,0.6237,0.6675,0.6761,0.6807,0.6436,0.6332,0.6549,0.6598,0.6598,0.6431,0.6213,0.583,0.5395,0.4961,0.4527,0.4239,0.629,0.5663,0.4727,0.5037,0.5992,0.619,0.6457,0.6523,0.5379,0.3804,0.2026,-0.0221,-0.0948,-0.0557,0.0612,0.1833,0.3105,0.4597,0.5962,0.6889,0.77,0.861,0.9301,0.9797,1.0238,1.0499,1.051,1.0528,1.0428,1.0495,1.0495,1.0558,1.0491,1.0358,0.9904,0.9387,0.8807,0.7967,0.7582,0.7129,0.7314,0.7577,0.7601,0.7483,0.7188,0.6732,0.6077,0.555,0.502,0.4623,0.4227,0.3894,0.3696,0.383,0.4228,0.4625,0.5219,0.5747,0.634,0.7449,0.8104,0.8689,0.9713,1.0098,1.0094,1.0088,1.0139,1.0189,1.0494,1.017,0.8773,0.7618,0.6508,0.5657,0.5476,0.5552,0.6007,0.6595,0.7449,0.8234,0.7972,0.7712,0.7379,0.6926,0.692,0.7062,0.7396,0.7979,0.8321,0.8249,0.8073,0.7851,0.7616,0.7151,0.6644,0.632,0.6107,0.5727,0.5572,0.6192,0.6638,0.6719,0.6591,0.6261,0.6211,0.6598,0.6655,0.6655,0.6433,0.6211,0.5716,0.5226,0.4455,0.4019,0.3524,0.4005,0.28,0.2215,0.2866,0.4275,0.5017,0.5366,0.5309,0.4609,0.3088,0.1216,-0.0445,-0.1622,-0.2578,-0.067,0.0891,0.2557,0.394,0.4718,0.554,0.6848,0.7655,0.837,0.9029,0.9664,0.9923,1.0005,1.0034,1.004,1.0238,1.0368,1.0301,1.0491,1.0228,0.9709,0.9128,0.8353,0.7512,0.7001,0.6679,0.6412,0.6539,0.6605,0.6408,0.6148,0.555,0.4953,0.4554,0.4224,0.3826,0.3627,0.3494,0.3496,0.3631,0.3962,0.4561,0.5156,0.5618,0.6274,0.7125,0.7649,0.7979,0.8619,0.8613,0.8611,0.8546,0.8407,0.7952,0.8135,0.813,0.7042,0.6131,0.5148,0.4678,0.4418,0.488,0.5401,0.6264,0.7129,0.7323,0.7256,0.7046,0.6765,0.6551,0.6632,0.6776,0.7184,0.7557,0.7088,0.7343,0.7739,0.7667,0.7503,0.7196,0.6727,0.6263,0.5943,0.5565,0.535,0.5745,0.613,0.6559,0.6381,0.6098,0.6428,0.6874,0.6874,0.6768,0.6438,0.6216,0.5662,0.5058,0.4231,0.3514,0.3074]}]]